<?xml version="1.0" encoding="UTF-8" standalone="no" ?>
<gpx xmlns="http://www.topografix.com/GPX/1/1" xmlns:xsi="http://www.w3.org/2001/XMLSchema-instance" xsi:schemaLocation="http://www.topografix.com/GPX/1/1 http://www.topografix.com/GPX/1/1/gpx.xsd" version="1.1" creator="VisuGPX - https://www.visugpx.com">
  <metadata>
    <name>Pic de Nore</name>
    <desc><![CDATA[Jolie boucle depuis le lac de Pradelles. Rando effectuée dans la neige et sous un beau soleil. Repas au pic de Nore sous une légère brise. Vue magnifique des Pyrénées enneigées. Une bien belle journée. ]]></desc>
  </metadata>
  <trk>
    <name><![CDATA[08-DEC-13 15:31:32]]></name>
    <trkseg>
      <trkpt lat="43.40184" lon="2.43917">
        <ele>792.74</ele>
        <time>2013-12-08T08:55:33Z</time>
      </trkpt>
      <trkpt lat="43.40184" lon="2.43919">
        <ele>793.22</ele>
        <time>2013-12-08T08:55:43Z</time>
      </trkpt>
      <trkpt lat="43.40189" lon="2.4392">
        <ele>792.74</ele>
        <time>2013-12-08T08:55:55Z</time>
      </trkpt>
      <trkpt lat="43.40198" lon="2.43929">
        <ele>792.74</ele>
        <time>2013-12-08T08:56:05Z</time>
      </trkpt>
      <trkpt lat="43.40199" lon="2.43929">
        <ele>793.22</ele>
        <time>2013-12-08T08:56:06Z</time>
      </trkpt>
      <trkpt lat="43.402" lon="2.43928">
        <ele>793.22</ele>
        <time>2013-12-08T08:56:15Z</time>
      </trkpt>
      <trkpt lat="43.40198" lon="2.43924">
        <ele>793.22</ele>
        <time>2013-12-08T08:56:36Z</time>
      </trkpt>
      <trkpt lat="43.40202" lon="2.43924">
        <ele>793.22</ele>
        <time>2013-12-08T08:56:46Z</time>
      </trkpt>
      <trkpt lat="43.40202" lon="2.43921">
        <ele>793.71</ele>
        <time>2013-12-08T08:56:59Z</time>
      </trkpt>
      <trkpt lat="43.40206" lon="2.43923">
        <ele>793.22</ele>
        <time>2013-12-08T08:57:10Z</time>
      </trkpt>
      <trkpt lat="43.40212" lon="2.43922">
        <ele>794.19</ele>
        <time>2013-12-08T08:57:20Z</time>
      </trkpt>
      <trkpt lat="43.40219" lon="2.43924">
        <ele>792.74</ele>
        <time>2013-12-08T08:57:30Z</time>
      </trkpt>
      <trkpt lat="43.4023" lon="2.43926">
        <ele>792.26</ele>
        <time>2013-12-08T08:57:41Z</time>
      </trkpt>
      <trkpt lat="43.40244" lon="2.43922">
        <ele>792.74</ele>
        <time>2013-12-08T08:57:54Z</time>
      </trkpt>
      <trkpt lat="43.40252" lon="2.43926">
        <ele>792.74</ele>
        <time>2013-12-08T08:58:06Z</time>
      </trkpt>
      <trkpt lat="43.40261" lon="2.43918">
        <ele>792.26</ele>
        <time>2013-12-08T08:58:16Z</time>
      </trkpt>
      <trkpt lat="43.40267" lon="2.43916">
        <ele>792.26</ele>
        <time>2013-12-08T08:58:21Z</time>
      </trkpt>
      <trkpt lat="43.40278" lon="2.43916">
        <ele>791.3</ele>
        <time>2013-12-08T08:58:32Z</time>
      </trkpt>
      <trkpt lat="43.4028" lon="2.43916">
        <ele>791.3</ele>
        <time>2013-12-08T08:58:33Z</time>
      </trkpt>
      <trkpt lat="43.40293" lon="2.43921">
        <ele>789.38</ele>
        <time>2013-12-08T08:58:46Z</time>
      </trkpt>
      <trkpt lat="43.40308" lon="2.43924">
        <ele>788.42</ele>
        <time>2013-12-08T08:58:59Z</time>
      </trkpt>
      <trkpt lat="43.40316" lon="2.43927">
        <ele>787.94</ele>
        <time>2013-12-08T08:59:09Z</time>
      </trkpt>
      <trkpt lat="43.40324" lon="2.43932">
        <ele>787.94</ele>
        <time>2013-12-08T08:59:17Z</time>
      </trkpt>
      <trkpt lat="43.40333" lon="2.43937">
        <ele>787.94</ele>
        <time>2013-12-08T08:59:26Z</time>
      </trkpt>
      <trkpt lat="43.40347" lon="2.4394">
        <ele>786.5</ele>
        <time>2013-12-08T08:59:40Z</time>
      </trkpt>
      <trkpt lat="43.40354" lon="2.43945">
        <ele>786.02</ele>
        <time>2013-12-08T08:59:48Z</time>
      </trkpt>
      <trkpt lat="43.4036" lon="2.43966">
        <ele>785.53</ele>
        <time>2013-12-08T09:00:00Z</time>
      </trkpt>
      <trkpt lat="43.40365" lon="2.43986">
        <ele>785.53</ele>
        <time>2013-12-08T09:00:13Z</time>
      </trkpt>
      <trkpt lat="43.4037" lon="2.44">
        <ele>785.53</ele>
        <time>2013-12-08T09:00:24Z</time>
      </trkpt>
      <trkpt lat="43.40375" lon="2.44007">
        <ele>785.05</ele>
        <time>2013-12-08T09:00:33Z</time>
      </trkpt>
      <trkpt lat="43.40377" lon="2.4401">
        <ele>784.09</ele>
        <time>2013-12-08T09:00:36Z</time>
      </trkpt>
      <trkpt lat="43.40377" lon="2.44011">
        <ele>784.09</ele>
        <time>2013-12-08T09:00:37Z</time>
      </trkpt>
      <trkpt lat="43.40378" lon="2.44012">
        <ele>783.61</ele>
        <time>2013-12-08T09:00:38Z</time>
      </trkpt>
      <trkpt lat="43.40379" lon="2.44014">
        <ele>784.09</ele>
        <time>2013-12-08T09:00:39Z</time>
      </trkpt>
      <trkpt lat="43.4038" lon="2.44015">
        <ele>784.09</ele>
        <time>2013-12-08T09:00:40Z</time>
      </trkpt>
      <trkpt lat="43.40388" lon="2.44031">
        <ele>782.17</ele>
        <time>2013-12-08T09:00:53Z</time>
      </trkpt>
      <trkpt lat="43.40392" lon="2.4403">
        <ele>781.69</ele>
        <time>2013-12-08T09:01:04Z</time>
      </trkpt>
      <trkpt lat="43.40394" lon="2.44034">
        <ele>781.21</ele>
        <time>2013-12-08T09:01:14Z</time>
      </trkpt>
      <trkpt lat="43.40391" lon="2.44046">
        <ele>780.25</ele>
        <time>2013-12-08T09:01:23Z</time>
      </trkpt>
      <trkpt lat="43.40392" lon="2.44073">
        <ele>779.77</ele>
        <time>2013-12-08T09:01:35Z</time>
      </trkpt>
      <trkpt lat="43.40393" lon="2.44075">
        <ele>779.77</ele>
        <time>2013-12-08T09:01:36Z</time>
      </trkpt>
      <trkpt lat="43.40396" lon="2.44095">
        <ele>779.77</ele>
        <time>2013-12-08T09:01:48Z</time>
      </trkpt>
      <trkpt lat="43.40395" lon="2.44098">
        <ele>780.73</ele>
        <time>2013-12-08T09:01:50Z</time>
      </trkpt>
      <trkpt lat="43.40394" lon="2.44102">
        <ele>780.25</ele>
        <time>2013-12-08T09:01:53Z</time>
      </trkpt>
      <trkpt lat="43.40394" lon="2.44104">
        <ele>780.73</ele>
        <time>2013-12-08T09:01:54Z</time>
      </trkpt>
      <trkpt lat="43.40393" lon="2.44116">
        <ele>781.21</ele>
        <time>2013-12-08T09:02:00Z</time>
      </trkpt>
      <trkpt lat="43.40393" lon="2.44117">
        <ele>781.21</ele>
        <time>2013-12-08T09:02:01Z</time>
      </trkpt>
      <trkpt lat="43.40392" lon="2.44119">
        <ele>780.73</ele>
        <time>2013-12-08T09:02:02Z</time>
      </trkpt>
      <trkpt lat="43.40393" lon="2.44146">
        <ele>780.73</ele>
        <time>2013-12-08T09:02:14Z</time>
      </trkpt>
      <trkpt lat="43.40395" lon="2.44155">
        <ele>780.25</ele>
        <time>2013-12-08T09:02:25Z</time>
      </trkpt>
      <trkpt lat="43.40397" lon="2.44159">
        <ele>780.73</ele>
        <time>2013-12-08T09:02:35Z</time>
      </trkpt>
      <trkpt lat="43.40396" lon="2.44178">
        <ele>778.81</ele>
        <time>2013-12-08T09:02:48Z</time>
      </trkpt>
      <trkpt lat="43.40397" lon="2.44183">
        <ele>778.81</ele>
        <time>2013-12-08T09:02:53Z</time>
      </trkpt>
      <trkpt lat="43.40396" lon="2.44187">
        <ele>779.29</ele>
        <time>2013-12-08T09:02:56Z</time>
      </trkpt>
      <trkpt lat="43.40398" lon="2.44208">
        <ele>779.29</ele>
        <time>2013-12-08T09:03:08Z</time>
      </trkpt>
      <trkpt lat="43.404" lon="2.44222">
        <ele>779.29</ele>
        <time>2013-12-08T09:03:17Z</time>
      </trkpt>
      <trkpt lat="43.40399" lon="2.44238">
        <ele>779.29</ele>
        <time>2013-12-08T09:03:28Z</time>
      </trkpt>
      <trkpt lat="43.40403" lon="2.44255">
        <ele>780.73</ele>
        <time>2013-12-08T09:03:38Z</time>
      </trkpt>
      <trkpt lat="43.40404" lon="2.44271">
        <ele>779.77</ele>
        <time>2013-12-08T09:03:47Z</time>
      </trkpt>
      <trkpt lat="43.40408" lon="2.44286">
        <ele>776.88</ele>
        <time>2013-12-08T09:03:56Z</time>
      </trkpt>
      <trkpt lat="43.40408" lon="2.44288">
        <ele>780.25</ele>
        <time>2013-12-08T09:03:57Z</time>
      </trkpt>
      <trkpt lat="43.40409" lon="2.44289">
        <ele>782.17</ele>
        <time>2013-12-08T09:03:58Z</time>
      </trkpt>
      <trkpt lat="43.40409" lon="2.4429">
        <ele>780.73</ele>
        <time>2013-12-08T09:03:59Z</time>
      </trkpt>
      <trkpt lat="43.40411" lon="2.44294">
        <ele>779.77</ele>
        <time>2013-12-08T09:04:02Z</time>
      </trkpt>
      <trkpt lat="43.40418" lon="2.44309">
        <ele>779.77</ele>
        <time>2013-12-08T09:04:13Z</time>
      </trkpt>
      <trkpt lat="43.40424" lon="2.4432">
        <ele>780.25</ele>
        <time>2013-12-08T09:04:23Z</time>
      </trkpt>
      <trkpt lat="43.40423" lon="2.4432">
        <ele>777.84</ele>
        <time>2013-12-08T09:04:25Z</time>
      </trkpt>
      <trkpt lat="43.40423" lon="2.44321">
        <ele>782.65</ele>
        <time>2013-12-08T09:04:26Z</time>
      </trkpt>
      <trkpt lat="43.40423" lon="2.44321">
        <ele>780.73</ele>
        <time>2013-12-08T09:04:27Z</time>
      </trkpt>
      <trkpt lat="43.40422" lon="2.4432">
        <ele>780.25</ele>
        <time>2013-12-08T09:04:45Z</time>
      </trkpt>
      <trkpt lat="43.40421" lon="2.44314">
        <ele>779.77</ele>
        <time>2013-12-08T09:05:02Z</time>
      </trkpt>
      <trkpt lat="43.40417" lon="2.44303">
        <ele>780.73</ele>
        <time>2013-12-08T09:05:15Z</time>
      </trkpt>
      <trkpt lat="43.40409" lon="2.44283">
        <ele>780.25</ele>
        <time>2013-12-08T09:05:26Z</time>
      </trkpt>
      <trkpt lat="43.4041" lon="2.44273">
        <ele>780.25</ele>
        <time>2013-12-08T09:05:33Z</time>
      </trkpt>
      <trkpt lat="43.40407" lon="2.44266">
        <ele>780.25</ele>
        <time>2013-12-08T09:05:42Z</time>
      </trkpt>
      <trkpt lat="43.4041" lon="2.44264">
        <ele>780.25</ele>
        <time>2013-12-08T09:05:58Z</time>
      </trkpt>
      <trkpt lat="43.40412" lon="2.44262">
        <ele>780.25</ele>
        <time>2013-12-08T09:06:07Z</time>
      </trkpt>
      <trkpt lat="43.40412" lon="2.44247">
        <ele>780.25</ele>
        <time>2013-12-08T09:06:17Z</time>
      </trkpt>
      <trkpt lat="43.40409" lon="2.44226">
        <ele>780.25</ele>
        <time>2013-12-08T09:06:29Z</time>
      </trkpt>
      <trkpt lat="43.40408" lon="2.44212">
        <ele>780.73</ele>
        <time>2013-12-08T09:06:39Z</time>
      </trkpt>
      <trkpt lat="43.40406" lon="2.44189">
        <ele>780.25</ele>
        <time>2013-12-08T09:06:50Z</time>
      </trkpt>
      <trkpt lat="43.40401" lon="2.44167">
        <ele>780.25</ele>
        <time>2013-12-08T09:06:57Z</time>
      </trkpt>
      <trkpt lat="43.404" lon="2.44165">
        <ele>780.25</ele>
        <time>2013-12-08T09:06:58Z</time>
      </trkpt>
      <trkpt lat="43.40398" lon="2.44151">
        <ele>781.21</ele>
        <time>2013-12-08T09:07:06Z</time>
      </trkpt>
      <trkpt lat="43.40398" lon="2.44146">
        <ele>780.73</ele>
        <time>2013-12-08T09:07:10Z</time>
      </trkpt>
      <trkpt lat="43.40399" lon="2.44125">
        <ele>782.65</ele>
        <time>2013-12-08T09:07:25Z</time>
      </trkpt>
      <trkpt lat="43.40398" lon="2.4412">
        <ele>781.69</ele>
        <time>2013-12-08T09:07:28Z</time>
      </trkpt>
      <trkpt lat="43.40397" lon="2.44118">
        <ele>781.69</ele>
        <time>2013-12-08T09:07:29Z</time>
      </trkpt>
      <trkpt lat="43.40397" lon="2.44116">
        <ele>781.69</ele>
        <time>2013-12-08T09:07:30Z</time>
      </trkpt>
      <trkpt lat="43.40397" lon="2.44114">
        <ele>781.69</ele>
        <time>2013-12-08T09:07:31Z</time>
      </trkpt>
      <trkpt lat="43.40397" lon="2.44112">
        <ele>782.17</ele>
        <time>2013-12-08T09:07:32Z</time>
      </trkpt>
      <trkpt lat="43.40397" lon="2.44106">
        <ele>781.21</ele>
        <time>2013-12-08T09:07:36Z</time>
      </trkpt>
      <trkpt lat="43.40397" lon="2.44104">
        <ele>781.69</ele>
        <time>2013-12-08T09:07:37Z</time>
      </trkpt>
      <trkpt lat="43.40398" lon="2.44102">
        <ele>780.73</ele>
        <time>2013-12-08T09:07:38Z</time>
      </trkpt>
      <trkpt lat="43.40398" lon="2.441">
        <ele>780.73</ele>
        <time>2013-12-08T09:07:39Z</time>
      </trkpt>
      <trkpt lat="43.40399" lon="2.44098">
        <ele>780.25</ele>
        <time>2013-12-08T09:07:40Z</time>
      </trkpt>
      <trkpt lat="43.40399" lon="2.44097">
        <ele>780.73</ele>
        <time>2013-12-08T09:07:41Z</time>
      </trkpt>
      <trkpt lat="43.40398" lon="2.44095">
        <ele>780.73</ele>
        <time>2013-12-08T09:07:42Z</time>
      </trkpt>
      <trkpt lat="43.404" lon="2.44078">
        <ele>780.25</ele>
        <time>2013-12-08T09:07:52Z</time>
      </trkpt>
      <trkpt lat="43.40399" lon="2.44059">
        <ele>780.73</ele>
        <time>2013-12-08T09:08:04Z</time>
      </trkpt>
      <trkpt lat="43.404" lon="2.44038">
        <ele>781.69</ele>
        <time>2013-12-08T09:08:18Z</time>
      </trkpt>
      <trkpt lat="43.40391" lon="2.44026">
        <ele>782.65</ele>
        <time>2013-12-08T09:08:30Z</time>
      </trkpt>
      <trkpt lat="43.40382" lon="2.44006">
        <ele>784.57</ele>
        <time>2013-12-08T09:08:43Z</time>
      </trkpt>
      <trkpt lat="43.40381" lon="2.43989">
        <ele>784.09</ele>
        <time>2013-12-08T09:08:54Z</time>
      </trkpt>
      <trkpt lat="43.40379" lon="2.43983">
        <ele>784.09</ele>
        <time>2013-12-08T09:08:58Z</time>
      </trkpt>
      <trkpt lat="43.40377" lon="2.43981">
        <ele>784.09</ele>
        <time>2013-12-08T09:08:59Z</time>
      </trkpt>
      <trkpt lat="43.40375" lon="2.4398">
        <ele>783.61</ele>
        <time>2013-12-08T09:09:00Z</time>
      </trkpt>
      <trkpt lat="43.40374" lon="2.43979">
        <ele>785.05</ele>
        <time>2013-12-08T09:09:01Z</time>
      </trkpt>
      <trkpt lat="43.40373" lon="2.43977">
        <ele>785.05</ele>
        <time>2013-12-08T09:09:02Z</time>
      </trkpt>
      <trkpt lat="43.40372" lon="2.43965">
        <ele>785.05</ele>
        <time>2013-12-08T09:09:11Z</time>
      </trkpt>
      <trkpt lat="43.40377" lon="2.43964">
        <ele>784.57</ele>
        <time>2013-12-08T09:09:16Z</time>
      </trkpt>
      <trkpt lat="43.40379" lon="2.43965">
        <ele>785.05</ele>
        <time>2013-12-08T09:09:18Z</time>
      </trkpt>
      <trkpt lat="43.4039" lon="2.4397">
        <ele>785.53</ele>
        <time>2013-12-08T09:09:29Z</time>
      </trkpt>
      <trkpt lat="43.40401" lon="2.43974">
        <ele>786.98</ele>
        <time>2013-12-08T09:09:42Z</time>
      </trkpt>
      <trkpt lat="43.40411" lon="2.43979">
        <ele>790.34</ele>
        <time>2013-12-08T09:09:56Z</time>
      </trkpt>
      <trkpt lat="43.40417" lon="2.43977">
        <ele>790.82</ele>
        <time>2013-12-08T09:10:06Z</time>
      </trkpt>
      <trkpt lat="43.4042" lon="2.43984">
        <ele>792.26</ele>
        <time>2013-12-08T09:10:17Z</time>
      </trkpt>
      <trkpt lat="43.40431" lon="2.43984">
        <ele>792.74</ele>
        <time>2013-12-08T09:10:27Z</time>
      </trkpt>
      <trkpt lat="43.40447" lon="2.43987">
        <ele>793.22</ele>
        <time>2013-12-08T09:10:40Z</time>
      </trkpt>
      <trkpt lat="43.40461" lon="2.43981">
        <ele>793.71</ele>
        <time>2013-12-08T09:10:54Z</time>
      </trkpt>
      <trkpt lat="43.4047" lon="2.43976">
        <ele>795.15</ele>
        <time>2013-12-08T09:11:06Z</time>
      </trkpt>
      <trkpt lat="43.4048" lon="2.43978">
        <ele>795.63</ele>
        <time>2013-12-08T09:11:16Z</time>
      </trkpt>
      <trkpt lat="43.40488" lon="2.43975">
        <ele>796.59</ele>
        <time>2013-12-08T09:11:29Z</time>
      </trkpt>
      <trkpt lat="43.40502" lon="2.43982">
        <ele>797.55</ele>
        <time>2013-12-08T09:11:42Z</time>
      </trkpt>
      <trkpt lat="43.40515" lon="2.43986">
        <ele>798.99</ele>
        <time>2013-12-08T09:11:55Z</time>
      </trkpt>
      <trkpt lat="43.40526" lon="2.43991">
        <ele>799.47</ele>
        <time>2013-12-08T09:12:05Z</time>
      </trkpt>
      <trkpt lat="43.40532" lon="2.43995">
        <ele>799.47</ele>
        <time>2013-12-08T09:12:11Z</time>
      </trkpt>
      <trkpt lat="43.40537" lon="2.44008">
        <ele>798.99</ele>
        <time>2013-12-08T09:12:21Z</time>
      </trkpt>
      <trkpt lat="43.40541" lon="2.44017">
        <ele>798.51</ele>
        <time>2013-12-08T09:12:29Z</time>
      </trkpt>
      <trkpt lat="43.40544" lon="2.44029">
        <ele>798.51</ele>
        <time>2013-12-08T09:12:37Z</time>
      </trkpt>
      <trkpt lat="43.40546" lon="2.44033">
        <ele>799.47</ele>
        <time>2013-12-08T09:12:41Z</time>
      </trkpt>
      <trkpt lat="43.40556" lon="2.4404">
        <ele>800.92</ele>
        <time>2013-12-08T09:12:53Z</time>
      </trkpt>
      <trkpt lat="43.40565" lon="2.44044">
        <ele>802.36</ele>
        <time>2013-12-08T09:13:06Z</time>
      </trkpt>
      <trkpt lat="43.40575" lon="2.44048">
        <ele>804.76</ele>
        <time>2013-12-08T09:13:18Z</time>
      </trkpt>
      <trkpt lat="43.40586" lon="2.44053">
        <ele>806.2</ele>
        <time>2013-12-08T09:13:31Z</time>
      </trkpt>
      <trkpt lat="43.40595" lon="2.44053">
        <ele>807.64</ele>
        <time>2013-12-08T09:13:42Z</time>
      </trkpt>
      <trkpt lat="43.40606" lon="2.44056">
        <ele>809.09</ele>
        <time>2013-12-08T09:13:54Z</time>
      </trkpt>
      <trkpt lat="43.40611" lon="2.44054">
        <ele>810.53</ele>
        <time>2013-12-08T09:14:03Z</time>
      </trkpt>
      <trkpt lat="43.40621" lon="2.44056">
        <ele>811.49</ele>
        <time>2013-12-08T09:14:13Z</time>
      </trkpt>
      <trkpt lat="43.40633" lon="2.44056">
        <ele>813.89</ele>
        <time>2013-12-08T09:14:27Z</time>
      </trkpt>
      <trkpt lat="43.40643" lon="2.44056">
        <ele>815.34</ele>
        <time>2013-12-08T09:14:39Z</time>
      </trkpt>
      <trkpt lat="43.4065" lon="2.44055">
        <ele>817.26</ele>
        <time>2013-12-08T09:14:51Z</time>
      </trkpt>
      <trkpt lat="43.40659" lon="2.44051">
        <ele>818.22</ele>
        <time>2013-12-08T09:15:00Z</time>
      </trkpt>
      <trkpt lat="43.40665" lon="2.44047">
        <ele>819.18</ele>
        <time>2013-12-08T09:15:13Z</time>
      </trkpt>
      <trkpt lat="43.40665" lon="2.44045">
        <ele>818.7</ele>
        <time>2013-12-08T09:15:25Z</time>
      </trkpt>
      <trkpt lat="43.40663" lon="2.44039">
        <ele>818.7</ele>
        <time>2013-12-08T09:15:30Z</time>
      </trkpt>
      <trkpt lat="43.40658" lon="2.44026">
        <ele>818.22</ele>
        <time>2013-12-08T09:15:42Z</time>
      </trkpt>
      <trkpt lat="43.40653" lon="2.44011">
        <ele>818.22</ele>
        <time>2013-12-08T09:15:53Z</time>
      </trkpt>
      <trkpt lat="43.40648" lon="2.43996">
        <ele>818.22</ele>
        <time>2013-12-08T09:16:04Z</time>
      </trkpt>
      <trkpt lat="43.4064" lon="2.43981">
        <ele>817.74</ele>
        <time>2013-12-08T09:16:15Z</time>
      </trkpt>
      <trkpt lat="43.40635" lon="2.43973">
        <ele>817.74</ele>
        <time>2013-12-08T09:16:26Z</time>
      </trkpt>
      <trkpt lat="43.40628" lon="2.43963">
        <ele>818.22</ele>
        <time>2013-12-08T09:16:36Z</time>
      </trkpt>
      <trkpt lat="43.40628" lon="2.43961">
        <ele>817.74</ele>
        <time>2013-12-08T09:16:50Z</time>
      </trkpt>
      <trkpt lat="43.40623" lon="2.43957">
        <ele>817.74</ele>
        <time>2013-12-08T09:16:58Z</time>
      </trkpt>
      <trkpt lat="43.40611" lon="2.43943">
        <ele>817.26</ele>
        <time>2013-12-08T09:17:09Z</time>
      </trkpt>
      <trkpt lat="43.40604" lon="2.43936">
        <ele>817.74</ele>
        <time>2013-12-08T09:17:15Z</time>
      </trkpt>
      <trkpt lat="43.40585" lon="2.43921">
        <ele>816.78</ele>
        <time>2013-12-08T09:17:31Z</time>
      </trkpt>
      <trkpt lat="43.40585" lon="2.43922">
        <ele>816.78</ele>
        <time>2013-12-08T09:17:38Z</time>
      </trkpt>
      <trkpt lat="43.40579" lon="2.43912">
        <ele>816.78</ele>
        <time>2013-12-08T09:17:49Z</time>
      </trkpt>
      <trkpt lat="43.40574" lon="2.439">
        <ele>817.74</ele>
        <time>2013-12-08T09:18:01Z</time>
      </trkpt>
      <trkpt lat="43.40571" lon="2.43904">
        <ele>817.74</ele>
        <time>2013-12-08T09:18:12Z</time>
      </trkpt>
      <trkpt lat="43.4057" lon="2.4391">
        <ele>815.82</ele>
        <time>2013-12-08T09:18:30Z</time>
      </trkpt>
      <trkpt lat="43.4057" lon="2.4391">
        <ele>815.82</ele>
        <time>2013-12-08T09:18:31Z</time>
      </trkpt>
      <trkpt lat="43.4057" lon="2.43911">
        <ele>820.14</ele>
        <time>2013-12-08T09:18:33Z</time>
      </trkpt>
      <trkpt lat="43.40567" lon="2.43907">
        <ele>818.22</ele>
        <time>2013-12-08T09:18:46Z</time>
      </trkpt>
      <trkpt lat="43.40576" lon="2.43899">
        <ele>818.22</ele>
        <time>2013-12-08T09:19:01Z</time>
      </trkpt>
      <trkpt lat="43.40571" lon="2.43902">
        <ele>818.22</ele>
        <time>2013-12-08T09:19:18Z</time>
      </trkpt>
      <trkpt lat="43.40572" lon="2.43903">
        <ele>817.74</ele>
        <time>2013-12-08T09:19:32Z</time>
      </trkpt>
      <trkpt lat="43.40573" lon="2.43904">
        <ele>812.45</ele>
        <time>2013-12-08T09:19:38Z</time>
      </trkpt>
      <trkpt lat="43.40573" lon="2.43905">
        <ele>823.03</ele>
        <time>2013-12-08T09:19:39Z</time>
      </trkpt>
      <trkpt lat="43.40573" lon="2.43904">
        <ele>818.22</ele>
        <time>2013-12-08T09:19:40Z</time>
      </trkpt>
      <trkpt lat="43.40574" lon="2.43902">
        <ele>818.22</ele>
        <time>2013-12-08T09:19:52Z</time>
      </trkpt>
      <trkpt lat="43.40575" lon="2.43899">
        <ele>809.57</ele>
        <time>2013-12-08T09:19:59Z</time>
      </trkpt>
      <trkpt lat="43.40575" lon="2.43899">
        <ele>825.43</ele>
        <time>2013-12-08T09:20:00Z</time>
      </trkpt>
      <trkpt lat="43.40575" lon="2.43899">
        <ele>818.22</ele>
        <time>2013-12-08T09:20:01Z</time>
      </trkpt>
      <trkpt lat="43.40576" lon="2.43899">
        <ele>817.26</ele>
        <time>2013-12-08T09:20:03Z</time>
      </trkpt>
      <trkpt lat="43.40576" lon="2.43899">
        <ele>821.1</ele>
        <time>2013-12-08T09:20:06Z</time>
      </trkpt>
      <trkpt lat="43.40576" lon="2.43899">
        <ele>819.18</ele>
        <time>2013-12-08T09:20:07Z</time>
      </trkpt>
      <trkpt lat="43.40576" lon="2.43897">
        <ele>818.22</ele>
        <time>2013-12-08T09:20:09Z</time>
      </trkpt>
      <trkpt lat="43.40572" lon="2.439">
        <ele>817.74</ele>
        <time>2013-12-08T09:20:23Z</time>
      </trkpt>
      <trkpt lat="43.40568" lon="2.43874">
        <ele>819.66</ele>
        <time>2013-12-08T09:20:38Z</time>
      </trkpt>
      <trkpt lat="43.40562" lon="2.43862">
        <ele>821.58</ele>
        <time>2013-12-08T09:20:51Z</time>
      </trkpt>
      <trkpt lat="43.40554" lon="2.43848">
        <ele>823.99</ele>
        <time>2013-12-08T09:21:04Z</time>
      </trkpt>
      <trkpt lat="43.40551" lon="2.43833">
        <ele>826.39</ele>
        <time>2013-12-08T09:21:18Z</time>
      </trkpt>
      <trkpt lat="43.40549" lon="2.43827">
        <ele>827.83</ele>
        <time>2013-12-08T09:21:24Z</time>
      </trkpt>
      <trkpt lat="43.40541" lon="2.43811">
        <ele>829.76</ele>
        <time>2013-12-08T09:21:39Z</time>
      </trkpt>
      <trkpt lat="43.40532" lon="2.43804">
        <ele>829.76</ele>
        <time>2013-12-08T09:21:46Z</time>
      </trkpt>
      <trkpt lat="43.40525" lon="2.43796">
        <ele>833.12</ele>
        <time>2013-12-08T09:21:51Z</time>
      </trkpt>
      <trkpt lat="43.40519" lon="2.43787">
        <ele>830.72</ele>
        <time>2013-12-08T09:21:58Z</time>
      </trkpt>
      <trkpt lat="43.40516" lon="2.4377">
        <ele>831.2</ele>
        <time>2013-12-08T09:22:09Z</time>
      </trkpt>
      <trkpt lat="43.40512" lon="2.43753">
        <ele>831.2</ele>
        <time>2013-12-08T09:22:21Z</time>
      </trkpt>
      <trkpt lat="43.40509" lon="2.43739">
        <ele>832.16</ele>
        <time>2013-12-08T09:22:32Z</time>
      </trkpt>
      <trkpt lat="43.405" lon="2.43725">
        <ele>833.12</ele>
        <time>2013-12-08T09:22:46Z</time>
      </trkpt>
      <trkpt lat="43.40499" lon="2.43716">
        <ele>833.12</ele>
        <time>2013-12-08T09:22:51Z</time>
      </trkpt>
      <trkpt lat="43.40495" lon="2.43692">
        <ele>833.12</ele>
        <time>2013-12-08T09:23:03Z</time>
      </trkpt>
      <trkpt lat="43.40496" lon="2.43685">
        <ele>833.6</ele>
        <time>2013-12-08T09:23:08Z</time>
      </trkpt>
      <trkpt lat="43.40496" lon="2.43682">
        <ele>834.08</ele>
        <time>2013-12-08T09:23:10Z</time>
      </trkpt>
      <trkpt lat="43.40497" lon="2.43661">
        <ele>832.64</ele>
        <time>2013-12-08T09:23:22Z</time>
      </trkpt>
      <trkpt lat="43.40496" lon="2.43654">
        <ele>834.08</ele>
        <time>2013-12-08T09:23:34Z</time>
      </trkpt>
      <trkpt lat="43.40494" lon="2.43653">
        <ele>833.6</ele>
        <time>2013-12-08T09:23:46Z</time>
      </trkpt>
      <trkpt lat="43.40494" lon="2.43649">
        <ele>833.6</ele>
        <time>2013-12-08T09:24:09Z</time>
      </trkpt>
      <trkpt lat="43.40492" lon="2.43648">
        <ele>833.12</ele>
        <time>2013-12-08T09:24:25Z</time>
      </trkpt>
      <trkpt lat="43.40496" lon="2.43652">
        <ele>833.6</ele>
        <time>2013-12-08T09:24:39Z</time>
      </trkpt>
      <trkpt lat="43.40503" lon="2.43651">
        <ele>835.04</ele>
        <time>2013-12-08T09:24:52Z</time>
      </trkpt>
      <trkpt lat="43.40511" lon="2.43649">
        <ele>836.48</ele>
        <time>2013-12-08T09:25:04Z</time>
      </trkpt>
      <trkpt lat="43.40521" lon="2.43647">
        <ele>838.89</ele>
        <time>2013-12-08T09:25:16Z</time>
      </trkpt>
      <trkpt lat="43.4053" lon="2.43646">
        <ele>841.29</ele>
        <time>2013-12-08T09:25:28Z</time>
      </trkpt>
      <trkpt lat="43.40539" lon="2.43647">
        <ele>842.25</ele>
        <time>2013-12-08T09:25:40Z</time>
      </trkpt>
      <trkpt lat="43.40541" lon="2.43644">
        <ele>846.1</ele>
        <time>2013-12-08T09:25:45Z</time>
      </trkpt>
      <trkpt lat="43.40543" lon="2.43642">
        <ele>840.33</ele>
        <time>2013-12-08T09:25:47Z</time>
      </trkpt>
      <trkpt lat="43.40544" lon="2.43642">
        <ele>848.02</ele>
        <time>2013-12-08T09:25:48Z</time>
      </trkpt>
      <trkpt lat="43.40546" lon="2.43641">
        <ele>844.66</ele>
        <time>2013-12-08T09:25:49Z</time>
      </trkpt>
      <trkpt lat="43.4056" lon="2.4364">
        <ele>846.58</ele>
        <time>2013-12-08T09:26:02Z</time>
      </trkpt>
      <trkpt lat="43.40569" lon="2.43641">
        <ele>848.5</ele>
        <time>2013-12-08T09:26:16Z</time>
      </trkpt>
      <trkpt lat="43.40578" lon="2.43639">
        <ele>850.9</ele>
        <time>2013-12-08T09:26:30Z</time>
      </trkpt>
      <trkpt lat="43.40587" lon="2.43643">
        <ele>852.83</ele>
        <time>2013-12-08T09:26:41Z</time>
      </trkpt>
      <trkpt lat="43.40596" lon="2.43643">
        <ele>855.23</ele>
        <time>2013-12-08T09:26:54Z</time>
      </trkpt>
      <trkpt lat="43.40607" lon="2.43642">
        <ele>857.15</ele>
        <time>2013-12-08T09:27:10Z</time>
      </trkpt>
      <trkpt lat="43.40614" lon="2.43642">
        <ele>859.08</ele>
        <time>2013-12-08T09:27:22Z</time>
      </trkpt>
      <trkpt lat="43.40626" lon="2.43636">
        <ele>861</ele>
        <time>2013-12-08T09:27:35Z</time>
      </trkpt>
      <trkpt lat="43.40634" lon="2.43629">
        <ele>862.44</ele>
        <time>2013-12-08T09:27:41Z</time>
      </trkpt>
      <trkpt lat="43.4064" lon="2.43631">
        <ele>862.92</ele>
        <time>2013-12-08T09:27:49Z</time>
      </trkpt>
      <trkpt lat="43.40648" lon="2.43634">
        <ele>864.84</ele>
        <time>2013-12-08T09:28:00Z</time>
      </trkpt>
      <trkpt lat="43.40656" lon="2.43636">
        <ele>865.8</ele>
        <time>2013-12-08T09:28:12Z</time>
      </trkpt>
      <trkpt lat="43.40664" lon="2.43639">
        <ele>868.21</ele>
        <time>2013-12-08T09:28:26Z</time>
      </trkpt>
      <trkpt lat="43.40669" lon="2.43639">
        <ele>870.13</ele>
        <time>2013-12-08T09:28:37Z</time>
      </trkpt>
      <trkpt lat="43.40677" lon="2.43644">
        <ele>871.09</ele>
        <time>2013-12-08T09:28:48Z</time>
      </trkpt>
      <trkpt lat="43.40684" lon="2.43647">
        <ele>873.5</ele>
        <time>2013-12-08T09:29:00Z</time>
      </trkpt>
      <trkpt lat="43.40693" lon="2.4365">
        <ele>874.46</ele>
        <time>2013-12-08T09:29:13Z</time>
      </trkpt>
      <trkpt lat="43.40702" lon="2.43653">
        <ele>875.9</ele>
        <time>2013-12-08T09:29:25Z</time>
      </trkpt>
      <trkpt lat="43.4071" lon="2.43649">
        <ele>881.19</ele>
        <time>2013-12-08T09:29:34Z</time>
      </trkpt>
      <trkpt lat="43.40711" lon="2.4365">
        <ele>877.82</ele>
        <time>2013-12-08T09:29:35Z</time>
      </trkpt>
      <trkpt lat="43.40722" lon="2.43656">
        <ele>879.26</ele>
        <time>2013-12-08T09:29:48Z</time>
      </trkpt>
      <trkpt lat="43.4073" lon="2.43664">
        <ele>881.67</ele>
        <time>2013-12-08T09:30:00Z</time>
      </trkpt>
      <trkpt lat="43.40735" lon="2.43668">
        <ele>882.63</ele>
        <time>2013-12-08T09:30:09Z</time>
      </trkpt>
      <trkpt lat="43.40745" lon="2.43676">
        <ele>885.03</ele>
        <time>2013-12-08T09:30:22Z</time>
      </trkpt>
      <trkpt lat="43.40757" lon="2.43681">
        <ele>886.95</ele>
        <time>2013-12-08T09:30:35Z</time>
      </trkpt>
      <trkpt lat="43.40771" lon="2.43687">
        <ele>887.91</ele>
        <time>2013-12-08T09:30:48Z</time>
      </trkpt>
      <trkpt lat="43.40781" lon="2.4369">
        <ele>888.88</ele>
        <time>2013-12-08T09:31:01Z</time>
      </trkpt>
      <trkpt lat="43.40785" lon="2.43692">
        <ele>889.36</ele>
        <time>2013-12-08T09:31:10Z</time>
      </trkpt>
      <trkpt lat="43.40787" lon="2.43689">
        <ele>888.88</ele>
        <time>2013-12-08T09:31:21Z</time>
      </trkpt>
      <trkpt lat="43.4079" lon="2.43687">
        <ele>888.88</ele>
        <time>2013-12-08T09:31:30Z</time>
      </trkpt>
      <trkpt lat="43.40789" lon="2.43684">
        <ele>888.88</ele>
        <time>2013-12-08T09:31:41Z</time>
      </trkpt>
      <trkpt lat="43.40787" lon="2.43686">
        <ele>889.36</ele>
        <time>2013-12-08T09:31:53Z</time>
      </trkpt>
      <trkpt lat="43.40796" lon="2.43695">
        <ele>889.36</ele>
        <time>2013-12-08T09:32:11Z</time>
      </trkpt>
      <trkpt lat="43.40792" lon="2.43692">
        <ele>889.36</ele>
        <time>2013-12-08T09:32:31Z</time>
      </trkpt>
      <trkpt lat="43.40791" lon="2.43692">
        <ele>889.36</ele>
        <time>2013-12-08T09:32:49Z</time>
      </trkpt>
      <trkpt lat="43.40791" lon="2.43695">
        <ele>889.36</ele>
        <time>2013-12-08T09:33:01Z</time>
      </trkpt>
      <trkpt lat="43.40788" lon="2.43703">
        <ele>888.88</ele>
        <time>2013-12-08T09:33:09Z</time>
      </trkpt>
      <trkpt lat="43.40786" lon="2.43709">
        <ele>883.59</ele>
        <time>2013-12-08T09:33:14Z</time>
      </trkpt>
      <trkpt lat="43.40786" lon="2.43711">
        <ele>890.32</ele>
        <time>2013-12-08T09:33:15Z</time>
      </trkpt>
      <trkpt lat="43.40785" lon="2.43712">
        <ele>887.43</ele>
        <time>2013-12-08T09:33:17Z</time>
      </trkpt>
      <trkpt lat="43.40784" lon="2.43714">
        <ele>887.91</ele>
        <time>2013-12-08T09:33:18Z</time>
      </trkpt>
      <trkpt lat="43.40783" lon="2.43726">
        <ele>886.47</ele>
        <time>2013-12-08T09:33:29Z</time>
      </trkpt>
      <trkpt lat="43.40782" lon="2.43738">
        <ele>885.03</ele>
        <time>2013-12-08T09:33:39Z</time>
      </trkpt>
      <trkpt lat="43.40777" lon="2.43754">
        <ele>884.07</ele>
        <time>2013-12-08T09:33:49Z</time>
      </trkpt>
      <trkpt lat="43.40774" lon="2.43772">
        <ele>882.63</ele>
        <time>2013-12-08T09:33:59Z</time>
      </trkpt>
      <trkpt lat="43.40771" lon="2.43785">
        <ele>881.67</ele>
        <time>2013-12-08T09:34:08Z</time>
      </trkpt>
      <trkpt lat="43.40771" lon="2.43806">
        <ele>880.22</ele>
        <time>2013-12-08T09:34:21Z</time>
      </trkpt>
      <trkpt lat="43.40769" lon="2.43822">
        <ele>878.3</ele>
        <time>2013-12-08T09:34:33Z</time>
      </trkpt>
      <trkpt lat="43.40772" lon="2.43834">
        <ele>877.34</ele>
        <time>2013-12-08T09:34:41Z</time>
      </trkpt>
      <trkpt lat="43.40772" lon="2.43851">
        <ele>876.86</ele>
        <time>2013-12-08T09:34:52Z</time>
      </trkpt>
      <trkpt lat="43.40773" lon="2.43866">
        <ele>876.86</ele>
        <time>2013-12-08T09:35:02Z</time>
      </trkpt>
      <trkpt lat="43.40771" lon="2.43873">
        <ele>876.38</ele>
        <time>2013-12-08T09:35:16Z</time>
      </trkpt>
      <trkpt lat="43.40774" lon="2.43876">
        <ele>876.38</ele>
        <time>2013-12-08T09:35:34Z</time>
      </trkpt>
      <trkpt lat="43.4077" lon="2.43871">
        <ele>875.9</ele>
        <time>2013-12-08T09:35:51Z</time>
      </trkpt>
      <trkpt lat="43.40769" lon="2.43874">
        <ele>875.9</ele>
        <time>2013-12-08T09:36:17Z</time>
      </trkpt>
      <trkpt lat="43.40773" lon="2.43878">
        <ele>875.9</ele>
        <time>2013-12-08T09:36:29Z</time>
      </trkpt>
      <trkpt lat="43.4078" lon="2.43881">
        <ele>875.42</ele>
        <time>2013-12-08T09:36:53Z</time>
      </trkpt>
      <trkpt lat="43.40785" lon="2.43878">
        <ele>875.9</ele>
        <time>2013-12-08T09:37:08Z</time>
      </trkpt>
      <trkpt lat="43.40781" lon="2.43872">
        <ele>875.9</ele>
        <time>2013-12-08T09:37:27Z</time>
      </trkpt>
      <trkpt lat="43.40775" lon="2.43877">
        <ele>875.9</ele>
        <time>2013-12-08T09:37:47Z</time>
      </trkpt>
      <trkpt lat="43.4077" lon="2.43874">
        <ele>876.38</ele>
        <time>2013-12-08T09:38:07Z</time>
      </trkpt>
      <trkpt lat="43.40774" lon="2.43879">
        <ele>876.38</ele>
        <time>2013-12-08T09:38:26Z</time>
      </trkpt>
      <trkpt lat="43.40777" lon="2.43877">
        <ele>875.9</ele>
        <time>2013-12-08T09:38:46Z</time>
      </trkpt>
      <trkpt lat="43.4079" lon="2.43883">
        <ele>876.38</ele>
        <time>2013-12-08T09:39:13Z</time>
      </trkpt>
      <trkpt lat="43.40787" lon="2.43872">
        <ele>875.9</ele>
        <time>2013-12-08T09:39:23Z</time>
      </trkpt>
      <trkpt lat="43.40779" lon="2.43852">
        <ele>876.86</ele>
        <time>2013-12-08T09:39:36Z</time>
      </trkpt>
      <trkpt lat="43.40777" lon="2.43845">
        <ele>877.34</ele>
        <time>2013-12-08T09:39:43Z</time>
      </trkpt>
      <trkpt lat="43.40776" lon="2.43825">
        <ele>878.3</ele>
        <time>2013-12-08T09:39:56Z</time>
      </trkpt>
      <trkpt lat="43.40778" lon="2.43808">
        <ele>879.74</ele>
        <time>2013-12-08T09:40:08Z</time>
      </trkpt>
      <trkpt lat="43.40779" lon="2.43801">
        <ele>880.71</ele>
        <time>2013-12-08T09:40:20Z</time>
      </trkpt>
      <trkpt lat="43.40779" lon="2.43789">
        <ele>882.15</ele>
        <time>2013-12-08T09:40:32Z</time>
      </trkpt>
      <trkpt lat="43.40783" lon="2.43773">
        <ele>882.63</ele>
        <time>2013-12-08T09:40:42Z</time>
      </trkpt>
      <trkpt lat="43.40783" lon="2.43761">
        <ele>883.11</ele>
        <time>2013-12-08T09:40:55Z</time>
      </trkpt>
      <trkpt lat="43.40786" lon="2.43748">
        <ele>884.07</ele>
        <time>2013-12-08T09:41:07Z</time>
      </trkpt>
      <trkpt lat="43.40788" lon="2.43734">
        <ele>885.03</ele>
        <time>2013-12-08T09:41:18Z</time>
      </trkpt>
      <trkpt lat="43.40788" lon="2.43724">
        <ele>886.47</ele>
        <time>2013-12-08T09:41:28Z</time>
      </trkpt>
      <trkpt lat="43.40791" lon="2.43712">
        <ele>887.43</ele>
        <time>2013-12-08T09:41:39Z</time>
      </trkpt>
      <trkpt lat="43.40792" lon="2.4371">
        <ele>887.91</ele>
        <time>2013-12-08T09:41:41Z</time>
      </trkpt>
      <trkpt lat="43.40795" lon="2.43697">
        <ele>888.4</ele>
        <time>2013-12-08T09:41:52Z</time>
      </trkpt>
      <trkpt lat="43.40797" lon="2.43695">
        <ele>888.4</ele>
        <time>2013-12-08T09:41:54Z</time>
      </trkpt>
      <trkpt lat="43.40799" lon="2.43678">
        <ele>889.36</ele>
        <time>2013-12-08T09:42:06Z</time>
      </trkpt>
      <trkpt lat="43.40799" lon="2.43662">
        <ele>890.32</ele>
        <time>2013-12-08T09:42:17Z</time>
      </trkpt>
      <trkpt lat="43.40803" lon="2.43645">
        <ele>890.32</ele>
        <time>2013-12-08T09:42:30Z</time>
      </trkpt>
      <trkpt lat="43.40807" lon="2.4363">
        <ele>890.8</ele>
        <time>2013-12-08T09:42:42Z</time>
      </trkpt>
      <trkpt lat="43.40808" lon="2.43628">
        <ele>891.28</ele>
        <time>2013-12-08T09:42:57Z</time>
      </trkpt>
      <trkpt lat="43.40809" lon="2.43628">
        <ele>890.8</ele>
        <time>2013-12-08T09:43:19Z</time>
      </trkpt>
      <trkpt lat="43.40813" lon="2.43622">
        <ele>891.28</ele>
        <time>2013-12-08T09:43:32Z</time>
      </trkpt>
      <trkpt lat="43.40814" lon="2.43614">
        <ele>891.28</ele>
        <time>2013-12-08T09:43:52Z</time>
      </trkpt>
      <trkpt lat="43.40823" lon="2.43598">
        <ele>891.28</ele>
        <time>2013-12-08T09:44:04Z</time>
      </trkpt>
      <trkpt lat="43.40835" lon="2.43582">
        <ele>891.76</ele>
        <time>2013-12-08T09:44:17Z</time>
      </trkpt>
      <trkpt lat="43.40846" lon="2.43564">
        <ele>892.24</ele>
        <time>2013-12-08T09:44:30Z</time>
      </trkpt>
      <trkpt lat="43.40858" lon="2.43552">
        <ele>892.24</ele>
        <time>2013-12-08T09:44:42Z</time>
      </trkpt>
      <trkpt lat="43.4087" lon="2.43541">
        <ele>891.76</ele>
        <time>2013-12-08T09:44:57Z</time>
      </trkpt>
      <trkpt lat="43.40879" lon="2.4353">
        <ele>892.24</ele>
        <time>2013-12-08T09:45:10Z</time>
      </trkpt>
      <trkpt lat="43.40884" lon="2.43522">
        <ele>890.8</ele>
        <time>2013-12-08T09:45:21Z</time>
      </trkpt>
      <trkpt lat="43.40887" lon="2.43518">
        <ele>892.24</ele>
        <time>2013-12-08T09:45:24Z</time>
      </trkpt>
      <trkpt lat="43.409" lon="2.4351">
        <ele>891.28</ele>
        <time>2013-12-08T09:45:37Z</time>
      </trkpt>
      <trkpt lat="43.40917" lon="2.43503">
        <ele>891.76</ele>
        <time>2013-12-08T09:45:53Z</time>
      </trkpt>
      <trkpt lat="43.40932" lon="2.43498">
        <ele>891.76</ele>
        <time>2013-12-08T09:46:08Z</time>
      </trkpt>
      <trkpt lat="43.40938" lon="2.43497">
        <ele>891.28</ele>
        <time>2013-12-08T09:46:13Z</time>
      </trkpt>
      <trkpt lat="43.40948" lon="2.43485">
        <ele>891.76</ele>
        <time>2013-12-08T09:46:22Z</time>
      </trkpt>
      <trkpt lat="43.40959" lon="2.43478">
        <ele>891.76</ele>
        <time>2013-12-08T09:46:33Z</time>
      </trkpt>
      <trkpt lat="43.4096" lon="2.43476">
        <ele>891.28</ele>
        <time>2013-12-08T09:46:41Z</time>
      </trkpt>
      <trkpt lat="43.40959" lon="2.43474">
        <ele>891.76</ele>
        <time>2013-12-08T09:46:55Z</time>
      </trkpt>
      <trkpt lat="43.40959" lon="2.43474">
        <ele>891.28</ele>
        <time>2013-12-08T09:47:10Z</time>
      </trkpt>
      <trkpt lat="43.40968" lon="2.43467">
        <ele>891.28</ele>
        <time>2013-12-08T09:47:19Z</time>
      </trkpt>
      <trkpt lat="43.40979" lon="2.43462">
        <ele>891.28</ele>
        <time>2013-12-08T09:47:29Z</time>
      </trkpt>
      <trkpt lat="43.40989" lon="2.4345">
        <ele>891.28</ele>
        <time>2013-12-08T09:47:41Z</time>
      </trkpt>
      <trkpt lat="43.40991" lon="2.43449">
        <ele>887.43</ele>
        <time>2013-12-08T09:47:43Z</time>
      </trkpt>
      <trkpt lat="43.40992" lon="2.43448">
        <ele>894.64</ele>
        <time>2013-12-08T09:47:44Z</time>
      </trkpt>
      <trkpt lat="43.40992" lon="2.43447">
        <ele>891.76</ele>
        <time>2013-12-08T09:47:45Z</time>
      </trkpt>
      <trkpt lat="43.40999" lon="2.43436">
        <ele>891.76</ele>
        <time>2013-12-08T09:47:56Z</time>
      </trkpt>
      <trkpt lat="43.41004" lon="2.43431">
        <ele>891.76</ele>
        <time>2013-12-08T09:48:06Z</time>
      </trkpt>
      <trkpt lat="43.41012" lon="2.43423">
        <ele>892.72</ele>
        <time>2013-12-08T09:48:18Z</time>
      </trkpt>
      <trkpt lat="43.41018" lon="2.43408">
        <ele>892.72</ele>
        <time>2013-12-08T09:48:30Z</time>
      </trkpt>
      <trkpt lat="43.41025" lon="2.4339">
        <ele>893.2</ele>
        <time>2013-12-08T09:48:40Z</time>
      </trkpt>
      <trkpt lat="43.4103" lon="2.43383">
        <ele>893.2</ele>
        <time>2013-12-08T09:48:46Z</time>
      </trkpt>
      <trkpt lat="43.41039" lon="2.43368">
        <ele>893.2</ele>
        <time>2013-12-08T09:48:56Z</time>
      </trkpt>
      <trkpt lat="43.41048" lon="2.43357">
        <ele>893.68</ele>
        <time>2013-12-08T09:49:08Z</time>
      </trkpt>
      <trkpt lat="43.4106" lon="2.43346">
        <ele>894.64</ele>
        <time>2013-12-08T09:49:20Z</time>
      </trkpt>
      <trkpt lat="43.41061" lon="2.4334">
        <ele>894.64</ele>
        <time>2013-12-08T09:49:24Z</time>
      </trkpt>
      <trkpt lat="43.41071" lon="2.4333">
        <ele>895.12</ele>
        <time>2013-12-08T09:49:38Z</time>
      </trkpt>
      <trkpt lat="43.41083" lon="2.43318">
        <ele>895.12</ele>
        <time>2013-12-08T09:49:51Z</time>
      </trkpt>
      <trkpt lat="43.41088" lon="2.43312">
        <ele>895.61</ele>
        <time>2013-12-08T09:50:01Z</time>
      </trkpt>
      <trkpt lat="43.41094" lon="2.43302">
        <ele>896.57</ele>
        <time>2013-12-08T09:50:14Z</time>
      </trkpt>
      <trkpt lat="43.41097" lon="2.43299">
        <ele>896.57</ele>
        <time>2013-12-08T09:50:18Z</time>
      </trkpt>
      <trkpt lat="43.41102" lon="2.43292">
        <ele>897.05</ele>
        <time>2013-12-08T09:50:27Z</time>
      </trkpt>
      <trkpt lat="43.41103" lon="2.43288">
        <ele>897.05</ele>
        <time>2013-12-08T09:50:37Z</time>
      </trkpt>
      <trkpt lat="43.41102" lon="2.43268">
        <ele>897.53</ele>
        <time>2013-12-08T09:50:59Z</time>
      </trkpt>
      <trkpt lat="43.41107" lon="2.43262">
        <ele>898.01</ele>
        <time>2013-12-08T09:51:11Z</time>
      </trkpt>
      <trkpt lat="43.4111" lon="2.43254">
        <ele>898.49</ele>
        <time>2013-12-08T09:51:21Z</time>
      </trkpt>
      <trkpt lat="43.41109" lon="2.43245">
        <ele>899.45</ele>
        <time>2013-12-08T09:51:32Z</time>
      </trkpt>
      <trkpt lat="43.41108" lon="2.43234">
        <ele>902.82</ele>
        <time>2013-12-08T09:51:39Z</time>
      </trkpt>
      <trkpt lat="43.41108" lon="2.4323">
        <ele>899.45</ele>
        <time>2013-12-08T09:51:41Z</time>
      </trkpt>
      <trkpt lat="43.4111" lon="2.4321">
        <ele>900.41</ele>
        <time>2013-12-08T09:51:54Z</time>
      </trkpt>
      <trkpt lat="43.41107" lon="2.43201">
        <ele>900.41</ele>
        <time>2013-12-08T09:52:07Z</time>
      </trkpt>
      <trkpt lat="43.41104" lon="2.43191">
        <ele>900.41</ele>
        <time>2013-12-08T09:52:19Z</time>
      </trkpt>
      <trkpt lat="43.41105" lon="2.43165">
        <ele>900.41</ele>
        <time>2013-12-08T09:52:33Z</time>
      </trkpt>
      <trkpt lat="43.41095" lon="2.43152">
        <ele>900.41</ele>
        <time>2013-12-08T09:52:46Z</time>
      </trkpt>
      <trkpt lat="43.41094" lon="2.43148">
        <ele>900.41</ele>
        <time>2013-12-08T09:52:50Z</time>
      </trkpt>
      <trkpt lat="43.4109" lon="2.43127">
        <ele>900.41</ele>
        <time>2013-12-08T09:53:03Z</time>
      </trkpt>
      <trkpt lat="43.41088" lon="2.43107">
        <ele>900.89</ele>
        <time>2013-12-08T09:53:15Z</time>
      </trkpt>
      <trkpt lat="43.41089" lon="2.43094">
        <ele>901.37</ele>
        <time>2013-12-08T09:53:24Z</time>
      </trkpt>
      <trkpt lat="43.4109" lon="2.43078">
        <ele>901.37</ele>
        <time>2013-12-08T09:53:35Z</time>
      </trkpt>
      <trkpt lat="43.4109" lon="2.43063">
        <ele>900.89</ele>
        <time>2013-12-08T09:53:45Z</time>
      </trkpt>
      <trkpt lat="43.4109" lon="2.43057">
        <ele>901.37</ele>
        <time>2013-12-08T09:53:49Z</time>
      </trkpt>
      <trkpt lat="43.41092" lon="2.43041">
        <ele>900.89</ele>
        <time>2013-12-08T09:54:01Z</time>
      </trkpt>
      <trkpt lat="43.41092" lon="2.43036">
        <ele>900.89</ele>
        <time>2013-12-08T09:54:16Z</time>
      </trkpt>
      <trkpt lat="43.41093" lon="2.43023">
        <ele>900.89</ele>
        <time>2013-12-08T09:54:27Z</time>
      </trkpt>
      <trkpt lat="43.41093" lon="2.43012">
        <ele>900.89</ele>
        <time>2013-12-08T09:54:37Z</time>
      </trkpt>
      <trkpt lat="43.41092" lon="2.42994">
        <ele>901.37</ele>
        <time>2013-12-08T09:54:50Z</time>
      </trkpt>
      <trkpt lat="43.41092" lon="2.42977">
        <ele>900.89</ele>
        <time>2013-12-08T09:55:02Z</time>
      </trkpt>
      <trkpt lat="43.41093" lon="2.42956">
        <ele>900.41</ele>
        <time>2013-12-08T09:55:15Z</time>
      </trkpt>
      <trkpt lat="43.41093" lon="2.42946">
        <ele>900.41</ele>
        <time>2013-12-08T09:55:26Z</time>
      </trkpt>
      <trkpt lat="43.41094" lon="2.42947">
        <ele>900.41</ele>
        <time>2013-12-08T09:55:43Z</time>
      </trkpt>
      <trkpt lat="43.41094" lon="2.42948">
        <ele>900.41</ele>
        <time>2013-12-08T09:55:52Z</time>
      </trkpt>
      <trkpt lat="43.41096" lon="2.42925">
        <ele>899.93</ele>
        <time>2013-12-08T09:56:05Z</time>
      </trkpt>
      <trkpt lat="43.411" lon="2.42894">
        <ele>899.45</ele>
        <time>2013-12-08T09:56:21Z</time>
      </trkpt>
      <trkpt lat="43.41105" lon="2.42863">
        <ele>898.49</ele>
        <time>2013-12-08T09:56:38Z</time>
      </trkpt>
      <trkpt lat="43.4111" lon="2.42838">
        <ele>897.53</ele>
        <time>2013-12-08T09:56:51Z</time>
      </trkpt>
      <trkpt lat="43.41114" lon="2.42814">
        <ele>897.05</ele>
        <time>2013-12-08T09:57:05Z</time>
      </trkpt>
      <trkpt lat="43.41122" lon="2.42796">
        <ele>896.57</ele>
        <time>2013-12-08T09:57:16Z</time>
      </trkpt>
      <trkpt lat="43.41132" lon="2.42776">
        <ele>896.09</ele>
        <time>2013-12-08T09:57:30Z</time>
      </trkpt>
      <trkpt lat="43.41136" lon="2.42767">
        <ele>892.72</ele>
        <time>2013-12-08T09:57:37Z</time>
      </trkpt>
      <trkpt lat="43.41137" lon="2.42765">
        <ele>896.09</ele>
        <time>2013-12-08T09:57:38Z</time>
      </trkpt>
      <trkpt lat="43.41147" lon="2.42753">
        <ele>895.12</ele>
        <time>2013-12-08T09:57:51Z</time>
      </trkpt>
      <trkpt lat="43.41149" lon="2.42751">
        <ele>894.64</ele>
        <time>2013-12-08T09:57:53Z</time>
      </trkpt>
      <trkpt lat="43.41159" lon="2.42744">
        <ele>894.64</ele>
        <time>2013-12-08T09:58:05Z</time>
      </trkpt>
      <trkpt lat="43.4117" lon="2.42733">
        <ele>893.68</ele>
        <time>2013-12-08T09:58:17Z</time>
      </trkpt>
      <trkpt lat="43.41179" lon="2.42727">
        <ele>893.2</ele>
        <time>2013-12-08T09:58:27Z</time>
      </trkpt>
      <trkpt lat="43.41196" lon="2.42717">
        <ele>891.76</ele>
        <time>2013-12-08T09:58:42Z</time>
      </trkpt>
      <trkpt lat="43.41202" lon="2.42709">
        <ele>891.28</ele>
        <time>2013-12-08T09:58:47Z</time>
      </trkpt>
      <trkpt lat="43.41213" lon="2.42697">
        <ele>889.36</ele>
        <time>2013-12-08T09:59:01Z</time>
      </trkpt>
      <trkpt lat="43.41225" lon="2.42695">
        <ele>888.88</ele>
        <time>2013-12-08T09:59:15Z</time>
      </trkpt>
      <trkpt lat="43.41232" lon="2.42693">
        <ele>889.36</ele>
        <time>2013-12-08T09:59:26Z</time>
      </trkpt>
      <trkpt lat="43.41243" lon="2.42689">
        <ele>888.4</ele>
        <time>2013-12-08T09:59:37Z</time>
      </trkpt>
      <trkpt lat="43.41245" lon="2.42689">
        <ele>888.88</ele>
        <time>2013-12-08T09:59:40Z</time>
      </trkpt>
      <trkpt lat="43.41259" lon="2.42684">
        <ele>886.47</ele>
        <time>2013-12-08T09:59:52Z</time>
      </trkpt>
      <trkpt lat="43.41274" lon="2.4268">
        <ele>885.51</ele>
        <time>2013-12-08T10:00:04Z</time>
      </trkpt>
      <trkpt lat="43.41288" lon="2.42671">
        <ele>884.55</ele>
        <time>2013-12-08T10:00:13Z</time>
      </trkpt>
      <trkpt lat="43.41295" lon="2.42665">
        <ele>888.88</ele>
        <time>2013-12-08T10:00:18Z</time>
      </trkpt>
      <trkpt lat="43.41296" lon="2.42665">
        <ele>885.03</ele>
        <time>2013-12-08T10:00:19Z</time>
      </trkpt>
      <trkpt lat="43.4131" lon="2.42664">
        <ele>883.59</ele>
        <time>2013-12-08T10:00:31Z</time>
      </trkpt>
      <trkpt lat="43.41324" lon="2.4266">
        <ele>882.63</ele>
        <time>2013-12-08T10:00:45Z</time>
      </trkpt>
      <trkpt lat="43.41335" lon="2.42658">
        <ele>881.67</ele>
        <time>2013-12-08T10:00:57Z</time>
      </trkpt>
      <trkpt lat="43.41349" lon="2.42653">
        <ele>880.22</ele>
        <time>2013-12-08T10:01:09Z</time>
      </trkpt>
      <trkpt lat="43.41359" lon="2.42648">
        <ele>878.3</ele>
        <time>2013-12-08T10:01:21Z</time>
      </trkpt>
      <trkpt lat="43.4137" lon="2.42643">
        <ele>876.38</ele>
        <time>2013-12-08T10:01:33Z</time>
      </trkpt>
      <trkpt lat="43.4138" lon="2.42638">
        <ele>874.46</ele>
        <time>2013-12-08T10:01:46Z</time>
      </trkpt>
      <trkpt lat="43.41388" lon="2.42629">
        <ele>872.53</ele>
        <time>2013-12-08T10:01:57Z</time>
      </trkpt>
      <trkpt lat="43.41398" lon="2.42625">
        <ele>870.61</ele>
        <time>2013-12-08T10:02:09Z</time>
      </trkpt>
      <trkpt lat="43.41405" lon="2.42619">
        <ele>870.13</ele>
        <time>2013-12-08T10:02:15Z</time>
      </trkpt>
      <trkpt lat="43.41417" lon="2.42611">
        <ele>871.09</ele>
        <time>2013-12-08T10:02:26Z</time>
      </trkpt>
      <trkpt lat="43.41418" lon="2.4261">
        <ele>867.25</ele>
        <time>2013-12-08T10:02:27Z</time>
      </trkpt>
      <trkpt lat="43.41419" lon="2.42609">
        <ele>871.09</ele>
        <time>2013-12-08T10:02:28Z</time>
      </trkpt>
      <trkpt lat="43.4142" lon="2.42608">
        <ele>862.44</ele>
        <time>2013-12-08T10:02:29Z</time>
      </trkpt>
      <trkpt lat="43.41421" lon="2.42607">
        <ele>877.34</ele>
        <time>2013-12-08T10:02:30Z</time>
      </trkpt>
      <trkpt lat="43.41422" lon="2.42606">
        <ele>869.17</ele>
        <time>2013-12-08T10:02:31Z</time>
      </trkpt>
      <trkpt lat="43.41429" lon="2.42595">
        <ele>870.61</ele>
        <time>2013-12-08T10:02:41Z</time>
      </trkpt>
      <trkpt lat="43.41434" lon="2.42589">
        <ele>870.13</ele>
        <time>2013-12-08T10:02:47Z</time>
      </trkpt>
      <trkpt lat="43.41442" lon="2.42572">
        <ele>870.61</ele>
        <time>2013-12-08T10:03:00Z</time>
      </trkpt>
      <trkpt lat="43.41443" lon="2.42567">
        <ele>870.61</ele>
        <time>2013-12-08T10:03:03Z</time>
      </trkpt>
      <trkpt lat="43.41446" lon="2.42558">
        <ele>871.57</ele>
        <time>2013-12-08T10:03:09Z</time>
      </trkpt>
      <trkpt lat="43.41451" lon="2.42541">
        <ele>871.57</ele>
        <time>2013-12-08T10:03:20Z</time>
      </trkpt>
      <trkpt lat="43.41458" lon="2.42524">
        <ele>872.53</ele>
        <time>2013-12-08T10:03:32Z</time>
      </trkpt>
      <trkpt lat="43.41464" lon="2.42516">
        <ele>873.01</ele>
        <time>2013-12-08T10:03:44Z</time>
      </trkpt>
      <trkpt lat="43.41472" lon="2.42509">
        <ele>873.98</ele>
        <time>2013-12-08T10:03:57Z</time>
      </trkpt>
      <trkpt lat="43.41483" lon="2.42498">
        <ele>873.5</ele>
        <time>2013-12-08T10:04:10Z</time>
      </trkpt>
      <trkpt lat="43.41493" lon="2.42489">
        <ele>873.98</ele>
        <time>2013-12-08T10:04:22Z</time>
      </trkpt>
      <trkpt lat="43.41496" lon="2.42486">
        <ele>873.98</ele>
        <time>2013-12-08T10:04:27Z</time>
      </trkpt>
      <trkpt lat="43.415" lon="2.42482">
        <ele>873.98</ele>
        <time>2013-12-08T10:04:32Z</time>
      </trkpt>
      <trkpt lat="43.41512" lon="2.42471">
        <ele>874.46</ele>
        <time>2013-12-08T10:04:46Z</time>
      </trkpt>
      <trkpt lat="43.41522" lon="2.42464">
        <ele>875.42</ele>
        <time>2013-12-08T10:04:55Z</time>
      </trkpt>
      <trkpt lat="43.4153" lon="2.42455">
        <ele>875.42</ele>
        <time>2013-12-08T10:05:07Z</time>
      </trkpt>
      <trkpt lat="43.41544" lon="2.42442">
        <ele>875.42</ele>
        <time>2013-12-08T10:05:21Z</time>
      </trkpt>
      <trkpt lat="43.41549" lon="2.42442">
        <ele>875.9</ele>
        <time>2013-12-08T10:05:24Z</time>
      </trkpt>
      <trkpt lat="43.41561" lon="2.42433">
        <ele>875.9</ele>
        <time>2013-12-08T10:05:34Z</time>
      </trkpt>
      <trkpt lat="43.41575" lon="2.42428">
        <ele>876.86</ele>
        <time>2013-12-08T10:05:46Z</time>
      </trkpt>
      <trkpt lat="43.41586" lon="2.42419">
        <ele>878.3</ele>
        <time>2013-12-08T10:05:57Z</time>
      </trkpt>
      <trkpt lat="43.41596" lon="2.42415">
        <ele>879.26</ele>
        <time>2013-12-08T10:06:09Z</time>
      </trkpt>
      <trkpt lat="43.41601" lon="2.42411">
        <ele>878.78</ele>
        <time>2013-12-08T10:06:16Z</time>
      </trkpt>
      <trkpt lat="43.4161" lon="2.42405">
        <ele>879.26</ele>
        <time>2013-12-08T10:06:25Z</time>
      </trkpt>
      <trkpt lat="43.41621" lon="2.42395">
        <ele>879.74</ele>
        <time>2013-12-08T10:06:37Z</time>
      </trkpt>
      <trkpt lat="43.4163" lon="2.4239">
        <ele>880.22</ele>
        <time>2013-12-08T10:06:45Z</time>
      </trkpt>
      <trkpt lat="43.41648" lon="2.42377">
        <ele>881.19</ele>
        <time>2013-12-08T10:07:01Z</time>
      </trkpt>
      <trkpt lat="43.41658" lon="2.42368">
        <ele>881.19</ele>
        <time>2013-12-08T10:07:12Z</time>
      </trkpt>
      <trkpt lat="43.41661" lon="2.42366">
        <ele>881.19</ele>
        <time>2013-12-08T10:07:15Z</time>
      </trkpt>
      <trkpt lat="43.41662" lon="2.42364">
        <ele>881.19</ele>
        <time>2013-12-08T10:07:17Z</time>
      </trkpt>
      <trkpt lat="43.41679" lon="2.42353">
        <ele>881.67</ele>
        <time>2013-12-08T10:07:30Z</time>
      </trkpt>
      <trkpt lat="43.41689" lon="2.42344">
        <ele>882.15</ele>
        <time>2013-12-08T10:07:41Z</time>
      </trkpt>
      <trkpt lat="43.417" lon="2.42338">
        <ele>882.63</ele>
        <time>2013-12-08T10:07:52Z</time>
      </trkpt>
      <trkpt lat="43.4171" lon="2.42335">
        <ele>882.63</ele>
        <time>2013-12-08T10:08:04Z</time>
      </trkpt>
      <trkpt lat="43.41721" lon="2.42332">
        <ele>884.55</ele>
        <time>2013-12-08T10:08:17Z</time>
      </trkpt>
      <trkpt lat="43.41729" lon="2.42317">
        <ele>882.63</ele>
        <time>2013-12-08T10:08:28Z</time>
      </trkpt>
      <trkpt lat="43.41727" lon="2.42309">
        <ele>882.63</ele>
        <time>2013-12-08T10:08:47Z</time>
      </trkpt>
      <trkpt lat="43.41734" lon="2.42308">
        <ele>882.63</ele>
        <time>2013-12-08T10:09:03Z</time>
      </trkpt>
      <trkpt lat="43.41735" lon="2.42308">
        <ele>882.63</ele>
        <time>2013-12-08T10:09:04Z</time>
      </trkpt>
      <trkpt lat="43.41755" lon="2.42304">
        <ele>883.11</ele>
        <time>2013-12-08T10:09:17Z</time>
      </trkpt>
      <trkpt lat="43.4177" lon="2.423">
        <ele>882.15</ele>
        <time>2013-12-08T10:09:31Z</time>
      </trkpt>
      <trkpt lat="43.41789" lon="2.4229">
        <ele>881.67</ele>
        <time>2013-12-08T10:09:45Z</time>
      </trkpt>
      <trkpt lat="43.41791" lon="2.42289">
        <ele>882.15</ele>
        <time>2013-12-08T10:09:46Z</time>
      </trkpt>
      <trkpt lat="43.41806" lon="2.4229">
        <ele>881.67</ele>
        <time>2013-12-08T10:09:58Z</time>
      </trkpt>
      <trkpt lat="43.4182" lon="2.42286">
        <ele>880.71</ele>
        <time>2013-12-08T10:10:11Z</time>
      </trkpt>
      <trkpt lat="43.41832" lon="2.42277">
        <ele>879.74</ele>
        <time>2013-12-08T10:10:21Z</time>
      </trkpt>
      <trkpt lat="43.41838" lon="2.42271">
        <ele>880.22</ele>
        <time>2013-12-08T10:10:26Z</time>
      </trkpt>
      <trkpt lat="43.41841" lon="2.42268">
        <ele>883.11</ele>
        <time>2013-12-08T10:10:29Z</time>
      </trkpt>
      <trkpt lat="43.41844" lon="2.42266">
        <ele>879.74</ele>
        <time>2013-12-08T10:10:32Z</time>
      </trkpt>
      <trkpt lat="43.41855" lon="2.42261">
        <ele>880.22</ele>
        <time>2013-12-08T10:10:44Z</time>
      </trkpt>
      <trkpt lat="43.4186" lon="2.42263">
        <ele>880.22</ele>
        <time>2013-12-08T10:10:57Z</time>
      </trkpt>
      <trkpt lat="43.41874" lon="2.42257">
        <ele>879.26</ele>
        <time>2013-12-08T10:11:12Z</time>
      </trkpt>
      <trkpt lat="43.41891" lon="2.42252">
        <ele>878.3</ele>
        <time>2013-12-08T10:11:26Z</time>
      </trkpt>
      <trkpt lat="43.41899" lon="2.42252">
        <ele>878.3</ele>
        <time>2013-12-08T10:11:33Z</time>
      </trkpt>
      <trkpt lat="43.41916" lon="2.42254">
        <ele>877.82</ele>
        <time>2013-12-08T10:11:47Z</time>
      </trkpt>
      <trkpt lat="43.4193" lon="2.4226">
        <ele>876.86</ele>
        <time>2013-12-08T10:12:01Z</time>
      </trkpt>
      <trkpt lat="43.41945" lon="2.42269">
        <ele>876.38</ele>
        <time>2013-12-08T10:12:14Z</time>
      </trkpt>
      <trkpt lat="43.41958" lon="2.42273">
        <ele>874.94</ele>
        <time>2013-12-08T10:12:25Z</time>
      </trkpt>
      <trkpt lat="43.41977" lon="2.42274">
        <ele>873.98</ele>
        <time>2013-12-08T10:12:40Z</time>
      </trkpt>
      <trkpt lat="43.41989" lon="2.42277">
        <ele>872.05</ele>
        <time>2013-12-08T10:12:50Z</time>
      </trkpt>
      <trkpt lat="43.4199" lon="2.42277">
        <ele>873.98</ele>
        <time>2013-12-08T10:12:51Z</time>
      </trkpt>
      <trkpt lat="43.41994" lon="2.42276">
        <ele>872.05</ele>
        <time>2013-12-08T10:12:54Z</time>
      </trkpt>
      <trkpt lat="43.42002" lon="2.42274">
        <ele>872.05</ele>
        <time>2013-12-08T10:13:02Z</time>
      </trkpt>
      <trkpt lat="43.42016" lon="2.42276">
        <ele>871.09</ele>
        <time>2013-12-08T10:13:15Z</time>
      </trkpt>
      <trkpt lat="43.4202" lon="2.42278">
        <ele>871.09</ele>
        <time>2013-12-08T10:13:18Z</time>
      </trkpt>
      <trkpt lat="43.42033" lon="2.42284">
        <ele>870.13</ele>
        <time>2013-12-08T10:13:31Z</time>
      </trkpt>
      <trkpt lat="43.42047" lon="2.42292">
        <ele>869.65</ele>
        <time>2013-12-08T10:13:44Z</time>
      </trkpt>
      <trkpt lat="43.42048" lon="2.42293">
        <ele>870.13</ele>
        <time>2013-12-08T10:13:45Z</time>
      </trkpt>
      <trkpt lat="43.42058" lon="2.42297">
        <ele>868.69</ele>
        <time>2013-12-08T10:13:54Z</time>
      </trkpt>
      <trkpt lat="43.42064" lon="2.42296">
        <ele>868.69</ele>
        <time>2013-12-08T10:14:08Z</time>
      </trkpt>
      <trkpt lat="43.42074" lon="2.42299">
        <ele>869.17</ele>
        <time>2013-12-08T10:14:21Z</time>
      </trkpt>
      <trkpt lat="43.42084" lon="2.4229">
        <ele>868.21</ele>
        <time>2013-12-08T10:14:33Z</time>
      </trkpt>
      <trkpt lat="43.42087" lon="2.42284">
        <ele>868.69</ele>
        <time>2013-12-08T10:14:39Z</time>
      </trkpt>
      <trkpt lat="43.42093" lon="2.4227">
        <ele>868.21</ele>
        <time>2013-12-08T10:14:51Z</time>
      </trkpt>
      <trkpt lat="43.42101" lon="2.42245">
        <ele>869.65</ele>
        <time>2013-12-08T10:15:06Z</time>
      </trkpt>
      <trkpt lat="43.42105" lon="2.42222">
        <ele>871.09</ele>
        <time>2013-12-08T10:15:18Z</time>
      </trkpt>
      <trkpt lat="43.42109" lon="2.4221">
        <ele>871.09</ele>
        <time>2013-12-08T10:15:27Z</time>
      </trkpt>
      <trkpt lat="43.42117" lon="2.42197">
        <ele>872.05</ele>
        <time>2013-12-08T10:15:40Z</time>
      </trkpt>
      <trkpt lat="43.4212" lon="2.42194">
        <ele>872.05</ele>
        <time>2013-12-08T10:15:44Z</time>
      </trkpt>
      <trkpt lat="43.42129" lon="2.42184">
        <ele>872.05</ele>
        <time>2013-12-08T10:15:56Z</time>
      </trkpt>
      <trkpt lat="43.42135" lon="2.42179">
        <ele>872.05</ele>
        <time>2013-12-08T10:16:07Z</time>
      </trkpt>
      <trkpt lat="43.42138" lon="2.4217">
        <ele>872.53</ele>
        <time>2013-12-08T10:16:21Z</time>
      </trkpt>
      <trkpt lat="43.42143" lon="2.42169">
        <ele>872.05</ele>
        <time>2013-12-08T10:16:28Z</time>
      </trkpt>
      <trkpt lat="43.42153" lon="2.42163">
        <ele>872.05</ele>
        <time>2013-12-08T10:16:39Z</time>
      </trkpt>
      <trkpt lat="43.42165" lon="2.42157">
        <ele>872.53</ele>
        <time>2013-12-08T10:16:51Z</time>
      </trkpt>
      <trkpt lat="43.42179" lon="2.42157">
        <ele>872.05</ele>
        <time>2013-12-08T10:17:04Z</time>
      </trkpt>
      <trkpt lat="43.42196" lon="2.42153">
        <ele>872.05</ele>
        <time>2013-12-08T10:17:19Z</time>
      </trkpt>
      <trkpt lat="43.42197" lon="2.42153">
        <ele>872.05</ele>
        <time>2013-12-08T10:17:20Z</time>
      </trkpt>
      <trkpt lat="43.42214" lon="2.42159">
        <ele>872.05</ele>
        <time>2013-12-08T10:17:35Z</time>
      </trkpt>
      <trkpt lat="43.42216" lon="2.4216">
        <ele>872.05</ele>
        <time>2013-12-08T10:17:37Z</time>
      </trkpt>
      <trkpt lat="43.42233" lon="2.42166">
        <ele>871.57</ele>
        <time>2013-12-08T10:17:52Z</time>
      </trkpt>
      <trkpt lat="43.42248" lon="2.42174">
        <ele>871.09</ele>
        <time>2013-12-08T10:18:05Z</time>
      </trkpt>
      <trkpt lat="43.42258" lon="2.42177">
        <ele>874.46</ele>
        <time>2013-12-08T10:18:13Z</time>
      </trkpt>
      <trkpt lat="43.42268" lon="2.42192">
        <ele>872.53</ele>
        <time>2013-12-08T10:18:25Z</time>
      </trkpt>
      <trkpt lat="43.42273" lon="2.42202">
        <ele>873.01</ele>
        <time>2013-12-08T10:18:34Z</time>
      </trkpt>
      <trkpt lat="43.42273" lon="2.42201">
        <ele>873.01</ele>
        <time>2013-12-08T10:18:44Z</time>
      </trkpt>
      <trkpt lat="43.42272" lon="2.42195">
        <ele>873.01</ele>
        <time>2013-12-08T10:19:03Z</time>
      </trkpt>
      <trkpt lat="43.42275" lon="2.42204">
        <ele>873.01</ele>
        <time>2013-12-08T10:19:13Z</time>
      </trkpt>
      <trkpt lat="43.42286" lon="2.42216">
        <ele>873.98</ele>
        <time>2013-12-08T10:19:25Z</time>
      </trkpt>
      <trkpt lat="43.42295" lon="2.42226">
        <ele>874.46</ele>
        <time>2013-12-08T10:19:37Z</time>
      </trkpt>
      <trkpt lat="43.42297" lon="2.42223">
        <ele>874.46</ele>
        <time>2013-12-08T10:19:52Z</time>
      </trkpt>
      <trkpt lat="43.42301" lon="2.42227">
        <ele>873.98</ele>
        <time>2013-12-08T10:20:06Z</time>
      </trkpt>
      <trkpt lat="43.42312" lon="2.42239">
        <ele>875.42</ele>
        <time>2013-12-08T10:20:20Z</time>
      </trkpt>
      <trkpt lat="43.42318" lon="2.42249">
        <ele>875.42</ele>
        <time>2013-12-08T10:20:30Z</time>
      </trkpt>
      <trkpt lat="43.42328" lon="2.4226">
        <ele>875.9</ele>
        <time>2013-12-08T10:20:42Z</time>
      </trkpt>
      <trkpt lat="43.42338" lon="2.42275">
        <ele>875.9</ele>
        <time>2013-12-08T10:20:54Z</time>
      </trkpt>
      <trkpt lat="43.4235" lon="2.42285">
        <ele>875.9</ele>
        <time>2013-12-08T10:21:08Z</time>
      </trkpt>
      <trkpt lat="43.42362" lon="2.42296">
        <ele>876.86</ele>
        <time>2013-12-08T10:21:20Z</time>
      </trkpt>
      <trkpt lat="43.42373" lon="2.42307">
        <ele>877.34</ele>
        <time>2013-12-08T10:21:32Z</time>
      </trkpt>
      <trkpt lat="43.42381" lon="2.42315">
        <ele>877.34</ele>
        <time>2013-12-08T10:21:41Z</time>
      </trkpt>
      <trkpt lat="43.42389" lon="2.4232">
        <ele>877.82</ele>
        <time>2013-12-08T10:21:48Z</time>
      </trkpt>
      <trkpt lat="43.42398" lon="2.42328">
        <ele>877.34</ele>
        <time>2013-12-08T10:21:59Z</time>
      </trkpt>
      <trkpt lat="43.42412" lon="2.42331">
        <ele>877.82</ele>
        <time>2013-12-08T10:22:10Z</time>
      </trkpt>
      <trkpt lat="43.42426" lon="2.42335">
        <ele>878.3</ele>
        <time>2013-12-08T10:22:22Z</time>
      </trkpt>
      <trkpt lat="43.42433" lon="2.42341">
        <ele>878.3</ele>
        <time>2013-12-08T10:22:32Z</time>
      </trkpt>
      <trkpt lat="43.42439" lon="2.42345">
        <ele>878.78</ele>
        <time>2013-12-08T10:22:48Z</time>
      </trkpt>
      <trkpt lat="43.42447" lon="2.42351">
        <ele>878.78</ele>
        <time>2013-12-08T10:23:01Z</time>
      </trkpt>
      <trkpt lat="43.42455" lon="2.42355">
        <ele>878.78</ele>
        <time>2013-12-08T10:23:13Z</time>
      </trkpt>
      <trkpt lat="43.42465" lon="2.42361">
        <ele>879.26</ele>
        <time>2013-12-08T10:23:26Z</time>
      </trkpt>
      <trkpt lat="43.42475" lon="2.4236">
        <ele>878.78</ele>
        <time>2013-12-08T10:23:38Z</time>
      </trkpt>
      <trkpt lat="43.42482" lon="2.42365">
        <ele>879.26</ele>
        <time>2013-12-08T10:23:50Z</time>
      </trkpt>
      <trkpt lat="43.4248" lon="2.42364">
        <ele>879.26</ele>
        <time>2013-12-08T10:24:02Z</time>
      </trkpt>
      <trkpt lat="43.42486" lon="2.4237">
        <ele>880.71</ele>
        <time>2013-12-08T10:24:13Z</time>
      </trkpt>
      <trkpt lat="43.42488" lon="2.42372">
        <ele>879.26</ele>
        <time>2013-12-08T10:24:17Z</time>
      </trkpt>
      <trkpt lat="43.42489" lon="2.42373">
        <ele>883.59</ele>
        <time>2013-12-08T10:24:19Z</time>
      </trkpt>
      <trkpt lat="43.42492" lon="2.42375">
        <ele>879.74</ele>
        <time>2013-12-08T10:24:23Z</time>
      </trkpt>
      <trkpt lat="43.42493" lon="2.42377">
        <ele>883.11</ele>
        <time>2013-12-08T10:24:26Z</time>
      </trkpt>
      <trkpt lat="43.425" lon="2.42387">
        <ele>884.07</ele>
        <time>2013-12-08T10:24:39Z</time>
      </trkpt>
      <trkpt lat="43.42502" lon="2.42396">
        <ele>886.47</ele>
        <time>2013-12-08T10:24:55Z</time>
      </trkpt>
      <trkpt lat="43.42505" lon="2.42403">
        <ele>887.91</ele>
        <time>2013-12-08T10:25:08Z</time>
      </trkpt>
      <trkpt lat="43.4251" lon="2.42411">
        <ele>888.88</ele>
        <time>2013-12-08T10:25:21Z</time>
      </trkpt>
      <trkpt lat="43.42517" lon="2.42421">
        <ele>890.8</ele>
        <time>2013-12-08T10:25:35Z</time>
      </trkpt>
      <trkpt lat="43.42523" lon="2.42433">
        <ele>892.24</ele>
        <time>2013-12-08T10:25:49Z</time>
      </trkpt>
      <trkpt lat="43.42532" lon="2.42446">
        <ele>894.16</ele>
        <time>2013-12-08T10:26:03Z</time>
      </trkpt>
      <trkpt lat="43.42539" lon="2.42457">
        <ele>895.12</ele>
        <time>2013-12-08T10:26:17Z</time>
      </trkpt>
      <trkpt lat="43.42549" lon="2.42466">
        <ele>897.05</ele>
        <time>2013-12-08T10:26:34Z</time>
      </trkpt>
      <trkpt lat="43.42561" lon="2.42479">
        <ele>898.49</ele>
        <time>2013-12-08T10:26:48Z</time>
      </trkpt>
      <trkpt lat="43.42578" lon="2.42492">
        <ele>899.93</ele>
        <time>2013-12-08T10:27:00Z</time>
      </trkpt>
      <trkpt lat="43.42582" lon="2.42502">
        <ele>899.93</ele>
        <time>2013-12-08T10:27:11Z</time>
      </trkpt>
      <trkpt lat="43.42594" lon="2.42515">
        <ele>901.37</ele>
        <time>2013-12-08T10:27:27Z</time>
      </trkpt>
      <trkpt lat="43.42608" lon="2.42526">
        <ele>901.85</ele>
        <time>2013-12-08T10:27:40Z</time>
      </trkpt>
      <trkpt lat="43.42613" lon="2.42534">
        <ele>902.82</ele>
        <time>2013-12-08T10:27:51Z</time>
      </trkpt>
      <trkpt lat="43.42625" lon="2.42546">
        <ele>903.78</ele>
        <time>2013-12-08T10:28:03Z</time>
      </trkpt>
      <trkpt lat="43.42632" lon="2.42554">
        <ele>904.74</ele>
        <time>2013-12-08T10:28:15Z</time>
      </trkpt>
      <trkpt lat="43.42636" lon="2.42563">
        <ele>904.26</ele>
        <time>2013-12-08T10:28:25Z</time>
      </trkpt>
      <trkpt lat="43.4264" lon="2.42574">
        <ele>905.22</ele>
        <time>2013-12-08T10:28:34Z</time>
      </trkpt>
      <trkpt lat="43.42644" lon="2.42582">
        <ele>906.18</ele>
        <time>2013-12-08T10:28:46Z</time>
      </trkpt>
      <trkpt lat="43.42655" lon="2.4259">
        <ele>906.66</ele>
        <time>2013-12-08T10:28:57Z</time>
      </trkpt>
      <trkpt lat="43.42665" lon="2.426">
        <ele>907.62</ele>
        <time>2013-12-08T10:29:09Z</time>
      </trkpt>
      <trkpt lat="43.42676" lon="2.42615">
        <ele>908.1</ele>
        <time>2013-12-08T10:29:24Z</time>
      </trkpt>
      <trkpt lat="43.42678" lon="2.42622">
        <ele>908.58</ele>
        <time>2013-12-08T10:29:30Z</time>
      </trkpt>
      <trkpt lat="43.42683" lon="2.42633">
        <ele>909.06</ele>
        <time>2013-12-08T10:29:43Z</time>
      </trkpt>
      <trkpt lat="43.42686" lon="2.42644">
        <ele>909.54</ele>
        <time>2013-12-08T10:29:53Z</time>
      </trkpt>
      <trkpt lat="43.42691" lon="2.42659">
        <ele>909.54</ele>
        <time>2013-12-08T10:30:05Z</time>
      </trkpt>
      <trkpt lat="43.42692" lon="2.42673">
        <ele>910.03</ele>
        <time>2013-12-08T10:30:15Z</time>
      </trkpt>
      <trkpt lat="43.42695" lon="2.42694">
        <ele>910.51</ele>
        <time>2013-12-08T10:30:27Z</time>
      </trkpt>
      <trkpt lat="43.42698" lon="2.4271">
        <ele>911.47</ele>
        <time>2013-12-08T10:30:39Z</time>
      </trkpt>
      <trkpt lat="43.42699" lon="2.42711">
        <ele>910.99</ele>
        <time>2013-12-08T10:30:40Z</time>
      </trkpt>
      <trkpt lat="43.42703" lon="2.42726">
        <ele>909.54</ele>
        <time>2013-12-08T10:30:54Z</time>
      </trkpt>
      <trkpt lat="43.42705" lon="2.42741">
        <ele>909.54</ele>
        <time>2013-12-08T10:31:06Z</time>
      </trkpt>
      <trkpt lat="43.42709" lon="2.42757">
        <ele>908.1</ele>
        <time>2013-12-08T10:31:18Z</time>
      </trkpt>
      <trkpt lat="43.42714" lon="2.42777">
        <ele>907.62</ele>
        <time>2013-12-08T10:31:32Z</time>
      </trkpt>
      <trkpt lat="43.42719" lon="2.42796">
        <ele>907.14</ele>
        <time>2013-12-08T10:31:46Z</time>
      </trkpt>
      <trkpt lat="43.42719" lon="2.42806">
        <ele>907.14</ele>
        <time>2013-12-08T10:31:57Z</time>
      </trkpt>
      <trkpt lat="43.42717" lon="2.42814">
        <ele>907.14</ele>
        <time>2013-12-08T10:32:07Z</time>
      </trkpt>
      <trkpt lat="43.42715" lon="2.42826">
        <ele>908.1</ele>
        <time>2013-12-08T10:32:20Z</time>
      </trkpt>
      <trkpt lat="43.42716" lon="2.42837">
        <ele>909.06</ele>
        <time>2013-12-08T10:32:31Z</time>
      </trkpt>
      <trkpt lat="43.42719" lon="2.4285">
        <ele>909.54</ele>
        <time>2013-12-08T10:32:46Z</time>
      </trkpt>
      <trkpt lat="43.4272" lon="2.42863">
        <ele>910.51</ele>
        <time>2013-12-08T10:32:59Z</time>
      </trkpt>
      <trkpt lat="43.4272" lon="2.42873">
        <ele>910.51</ele>
        <time>2013-12-08T10:33:11Z</time>
      </trkpt>
      <trkpt lat="43.42716" lon="2.42882">
        <ele>910.99</ele>
        <time>2013-12-08T10:33:23Z</time>
      </trkpt>
      <trkpt lat="43.42718" lon="2.42895">
        <ele>911.95</ele>
        <time>2013-12-08T10:33:36Z</time>
      </trkpt>
      <trkpt lat="43.42717" lon="2.42912">
        <ele>912.43</ele>
        <time>2013-12-08T10:33:50Z</time>
      </trkpt>
      <trkpt lat="43.42715" lon="2.42922">
        <ele>912.91</ele>
        <time>2013-12-08T10:34:00Z</time>
      </trkpt>
      <trkpt lat="43.42719" lon="2.42937">
        <ele>913.39</ele>
        <time>2013-12-08T10:34:13Z</time>
      </trkpt>
      <trkpt lat="43.42722" lon="2.4295">
        <ele>912.91</ele>
        <time>2013-12-08T10:34:24Z</time>
      </trkpt>
      <trkpt lat="43.42726" lon="2.42962">
        <ele>912.43</ele>
        <time>2013-12-08T10:34:36Z</time>
      </trkpt>
      <trkpt lat="43.42729" lon="2.42975">
        <ele>911.47</ele>
        <time>2013-12-08T10:34:47Z</time>
      </trkpt>
      <trkpt lat="43.42732" lon="2.42984">
        <ele>911.47</ele>
        <time>2013-12-08T10:34:56Z</time>
      </trkpt>
      <trkpt lat="43.42738" lon="2.42998">
        <ele>910.99</ele>
        <time>2013-12-08T10:35:08Z</time>
      </trkpt>
      <trkpt lat="43.42739" lon="2.43005">
        <ele>910.51</ele>
        <time>2013-12-08T10:35:19Z</time>
      </trkpt>
      <trkpt lat="43.42741" lon="2.43013">
        <ele>910.99</ele>
        <time>2013-12-08T10:35:27Z</time>
      </trkpt>
      <trkpt lat="43.42748" lon="2.4303">
        <ele>910.51</ele>
        <time>2013-12-08T10:35:39Z</time>
      </trkpt>
      <trkpt lat="43.42752" lon="2.43045">
        <ele>910.03</ele>
        <time>2013-12-08T10:35:50Z</time>
      </trkpt>
      <trkpt lat="43.42758" lon="2.4306">
        <ele>910.03</ele>
        <time>2013-12-08T10:36:02Z</time>
      </trkpt>
      <trkpt lat="43.42767" lon="2.43078">
        <ele>909.06</ele>
        <time>2013-12-08T10:36:14Z</time>
      </trkpt>
      <trkpt lat="43.42775" lon="2.43093">
        <ele>908.58</ele>
        <time>2013-12-08T10:36:25Z</time>
      </trkpt>
      <trkpt lat="43.42779" lon="2.43106">
        <ele>908.1</ele>
        <time>2013-12-08T10:36:37Z</time>
      </trkpt>
      <trkpt lat="43.42781" lon="2.43114">
        <ele>907.62</ele>
        <time>2013-12-08T10:36:51Z</time>
      </trkpt>
      <trkpt lat="43.42783" lon="2.43125">
        <ele>907.62</ele>
        <time>2013-12-08T10:37:01Z</time>
      </trkpt>
      <trkpt lat="43.42787" lon="2.43133">
        <ele>907.14</ele>
        <time>2013-12-08T10:37:11Z</time>
      </trkpt>
      <trkpt lat="43.4279" lon="2.43143">
        <ele>907.62</ele>
        <time>2013-12-08T10:37:21Z</time>
      </trkpt>
      <trkpt lat="43.4279" lon="2.43151">
        <ele>906.66</ele>
        <time>2013-12-08T10:37:32Z</time>
      </trkpt>
      <trkpt lat="43.42792" lon="2.43163">
        <ele>907.14</ele>
        <time>2013-12-08T10:37:43Z</time>
      </trkpt>
      <trkpt lat="43.42794" lon="2.43175">
        <ele>907.14</ele>
        <time>2013-12-08T10:37:52Z</time>
      </trkpt>
      <trkpt lat="43.42793" lon="2.43185">
        <ele>907.14</ele>
        <time>2013-12-08T10:38:00Z</time>
      </trkpt>
      <trkpt lat="43.42793" lon="2.432">
        <ele>908.1</ele>
        <time>2013-12-08T10:38:12Z</time>
      </trkpt>
      <trkpt lat="43.42796" lon="2.43212">
        <ele>907.14</ele>
        <time>2013-12-08T10:38:19Z</time>
      </trkpt>
      <trkpt lat="43.42799" lon="2.4323">
        <ele>906.66</ele>
        <time>2013-12-08T10:38:31Z</time>
      </trkpt>
      <trkpt lat="43.428" lon="2.43247">
        <ele>905.22</ele>
        <time>2013-12-08T10:38:43Z</time>
      </trkpt>
      <trkpt lat="43.42803" lon="2.43261">
        <ele>903.78</ele>
        <time>2013-12-08T10:38:53Z</time>
      </trkpt>
      <trkpt lat="43.42803" lon="2.43266">
        <ele>903.78</ele>
        <time>2013-12-08T10:38:57Z</time>
      </trkpt>
      <trkpt lat="43.42803" lon="2.43283">
        <ele>903.78</ele>
        <time>2013-12-08T10:39:09Z</time>
      </trkpt>
      <trkpt lat="43.42806" lon="2.43298">
        <ele>903.3</ele>
        <time>2013-12-08T10:39:20Z</time>
      </trkpt>
      <trkpt lat="43.42814" lon="2.43315">
        <ele>903.78</ele>
        <time>2013-12-08T10:39:32Z</time>
      </trkpt>
      <trkpt lat="43.42816" lon="2.4333">
        <ele>904.26</ele>
        <time>2013-12-08T10:39:42Z</time>
      </trkpt>
      <trkpt lat="43.42816" lon="2.43345">
        <ele>904.26</ele>
        <time>2013-12-08T10:39:52Z</time>
      </trkpt>
      <trkpt lat="43.42818" lon="2.43361">
        <ele>903.78</ele>
        <time>2013-12-08T10:40:04Z</time>
      </trkpt>
      <trkpt lat="43.42819" lon="2.43369">
        <ele>904.74</ele>
        <time>2013-12-08T10:40:15Z</time>
      </trkpt>
      <trkpt lat="43.42819" lon="2.43378">
        <ele>903.3</ele>
        <time>2013-12-08T10:40:28Z</time>
      </trkpt>
      <trkpt lat="43.42821" lon="2.43374">
        <ele>903.78</ele>
        <time>2013-12-08T10:40:40Z</time>
      </trkpt>
      <trkpt lat="43.42821" lon="2.4337">
        <ele>903.3</ele>
        <time>2013-12-08T10:41:04Z</time>
      </trkpt>
      <trkpt lat="43.42819" lon="2.43373">
        <ele>903.78</ele>
        <time>2013-12-08T10:41:22Z</time>
      </trkpt>
      <trkpt lat="43.42824" lon="2.4338">
        <ele>905.22</ele>
        <time>2013-12-08T10:41:34Z</time>
      </trkpt>
      <trkpt lat="43.42832" lon="2.43376">
        <ele>906.66</ele>
        <time>2013-12-08T10:41:44Z</time>
      </trkpt>
      <trkpt lat="43.42839" lon="2.43371">
        <ele>907.14</ele>
        <time>2013-12-08T10:41:56Z</time>
      </trkpt>
      <trkpt lat="43.42844" lon="2.43365">
        <ele>908.1</ele>
        <time>2013-12-08T10:42:06Z</time>
      </trkpt>
      <trkpt lat="43.42846" lon="2.43366">
        <ele>909.06</ele>
        <time>2013-12-08T10:42:19Z</time>
      </trkpt>
      <trkpt lat="43.42846" lon="2.43365">
        <ele>909.06</ele>
        <time>2013-12-08T10:42:36Z</time>
      </trkpt>
      <trkpt lat="43.42846" lon="2.43363">
        <ele>909.54</ele>
        <time>2013-12-08T10:42:50Z</time>
      </trkpt>
      <trkpt lat="43.42846" lon="2.43363">
        <ele>907.62</ele>
        <time>2013-12-08T10:42:58Z</time>
      </trkpt>
      <trkpt lat="43.42846" lon="2.43363">
        <ele>910.99</ele>
        <time>2013-12-08T10:42:59Z</time>
      </trkpt>
      <trkpt lat="43.42847" lon="2.43363">
        <ele>909.54</ele>
        <time>2013-12-08T10:43:00Z</time>
      </trkpt>
      <trkpt lat="43.42847" lon="2.43364">
        <ele>909.06</ele>
        <time>2013-12-08T10:43:19Z</time>
      </trkpt>
      <trkpt lat="43.42843" lon="2.43364">
        <ele>909.06</ele>
        <time>2013-12-08T10:43:38Z</time>
      </trkpt>
      <trkpt lat="43.42849" lon="2.43359">
        <ele>910.03</ele>
        <time>2013-12-08T10:43:52Z</time>
      </trkpt>
      <trkpt lat="43.42857" lon="2.43355">
        <ele>911.47</ele>
        <time>2013-12-08T10:44:03Z</time>
      </trkpt>
      <trkpt lat="43.42864" lon="2.43346">
        <ele>912.91</ele>
        <time>2013-12-08T10:44:15Z</time>
      </trkpt>
      <trkpt lat="43.42877" lon="2.43343">
        <ele>914.35</ele>
        <time>2013-12-08T10:44:27Z</time>
      </trkpt>
      <trkpt lat="43.42893" lon="2.43349">
        <ele>916.27</ele>
        <time>2013-12-08T10:44:43Z</time>
      </trkpt>
      <trkpt lat="43.42895" lon="2.43354">
        <ele>918.68</ele>
        <time>2013-12-08T10:44:55Z</time>
      </trkpt>
      <trkpt lat="43.42899" lon="2.43356">
        <ele>920.12</ele>
        <time>2013-12-08T10:45:07Z</time>
      </trkpt>
      <trkpt lat="43.42907" lon="2.43361">
        <ele>922.52</ele>
        <time>2013-12-08T10:45:18Z</time>
      </trkpt>
      <trkpt lat="43.42913" lon="2.43364">
        <ele>923.96</ele>
        <time>2013-12-08T10:45:30Z</time>
      </trkpt>
      <trkpt lat="43.42926" lon="2.43365">
        <ele>925.89</ele>
        <time>2013-12-08T10:45:40Z</time>
      </trkpt>
      <trkpt lat="43.42935" lon="2.4336">
        <ele>925.89</ele>
        <time>2013-12-08T10:45:52Z</time>
      </trkpt>
      <trkpt lat="43.42948" lon="2.43356">
        <ele>927.33</ele>
        <time>2013-12-08T10:46:06Z</time>
      </trkpt>
      <trkpt lat="43.42956" lon="2.4335">
        <ele>927.81</ele>
        <time>2013-12-08T10:46:17Z</time>
      </trkpt>
      <trkpt lat="43.42969" lon="2.43342">
        <ele>928.29</ele>
        <time>2013-12-08T10:46:30Z</time>
      </trkpt>
      <trkpt lat="43.42977" lon="2.43338">
        <ele>929.25</ele>
        <time>2013-12-08T10:46:42Z</time>
      </trkpt>
      <trkpt lat="43.42986" lon="2.43335">
        <ele>930.69</ele>
        <time>2013-12-08T10:46:52Z</time>
      </trkpt>
      <trkpt lat="43.42997" lon="2.43328">
        <ele>932.14</ele>
        <time>2013-12-08T10:47:05Z</time>
      </trkpt>
      <trkpt lat="43.43008" lon="2.43318">
        <ele>933.1</ele>
        <time>2013-12-08T10:47:19Z</time>
      </trkpt>
      <trkpt lat="43.43017" lon="2.43313">
        <ele>935.5</ele>
        <time>2013-12-08T10:47:34Z</time>
      </trkpt>
      <trkpt lat="43.43026" lon="2.43301">
        <ele>937.42</ele>
        <time>2013-12-08T10:47:48Z</time>
      </trkpt>
      <trkpt lat="43.43032" lon="2.43291">
        <ele>939.35</ele>
        <time>2013-12-08T10:47:59Z</time>
      </trkpt>
      <trkpt lat="43.43037" lon="2.43285">
        <ele>940.31</ele>
        <time>2013-12-08T10:48:11Z</time>
      </trkpt>
      <trkpt lat="43.43041" lon="2.43284">
        <ele>942.23</ele>
        <time>2013-12-08T10:48:20Z</time>
      </trkpt>
      <trkpt lat="43.43051" lon="2.43284">
        <ele>943.19</ele>
        <time>2013-12-08T10:48:32Z</time>
      </trkpt>
      <trkpt lat="43.4306" lon="2.43287">
        <ele>944.63</ele>
        <time>2013-12-08T10:48:44Z</time>
      </trkpt>
      <trkpt lat="43.43072" lon="2.43293">
        <ele>945.59</ele>
        <time>2013-12-08T10:48:59Z</time>
      </trkpt>
      <trkpt lat="43.43073" lon="2.43301">
        <ele>946.56</ele>
        <time>2013-12-08T10:49:10Z</time>
      </trkpt>
      <trkpt lat="43.43073" lon="2.43311">
        <ele>947.52</ele>
        <time>2013-12-08T10:49:22Z</time>
      </trkpt>
      <trkpt lat="43.43072" lon="2.4332">
        <ele>948.96</ele>
        <time>2013-12-08T10:49:33Z</time>
      </trkpt>
      <trkpt lat="43.43071" lon="2.43332">
        <ele>950.4</ele>
        <time>2013-12-08T10:49:45Z</time>
      </trkpt>
      <trkpt lat="43.43069" lon="2.43338">
        <ele>950.4</ele>
        <time>2013-12-08T10:49:50Z</time>
      </trkpt>
      <trkpt lat="43.43067" lon="2.43353">
        <ele>950.88</ele>
        <time>2013-12-08T10:50:03Z</time>
      </trkpt>
      <trkpt lat="43.43066" lon="2.43365">
        <ele>951.84</ele>
        <time>2013-12-08T10:50:13Z</time>
      </trkpt>
      <trkpt lat="43.43067" lon="2.43377">
        <ele>949.92</ele>
        <time>2013-12-08T10:50:24Z</time>
      </trkpt>
      <trkpt lat="43.43066" lon="2.43378">
        <ele>955.21</ele>
        <time>2013-12-08T10:50:25Z</time>
      </trkpt>
      <trkpt lat="43.43064" lon="2.4338">
        <ele>950.88</ele>
        <time>2013-12-08T10:50:32Z</time>
      </trkpt>
      <trkpt lat="43.43064" lon="2.4338">
        <ele>955.21</ele>
        <time>2013-12-08T10:50:33Z</time>
      </trkpt>
      <trkpt lat="43.43065" lon="2.43379">
        <ele>951.84</ele>
        <time>2013-12-08T10:50:40Z</time>
      </trkpt>
      <trkpt lat="43.43065" lon="2.4338">
        <ele>955.69</ele>
        <time>2013-12-08T10:50:44Z</time>
      </trkpt>
      <trkpt lat="43.43065" lon="2.4338">
        <ele>951.84</ele>
        <time>2013-12-08T10:50:45Z</time>
      </trkpt>
      <trkpt lat="43.43064" lon="2.4338">
        <ele>954.73</ele>
        <time>2013-12-08T10:50:48Z</time>
      </trkpt>
      <trkpt lat="43.43065" lon="2.43382">
        <ele>949.92</ele>
        <time>2013-12-08T10:50:54Z</time>
      </trkpt>
      <trkpt lat="43.43066" lon="2.43383">
        <ele>955.21</ele>
        <time>2013-12-08T10:50:55Z</time>
      </trkpt>
      <trkpt lat="43.43069" lon="2.43393">
        <ele>952.8</ele>
        <time>2013-12-08T10:51:03Z</time>
      </trkpt>
      <trkpt lat="43.43074" lon="2.43409">
        <ele>952.8</ele>
        <time>2013-12-08T10:51:16Z</time>
      </trkpt>
      <trkpt lat="43.43071" lon="2.43415">
        <ele>953.28</ele>
        <time>2013-12-08T10:51:26Z</time>
      </trkpt>
      <trkpt lat="43.43066" lon="2.43416">
        <ele>954.25</ele>
        <time>2013-12-08T10:51:32Z</time>
      </trkpt>
      <trkpt lat="43.43057" lon="2.43417">
        <ele>955.69</ele>
        <time>2013-12-08T10:51:44Z</time>
      </trkpt>
      <trkpt lat="43.43053" lon="2.43424">
        <ele>956.17</ele>
        <time>2013-12-08T10:51:54Z</time>
      </trkpt>
      <trkpt lat="43.43053" lon="2.43427">
        <ele>956.17</ele>
        <time>2013-12-08T10:52:10Z</time>
      </trkpt>
      <trkpt lat="43.43049" lon="2.43434">
        <ele>957.13</ele>
        <time>2013-12-08T10:52:20Z</time>
      </trkpt>
      <trkpt lat="43.43046" lon="2.43455">
        <ele>959.05</ele>
        <time>2013-12-08T10:52:33Z</time>
      </trkpt>
      <trkpt lat="43.43045" lon="2.43466">
        <ele>960.01</ele>
        <time>2013-12-08T10:52:44Z</time>
      </trkpt>
      <trkpt lat="43.43041" lon="2.43477">
        <ele>960.98</ele>
        <time>2013-12-08T10:52:57Z</time>
      </trkpt>
      <trkpt lat="43.43033" lon="2.43488">
        <ele>962.42</ele>
        <time>2013-12-08T10:53:09Z</time>
      </trkpt>
      <trkpt lat="43.43026" lon="2.43493">
        <ele>964.34</ele>
        <time>2013-12-08T10:53:19Z</time>
      </trkpt>
      <trkpt lat="43.4302" lon="2.43498">
        <ele>965.78</ele>
        <time>2013-12-08T10:53:29Z</time>
      </trkpt>
      <trkpt lat="43.43013" lon="2.43509">
        <ele>967.7</ele>
        <time>2013-12-08T10:53:42Z</time>
      </trkpt>
      <trkpt lat="43.4301" lon="2.43517">
        <ele>968.67</ele>
        <time>2013-12-08T10:53:52Z</time>
      </trkpt>
      <trkpt lat="43.43005" lon="2.43525">
        <ele>969.63</ele>
        <time>2013-12-08T10:54:04Z</time>
      </trkpt>
      <trkpt lat="43.43002" lon="2.43531">
        <ele>970.59</ele>
        <time>2013-12-08T10:54:17Z</time>
      </trkpt>
      <trkpt lat="43.43003" lon="2.43533">
        <ele>970.11</ele>
        <time>2013-12-08T10:54:39Z</time>
      </trkpt>
      <trkpt lat="43.42998" lon="2.43539">
        <ele>971.55</ele>
        <time>2013-12-08T10:54:50Z</time>
      </trkpt>
      <trkpt lat="43.42991" lon="2.43545">
        <ele>972.51</ele>
        <time>2013-12-08T10:55:01Z</time>
      </trkpt>
      <trkpt lat="43.42982" lon="2.43552">
        <ele>972.99</ele>
        <time>2013-12-08T10:55:15Z</time>
      </trkpt>
      <trkpt lat="43.42975" lon="2.4356">
        <ele>974.43</ele>
        <time>2013-12-08T10:55:28Z</time>
      </trkpt>
      <trkpt lat="43.42967" lon="2.43569">
        <ele>974.91</ele>
        <time>2013-12-08T10:55:42Z</time>
      </trkpt>
      <trkpt lat="43.42963" lon="2.43576">
        <ele>975.88</ele>
        <time>2013-12-08T10:55:52Z</time>
      </trkpt>
      <trkpt lat="43.42961" lon="2.43582">
        <ele>977.32</ele>
        <time>2013-12-08T10:56:04Z</time>
      </trkpt>
      <trkpt lat="43.42955" lon="2.43595">
        <ele>979.24</ele>
        <time>2013-12-08T10:56:17Z</time>
      </trkpt>
      <trkpt lat="43.4295" lon="2.43602">
        <ele>979.24</ele>
        <time>2013-12-08T10:56:31Z</time>
      </trkpt>
      <trkpt lat="43.42947" lon="2.43612">
        <ele>980.68</ele>
        <time>2013-12-08T10:56:42Z</time>
      </trkpt>
      <trkpt lat="43.42945" lon="2.4362">
        <ele>982.12</ele>
        <time>2013-12-08T10:56:52Z</time>
      </trkpt>
      <trkpt lat="43.42943" lon="2.43629">
        <ele>983.57</ele>
        <time>2013-12-08T10:57:02Z</time>
      </trkpt>
      <trkpt lat="43.42942" lon="2.43638">
        <ele>985.49</ele>
        <time>2013-12-08T10:57:15Z</time>
      </trkpt>
      <trkpt lat="43.4294" lon="2.43648">
        <ele>986.45</ele>
        <time>2013-12-08T10:57:27Z</time>
      </trkpt>
      <trkpt lat="43.42942" lon="2.43658">
        <ele>988.37</ele>
        <time>2013-12-08T10:57:40Z</time>
      </trkpt>
      <trkpt lat="43.42946" lon="2.43658">
        <ele>985.01</ele>
        <time>2013-12-08T10:57:48Z</time>
      </trkpt>
      <trkpt lat="43.42946" lon="2.43657">
        <ele>991.74</ele>
        <time>2013-12-08T10:57:49Z</time>
      </trkpt>
      <trkpt lat="43.42947" lon="2.43657">
        <ele>987.41</ele>
        <time>2013-12-08T10:57:50Z</time>
      </trkpt>
      <trkpt lat="43.4295" lon="2.43658">
        <ele>982.12</ele>
        <time>2013-12-08T10:57:54Z</time>
      </trkpt>
      <trkpt lat="43.4295" lon="2.43658">
        <ele>992.22</ele>
        <time>2013-12-08T10:57:55Z</time>
      </trkpt>
      <trkpt lat="43.42951" lon="2.43658">
        <ele>988.37</ele>
        <time>2013-12-08T10:57:56Z</time>
      </trkpt>
      <trkpt lat="43.42951" lon="2.43658">
        <ele>992.22</ele>
        <time>2013-12-08T10:57:57Z</time>
      </trkpt>
      <trkpt lat="43.42951" lon="2.43658">
        <ele>988.37</ele>
        <time>2013-12-08T10:57:58Z</time>
      </trkpt>
      <trkpt lat="43.42951" lon="2.43659">
        <ele>992.22</ele>
        <time>2013-12-08T10:58:07Z</time>
      </trkpt>
      <trkpt lat="43.42951" lon="2.43659">
        <ele>986.93</ele>
        <time>2013-12-08T10:58:08Z</time>
      </trkpt>
      <trkpt lat="43.42951" lon="2.43659">
        <ele>991.26</ele>
        <time>2013-12-08T10:58:09Z</time>
      </trkpt>
      <trkpt lat="43.4295" lon="2.43659">
        <ele>986.93</ele>
        <time>2013-12-08T10:58:14Z</time>
      </trkpt>
      <trkpt lat="43.4295" lon="2.43658">
        <ele>991.74</ele>
        <time>2013-12-08T10:58:15Z</time>
      </trkpt>
      <trkpt lat="43.4295" lon="2.43658">
        <ele>987.41</ele>
        <time>2013-12-08T10:58:17Z</time>
      </trkpt>
      <trkpt lat="43.4295" lon="2.43658">
        <ele>990.78</ele>
        <time>2013-12-08T10:58:18Z</time>
      </trkpt>
      <trkpt lat="43.42948" lon="2.43656">
        <ele>988.85</ele>
        <time>2013-12-08T10:58:33Z</time>
      </trkpt>
      <trkpt lat="43.42947" lon="2.43656">
        <ele>989.33</ele>
        <time>2013-12-08T10:58:46Z</time>
      </trkpt>
      <trkpt lat="43.42949" lon="2.43661">
        <ele>989.33</ele>
        <time>2013-12-08T10:58:58Z</time>
      </trkpt>
      <trkpt lat="43.42958" lon="2.43671">
        <ele>991.26</ele>
        <time>2013-12-08T10:59:12Z</time>
      </trkpt>
      <trkpt lat="43.42961" lon="2.43677">
        <ele>992.22</ele>
        <time>2013-12-08T10:59:24Z</time>
      </trkpt>
      <trkpt lat="43.42959" lon="2.43687">
        <ele>994.14</ele>
        <time>2013-12-08T10:59:37Z</time>
      </trkpt>
      <trkpt lat="43.42957" lon="2.43697">
        <ele>996.06</ele>
        <time>2013-12-08T10:59:49Z</time>
      </trkpt>
      <trkpt lat="43.42955" lon="2.43707">
        <ele>997.51</ele>
        <time>2013-12-08T11:00:00Z</time>
      </trkpt>
      <trkpt lat="43.42953" lon="2.43718">
        <ele>998.95</ele>
        <time>2013-12-08T11:00:12Z</time>
      </trkpt>
      <trkpt lat="43.42953" lon="2.43727">
        <ele>999.43</ele>
        <time>2013-12-08T11:00:22Z</time>
      </trkpt>
      <trkpt lat="43.42954" lon="2.43736">
        <ele>1001.35</ele>
        <time>2013-12-08T11:00:33Z</time>
      </trkpt>
      <trkpt lat="43.42954" lon="2.43749">
        <ele>1002.79</ele>
        <time>2013-12-08T11:00:46Z</time>
      </trkpt>
      <trkpt lat="43.42952" lon="2.43759">
        <ele>1003.75</ele>
        <time>2013-12-08T11:00:57Z</time>
      </trkpt>
      <trkpt lat="43.42951" lon="2.43767">
        <ele>1004.72</ele>
        <time>2013-12-08T11:01:08Z</time>
      </trkpt>
      <trkpt lat="43.42947" lon="2.43776">
        <ele>1006.16</ele>
        <time>2013-12-08T11:01:21Z</time>
      </trkpt>
      <trkpt lat="43.42945" lon="2.43784">
        <ele>1007.6</ele>
        <time>2013-12-08T11:01:33Z</time>
      </trkpt>
      <trkpt lat="43.42944" lon="2.43792">
        <ele>1008.56</ele>
        <time>2013-12-08T11:01:43Z</time>
      </trkpt>
      <trkpt lat="43.4294" lon="2.438">
        <ele>1009.04</ele>
        <time>2013-12-08T11:01:55Z</time>
      </trkpt>
      <trkpt lat="43.42937" lon="2.43806">
        <ele>1010.48</ele>
        <time>2013-12-08T11:02:06Z</time>
      </trkpt>
      <trkpt lat="43.42934" lon="2.43812">
        <ele>1010.96</ele>
        <time>2013-12-08T11:02:18Z</time>
      </trkpt>
      <trkpt lat="43.42931" lon="2.4382">
        <ele>1011.93</ele>
        <time>2013-12-08T11:02:31Z</time>
      </trkpt>
      <trkpt lat="43.42928" lon="2.43833">
        <ele>1013.37</ele>
        <time>2013-12-08T11:02:45Z</time>
      </trkpt>
      <trkpt lat="43.42927" lon="2.43842">
        <ele>1013.85</ele>
        <time>2013-12-08T11:02:56Z</time>
      </trkpt>
      <trkpt lat="43.42926" lon="2.43849">
        <ele>1017.21</ele>
        <time>2013-12-08T11:03:03Z</time>
      </trkpt>
      <trkpt lat="43.42926" lon="2.43859">
        <ele>1016.25</ele>
        <time>2013-12-08T11:03:13Z</time>
      </trkpt>
      <trkpt lat="43.42928" lon="2.43872">
        <ele>1017.21</ele>
        <time>2013-12-08T11:03:27Z</time>
      </trkpt>
      <trkpt lat="43.42933" lon="2.43884">
        <ele>1018.65</ele>
        <time>2013-12-08T11:03:43Z</time>
      </trkpt>
      <trkpt lat="43.42937" lon="2.43892">
        <ele>1019.62</ele>
        <time>2013-12-08T11:03:57Z</time>
      </trkpt>
      <trkpt lat="43.42939" lon="2.43898">
        <ele>1021.54</ele>
        <time>2013-12-08T11:04:10Z</time>
      </trkpt>
      <trkpt lat="43.42935" lon="2.43906">
        <ele>1022.5</ele>
        <time>2013-12-08T11:04:22Z</time>
      </trkpt>
      <trkpt lat="43.42928" lon="2.43909">
        <ele>1023.94</ele>
        <time>2013-12-08T11:04:34Z</time>
      </trkpt>
      <trkpt lat="43.42922" lon="2.43919">
        <ele>1024.42</ele>
        <time>2013-12-08T11:04:46Z</time>
      </trkpt>
      <trkpt lat="43.42921" lon="2.43932">
        <ele>1025.86</ele>
        <time>2013-12-08T11:04:59Z</time>
      </trkpt>
      <trkpt lat="43.42918" lon="2.43938">
        <ele>1026.34</ele>
        <time>2013-12-08T11:05:12Z</time>
      </trkpt>
      <trkpt lat="43.42917" lon="2.43942">
        <ele>1027.31</ele>
        <time>2013-12-08T11:05:25Z</time>
      </trkpt>
      <trkpt lat="43.42916" lon="2.43952">
        <ele>1028.75</ele>
        <time>2013-12-08T11:05:36Z</time>
      </trkpt>
      <trkpt lat="43.42913" lon="2.43963">
        <ele>1029.71</ele>
        <time>2013-12-08T11:05:47Z</time>
      </trkpt>
      <trkpt lat="43.4291" lon="2.43969">
        <ele>1031.15</ele>
        <time>2013-12-08T11:05:57Z</time>
      </trkpt>
      <trkpt lat="43.42907" lon="2.43976">
        <ele>1032.11</ele>
        <time>2013-12-08T11:06:08Z</time>
      </trkpt>
      <trkpt lat="43.42903" lon="2.43982">
        <ele>1032.59</ele>
        <time>2013-12-08T11:06:20Z</time>
      </trkpt>
      <trkpt lat="43.42903" lon="2.43983">
        <ele>1029.71</ele>
        <time>2013-12-08T11:06:23Z</time>
      </trkpt>
      <trkpt lat="43.42903" lon="2.43983">
        <ele>1029.71</ele>
        <time>2013-12-08T11:06:24Z</time>
      </trkpt>
      <trkpt lat="43.42903" lon="2.43983">
        <ele>1034.52</ele>
        <time>2013-12-08T11:06:25Z</time>
      </trkpt>
      <trkpt lat="43.42903" lon="2.43984">
        <ele>1032.59</ele>
        <time>2013-12-08T11:06:26Z</time>
      </trkpt>
      <trkpt lat="43.42904" lon="2.43987">
        <ele>1029.23</ele>
        <time>2013-12-08T11:06:33Z</time>
      </trkpt>
      <trkpt lat="43.42904" lon="2.43987">
        <ele>1034.52</ele>
        <time>2013-12-08T11:06:34Z</time>
      </trkpt>
      <trkpt lat="43.42905" lon="2.43987">
        <ele>1033.07</ele>
        <time>2013-12-08T11:06:35Z</time>
      </trkpt>
      <trkpt lat="43.42904" lon="2.43985">
        <ele>1032.11</ele>
        <time>2013-12-08T11:06:49Z</time>
      </trkpt>
      <trkpt lat="43.42904" lon="2.43987">
        <ele>1033.07</ele>
        <time>2013-12-08T11:07:04Z</time>
      </trkpt>
      <trkpt lat="43.42904" lon="2.43987">
        <ele>1033.07</ele>
        <time>2013-12-08T11:07:19Z</time>
      </trkpt>
      <trkpt lat="43.42903" lon="2.43988">
        <ele>1028.27</ele>
        <time>2013-12-08T11:07:32Z</time>
      </trkpt>
      <trkpt lat="43.42904" lon="2.43988">
        <ele>1036.44</ele>
        <time>2013-12-08T11:07:33Z</time>
      </trkpt>
      <trkpt lat="43.42904" lon="2.43988">
        <ele>1033.07</ele>
        <time>2013-12-08T11:07:34Z</time>
      </trkpt>
      <trkpt lat="43.42905" lon="2.43989">
        <ele>1031.15</ele>
        <time>2013-12-08T11:07:38Z</time>
      </trkpt>
      <trkpt lat="43.42905" lon="2.4399">
        <ele>1037.88</ele>
        <time>2013-12-08T11:07:39Z</time>
      </trkpt>
      <trkpt lat="43.42905" lon="2.4399">
        <ele>1037.88</ele>
        <time>2013-12-08T11:07:40Z</time>
      </trkpt>
      <trkpt lat="43.42905" lon="2.43989">
        <ele>1033.07</ele>
        <time>2013-12-08T11:07:41Z</time>
      </trkpt>
      <trkpt lat="43.42905" lon="2.43989">
        <ele>1035.96</ele>
        <time>2013-12-08T11:07:42Z</time>
      </trkpt>
      <trkpt lat="43.42905" lon="2.4399">
        <ele>1033.07</ele>
        <time>2013-12-08T11:07:44Z</time>
      </trkpt>
      <trkpt lat="43.42904" lon="2.4399">
        <ele>1033.07</ele>
        <time>2013-12-08T11:08:02Z</time>
      </trkpt>
      <trkpt lat="43.42901" lon="2.43992">
        <ele>1033.55</ele>
        <time>2013-12-08T11:08:19Z</time>
      </trkpt>
      <trkpt lat="43.429" lon="2.43999">
        <ele>1034.04</ele>
        <time>2013-12-08T11:08:29Z</time>
      </trkpt>
      <trkpt lat="43.42899" lon="2.44008">
        <ele>1035.96</ele>
        <time>2013-12-08T11:08:42Z</time>
      </trkpt>
      <trkpt lat="43.42898" lon="2.44021">
        <ele>1037.4</ele>
        <time>2013-12-08T11:08:56Z</time>
      </trkpt>
      <trkpt lat="43.42896" lon="2.44029">
        <ele>1038.84</ele>
        <time>2013-12-08T11:09:08Z</time>
      </trkpt>
      <trkpt lat="43.42891" lon="2.44039">
        <ele>1039.32</ele>
        <time>2013-12-08T11:09:21Z</time>
      </trkpt>
      <trkpt lat="43.42887" lon="2.44048">
        <ele>1041.25</ele>
        <time>2013-12-08T11:09:32Z</time>
      </trkpt>
      <trkpt lat="43.42887" lon="2.44064">
        <ele>1042.21</ele>
        <time>2013-12-08T11:09:43Z</time>
      </trkpt>
      <trkpt lat="43.4289" lon="2.44075">
        <ele>1042.69</ele>
        <time>2013-12-08T11:09:55Z</time>
      </trkpt>
      <trkpt lat="43.42892" lon="2.44088">
        <ele>1043.17</ele>
        <time>2013-12-08T11:10:07Z</time>
      </trkpt>
      <trkpt lat="43.42894" lon="2.44099">
        <ele>1043.65</ele>
        <time>2013-12-08T11:10:20Z</time>
      </trkpt>
      <trkpt lat="43.42889" lon="2.44107">
        <ele>1044.61</ele>
        <time>2013-12-08T11:10:32Z</time>
      </trkpt>
      <trkpt lat="43.42887" lon="2.44122">
        <ele>1045.57</ele>
        <time>2013-12-08T11:10:44Z</time>
      </trkpt>
      <trkpt lat="43.4289" lon="2.44134">
        <ele>1046.53</ele>
        <time>2013-12-08T11:10:56Z</time>
      </trkpt>
      <trkpt lat="43.42894" lon="2.44148">
        <ele>1046.53</ele>
        <time>2013-12-08T11:11:10Z</time>
      </trkpt>
      <trkpt lat="43.42889" lon="2.44159">
        <ele>1046.53</ele>
        <time>2013-12-08T11:11:22Z</time>
      </trkpt>
      <trkpt lat="43.42882" lon="2.4417">
        <ele>1047.49</ele>
        <time>2013-12-08T11:11:34Z</time>
      </trkpt>
      <trkpt lat="43.42879" lon="2.44183">
        <ele>1048.45</ele>
        <time>2013-12-08T11:11:46Z</time>
      </trkpt>
      <trkpt lat="43.42879" lon="2.44187">
        <ele>1047.97</ele>
        <time>2013-12-08T11:12:07Z</time>
      </trkpt>
      <trkpt lat="43.42877" lon="2.44191">
        <ele>1048.45</ele>
        <time>2013-12-08T11:12:25Z</time>
      </trkpt>
      <trkpt lat="43.42875" lon="2.44205">
        <ele>1048.94</ele>
        <time>2013-12-08T11:12:35Z</time>
      </trkpt>
      <trkpt lat="43.42875" lon="2.44219">
        <ele>1049.42</ele>
        <time>2013-12-08T11:12:46Z</time>
      </trkpt>
      <trkpt lat="43.42875" lon="2.44232">
        <ele>1049.9</ele>
        <time>2013-12-08T11:12:57Z</time>
      </trkpt>
      <trkpt lat="43.42872" lon="2.44248">
        <ele>1050.38</ele>
        <time>2013-12-08T11:13:11Z</time>
      </trkpt>
      <trkpt lat="43.42871" lon="2.44261">
        <ele>1050.86</ele>
        <time>2013-12-08T11:13:23Z</time>
      </trkpt>
      <trkpt lat="43.4287" lon="2.44275">
        <ele>1051.82</ele>
        <time>2013-12-08T11:13:35Z</time>
      </trkpt>
      <trkpt lat="43.42871" lon="2.4428">
        <ele>1051.34</ele>
        <time>2013-12-08T11:13:39Z</time>
      </trkpt>
      <trkpt lat="43.42875" lon="2.44296">
        <ele>1052.3</ele>
        <time>2013-12-08T11:13:53Z</time>
      </trkpt>
      <trkpt lat="43.42876" lon="2.44308">
        <ele>1052.3</ele>
        <time>2013-12-08T11:14:05Z</time>
      </trkpt>
      <trkpt lat="43.42868" lon="2.44314">
        <ele>1052.78</ele>
        <time>2013-12-08T11:14:17Z</time>
      </trkpt>
      <trkpt lat="43.4286" lon="2.44316">
        <ele>1056.15</ele>
        <time>2013-12-08T11:14:27Z</time>
      </trkpt>
      <trkpt lat="43.42854" lon="2.44323">
        <ele>1053.74</ele>
        <time>2013-12-08T11:14:39Z</time>
      </trkpt>
      <trkpt lat="43.42851" lon="2.44334">
        <ele>1054.7</ele>
        <time>2013-12-08T11:14:51Z</time>
      </trkpt>
      <trkpt lat="43.42851" lon="2.44347">
        <ele>1055.18</ele>
        <time>2013-12-08T11:15:04Z</time>
      </trkpt>
      <trkpt lat="43.42849" lon="2.44362">
        <ele>1056.63</ele>
        <time>2013-12-08T11:15:18Z</time>
      </trkpt>
      <trkpt lat="43.42845" lon="2.44372">
        <ele>1057.59</ele>
        <time>2013-12-08T11:15:31Z</time>
      </trkpt>
      <trkpt lat="43.42843" lon="2.4438">
        <ele>1058.55</ele>
        <time>2013-12-08T11:15:45Z</time>
      </trkpt>
      <trkpt lat="43.42843" lon="2.44381">
        <ele>1058.07</ele>
        <time>2013-12-08T11:15:57Z</time>
      </trkpt>
      <trkpt lat="43.42838" lon="2.44387">
        <ele>1059.51</ele>
        <time>2013-12-08T11:16:08Z</time>
      </trkpt>
      <trkpt lat="43.42834" lon="2.44396">
        <ele>1059.99</ele>
        <time>2013-12-08T11:16:20Z</time>
      </trkpt>
      <trkpt lat="43.4283" lon="2.44407">
        <ele>1060.95</ele>
        <time>2013-12-08T11:16:31Z</time>
      </trkpt>
      <trkpt lat="43.42827" lon="2.44416">
        <ele>1061.91</ele>
        <time>2013-12-08T11:16:41Z</time>
      </trkpt>
      <trkpt lat="43.42821" lon="2.44424">
        <ele>1062.87</ele>
        <time>2013-12-08T11:16:52Z</time>
      </trkpt>
      <trkpt lat="43.42816" lon="2.44433">
        <ele>1063.84</ele>
        <time>2013-12-08T11:17:03Z</time>
      </trkpt>
      <trkpt lat="43.42813" lon="2.44443">
        <ele>1064.32</ele>
        <time>2013-12-08T11:17:13Z</time>
      </trkpt>
      <trkpt lat="43.42811" lon="2.44454">
        <ele>1065.28</ele>
        <time>2013-12-08T11:17:25Z</time>
      </trkpt>
      <trkpt lat="43.42811" lon="2.44463">
        <ele>1066.24</ele>
        <time>2013-12-08T11:17:36Z</time>
      </trkpt>
      <trkpt lat="43.4281" lon="2.44472">
        <ele>1067.2</ele>
        <time>2013-12-08T11:17:46Z</time>
      </trkpt>
      <trkpt lat="43.42809" lon="2.44479">
        <ele>1068.64</ele>
        <time>2013-12-08T11:17:56Z</time>
      </trkpt>
      <trkpt lat="43.42805" lon="2.44488">
        <ele>1069.6</ele>
        <time>2013-12-08T11:18:09Z</time>
      </trkpt>
      <trkpt lat="43.42803" lon="2.44499">
        <ele>1070.57</ele>
        <time>2013-12-08T11:18:20Z</time>
      </trkpt>
      <trkpt lat="43.42808" lon="2.44511">
        <ele>1072.01</ele>
        <time>2013-12-08T11:18:34Z</time>
      </trkpt>
      <trkpt lat="43.4281" lon="2.4452">
        <ele>1072.97</ele>
        <time>2013-12-08T11:18:46Z</time>
      </trkpt>
      <trkpt lat="43.42813" lon="2.44528">
        <ele>1074.41</ele>
        <time>2013-12-08T11:18:58Z</time>
      </trkpt>
      <trkpt lat="43.42814" lon="2.44534">
        <ele>1074.89</ele>
        <time>2013-12-08T11:19:12Z</time>
      </trkpt>
      <trkpt lat="43.42815" lon="2.44539">
        <ele>1074.89</ele>
        <time>2013-12-08T11:19:27Z</time>
      </trkpt>
      <trkpt lat="43.42816" lon="2.44549">
        <ele>1076.33</ele>
        <time>2013-12-08T11:19:38Z</time>
      </trkpt>
      <trkpt lat="43.42817" lon="2.44556">
        <ele>1077.29</ele>
        <time>2013-12-08T11:19:54Z</time>
      </trkpt>
      <trkpt lat="43.42818" lon="2.44566">
        <ele>1078.26</ele>
        <time>2013-12-08T11:20:09Z</time>
      </trkpt>
      <trkpt lat="43.42818" lon="2.44575">
        <ele>1079.22</ele>
        <time>2013-12-08T11:20:20Z</time>
      </trkpt>
      <trkpt lat="43.42818" lon="2.44587">
        <ele>1081.62</ele>
        <time>2013-12-08T11:20:36Z</time>
      </trkpt>
      <trkpt lat="43.4282" lon="2.44599">
        <ele>1082.1</ele>
        <time>2013-12-08T11:20:51Z</time>
      </trkpt>
      <trkpt lat="43.42822" lon="2.44609">
        <ele>1083.54</ele>
        <time>2013-12-08T11:21:05Z</time>
      </trkpt>
      <trkpt lat="43.42824" lon="2.44618">
        <ele>1084.5</ele>
        <time>2013-12-08T11:21:17Z</time>
      </trkpt>
      <trkpt lat="43.42826" lon="2.44626">
        <ele>1085.95</ele>
        <time>2013-12-08T11:21:30Z</time>
      </trkpt>
      <trkpt lat="43.42826" lon="2.44627">
        <ele>1085.95</ele>
        <time>2013-12-08T11:21:45Z</time>
      </trkpt>
      <trkpt lat="43.42827" lon="2.44624">
        <ele>1085.47</ele>
        <time>2013-12-08T11:22:03Z</time>
      </trkpt>
      <trkpt lat="43.42826" lon="2.44633">
        <ele>1085.95</ele>
        <time>2013-12-08T11:22:17Z</time>
      </trkpt>
      <trkpt lat="43.42825" lon="2.44638">
        <ele>1086.91</ele>
        <time>2013-12-08T11:22:30Z</time>
      </trkpt>
      <trkpt lat="43.42823" lon="2.4465">
        <ele>1087.87</ele>
        <time>2013-12-08T11:22:41Z</time>
      </trkpt>
      <trkpt lat="43.4282" lon="2.44658">
        <ele>1089.31</ele>
        <time>2013-12-08T11:22:52Z</time>
      </trkpt>
      <trkpt lat="43.42813" lon="2.44664">
        <ele>1090.27</ele>
        <time>2013-12-08T11:23:04Z</time>
      </trkpt>
      <trkpt lat="43.42812" lon="2.44672">
        <ele>1090.75</ele>
        <time>2013-12-08T11:23:14Z</time>
      </trkpt>
      <trkpt lat="43.42811" lon="2.44676">
        <ele>1090.75</ele>
        <time>2013-12-08T11:23:28Z</time>
      </trkpt>
      <trkpt lat="43.42811" lon="2.44674">
        <ele>1091.23</ele>
        <time>2013-12-08T11:23:46Z</time>
      </trkpt>
      <trkpt lat="43.42806" lon="2.44674">
        <ele>1091.71</ele>
        <time>2013-12-08T11:23:59Z</time>
      </trkpt>
      <trkpt lat="43.42801" lon="2.44683">
        <ele>1092.2</ele>
        <time>2013-12-08T11:24:13Z</time>
      </trkpt>
      <trkpt lat="43.42798" lon="2.44693">
        <ele>1093.64</ele>
        <time>2013-12-08T11:24:23Z</time>
      </trkpt>
      <trkpt lat="43.42796" lon="2.44702">
        <ele>1095.08</ele>
        <time>2013-12-08T11:24:36Z</time>
      </trkpt>
      <trkpt lat="43.42794" lon="2.44702">
        <ele>1095.56</ele>
        <time>2013-12-08T11:24:49Z</time>
      </trkpt>
      <trkpt lat="43.42792" lon="2.44707">
        <ele>1096.04</ele>
        <time>2013-12-08T11:25:07Z</time>
      </trkpt>
      <trkpt lat="43.42792" lon="2.44722">
        <ele>1097</ele>
        <time>2013-12-08T11:25:19Z</time>
      </trkpt>
      <trkpt lat="43.42794" lon="2.44732">
        <ele>1098.44</ele>
        <time>2013-12-08T11:25:29Z</time>
      </trkpt>
      <trkpt lat="43.42792" lon="2.44746">
        <ele>1099.89</ele>
        <time>2013-12-08T11:25:42Z</time>
      </trkpt>
      <trkpt lat="43.4279" lon="2.44759">
        <ele>1100.85</ele>
        <time>2013-12-08T11:25:53Z</time>
      </trkpt>
      <trkpt lat="43.42786" lon="2.44774">
        <ele>1101.33</ele>
        <time>2013-12-08T11:26:05Z</time>
      </trkpt>
      <trkpt lat="43.42786" lon="2.44786">
        <ele>1102.77</ele>
        <time>2013-12-08T11:26:14Z</time>
      </trkpt>
      <trkpt lat="43.42786" lon="2.44804">
        <ele>1103.25</ele>
        <time>2013-12-08T11:26:27Z</time>
      </trkpt>
      <trkpt lat="43.42786" lon="2.44821">
        <ele>1103.25</ele>
        <time>2013-12-08T11:26:40Z</time>
      </trkpt>
      <trkpt lat="43.42787" lon="2.44835">
        <ele>1103.73</ele>
        <time>2013-12-08T11:26:51Z</time>
      </trkpt>
      <trkpt lat="43.42787" lon="2.44849">
        <ele>1104.69</ele>
        <time>2013-12-08T11:27:04Z</time>
      </trkpt>
      <trkpt lat="43.42787" lon="2.44863">
        <ele>1105.65</ele>
        <time>2013-12-08T11:27:16Z</time>
      </trkpt>
      <trkpt lat="43.42787" lon="2.44875">
        <ele>1106.13</ele>
        <time>2013-12-08T11:27:27Z</time>
      </trkpt>
      <trkpt lat="43.42787" lon="2.44888">
        <ele>1106.61</ele>
        <time>2013-12-08T11:27:39Z</time>
      </trkpt>
      <trkpt lat="43.42788" lon="2.44901">
        <ele>1107.58</ele>
        <time>2013-12-08T11:27:51Z</time>
      </trkpt>
      <trkpt lat="43.4279" lon="2.44911">
        <ele>1108.06</ele>
        <time>2013-12-08T11:28:04Z</time>
      </trkpt>
      <trkpt lat="43.42789" lon="2.44922">
        <ele>1109.02</ele>
        <time>2013-12-08T11:28:16Z</time>
      </trkpt>
      <trkpt lat="43.42791" lon="2.44933">
        <ele>1109.98</ele>
        <time>2013-12-08T11:28:29Z</time>
      </trkpt>
      <trkpt lat="43.42793" lon="2.44947">
        <ele>1109.98</ele>
        <time>2013-12-08T11:28:45Z</time>
      </trkpt>
      <trkpt lat="43.42795" lon="2.44962">
        <ele>1111.42</ele>
        <time>2013-12-08T11:29:01Z</time>
      </trkpt>
      <trkpt lat="43.42796" lon="2.44972">
        <ele>1111.42</ele>
        <time>2013-12-08T11:29:13Z</time>
      </trkpt>
      <trkpt lat="43.42798" lon="2.44986">
        <ele>1112.38</ele>
        <time>2013-12-08T11:29:27Z</time>
      </trkpt>
      <trkpt lat="43.42798" lon="2.44998">
        <ele>1113.34</ele>
        <time>2013-12-08T11:29:39Z</time>
      </trkpt>
      <trkpt lat="43.42798" lon="2.45008">
        <ele>1113.34</ele>
        <time>2013-12-08T11:29:50Z</time>
      </trkpt>
      <trkpt lat="43.42798" lon="2.45021">
        <ele>1113.82</ele>
        <time>2013-12-08T11:30:02Z</time>
      </trkpt>
      <trkpt lat="43.42797" lon="2.45036">
        <ele>1115.27</ele>
        <time>2013-12-08T11:30:18Z</time>
      </trkpt>
      <trkpt lat="43.42797" lon="2.45051">
        <ele>1115.27</ele>
        <time>2013-12-08T11:30:32Z</time>
      </trkpt>
      <trkpt lat="43.42796" lon="2.45054">
        <ele>1116.23</ele>
        <time>2013-12-08T11:30:36Z</time>
      </trkpt>
      <trkpt lat="43.42797" lon="2.45067">
        <ele>1116.71</ele>
        <time>2013-12-08T11:30:48Z</time>
      </trkpt>
      <trkpt lat="43.42798" lon="2.45077">
        <ele>1117.19</ele>
        <time>2013-12-08T11:30:59Z</time>
      </trkpt>
      <trkpt lat="43.42798" lon="2.45089">
        <ele>1118.15</ele>
        <time>2013-12-08T11:31:11Z</time>
      </trkpt>
      <trkpt lat="43.42799" lon="2.45101">
        <ele>1119.11</ele>
        <time>2013-12-08T11:31:24Z</time>
      </trkpt>
      <trkpt lat="43.42797" lon="2.4511">
        <ele>1119.59</ele>
        <time>2013-12-08T11:31:36Z</time>
      </trkpt>
      <trkpt lat="43.42798" lon="2.45119">
        <ele>1121.03</ele>
        <time>2013-12-08T11:31:49Z</time>
      </trkpt>
      <trkpt lat="43.42799" lon="2.45128">
        <ele>1121.52</ele>
        <time>2013-12-08T11:32:00Z</time>
      </trkpt>
      <trkpt lat="43.42799" lon="2.45139">
        <ele>1122</ele>
        <time>2013-12-08T11:32:12Z</time>
      </trkpt>
      <trkpt lat="43.428" lon="2.45149">
        <ele>1122.96</ele>
        <time>2013-12-08T11:32:25Z</time>
      </trkpt>
      <trkpt lat="43.428" lon="2.45148">
        <ele>1123.44</ele>
        <time>2013-12-08T11:32:41Z</time>
      </trkpt>
      <trkpt lat="43.42799" lon="2.45156">
        <ele>1123.44</ele>
        <time>2013-12-08T11:32:58Z</time>
      </trkpt>
      <trkpt lat="43.42801" lon="2.4516">
        <ele>1123.92</ele>
        <time>2013-12-08T11:33:10Z</time>
      </trkpt>
      <trkpt lat="43.42803" lon="2.4516">
        <ele>1123.44</ele>
        <time>2013-12-08T11:33:38Z</time>
      </trkpt>
      <trkpt lat="43.42801" lon="2.45167">
        <ele>1123.92</ele>
        <time>2013-12-08T11:33:54Z</time>
      </trkpt>
      <trkpt lat="43.42802" lon="2.45169">
        <ele>1124.88</ele>
        <time>2013-12-08T11:33:56Z</time>
      </trkpt>
      <trkpt lat="43.42804" lon="2.45184">
        <ele>1125.36</ele>
        <time>2013-12-08T11:34:10Z</time>
      </trkpt>
      <trkpt lat="43.42805" lon="2.45193">
        <ele>1125.84</ele>
        <time>2013-12-08T11:34:19Z</time>
      </trkpt>
      <trkpt lat="43.42805" lon="2.45205">
        <ele>1127.28</ele>
        <time>2013-12-08T11:34:29Z</time>
      </trkpt>
      <trkpt lat="43.42808" lon="2.45216">
        <ele>1128.73</ele>
        <time>2013-12-08T11:34:39Z</time>
      </trkpt>
      <trkpt lat="43.42809" lon="2.45227">
        <ele>1128.73</ele>
        <time>2013-12-08T11:34:49Z</time>
      </trkpt>
      <trkpt lat="43.42811" lon="2.45241">
        <ele>1130.17</ele>
        <time>2013-12-08T11:35:01Z</time>
      </trkpt>
      <trkpt lat="43.42812" lon="2.45252">
        <ele>1130.17</ele>
        <time>2013-12-08T11:35:12Z</time>
      </trkpt>
      <trkpt lat="43.42815" lon="2.45265">
        <ele>1131.13</ele>
        <time>2013-12-08T11:35:23Z</time>
      </trkpt>
      <trkpt lat="43.42814" lon="2.4528">
        <ele>1132.09</ele>
        <time>2013-12-08T11:35:36Z</time>
      </trkpt>
      <trkpt lat="43.42814" lon="2.45289">
        <ele>1131.61</ele>
        <time>2013-12-08T11:35:45Z</time>
      </trkpt>
      <trkpt lat="43.42814" lon="2.45303">
        <ele>1132.57</ele>
        <time>2013-12-08T11:35:57Z</time>
      </trkpt>
      <trkpt lat="43.42815" lon="2.45316">
        <ele>1133.05</ele>
        <time>2013-12-08T11:36:09Z</time>
      </trkpt>
      <trkpt lat="43.42815" lon="2.4533">
        <ele>1134.01</ele>
        <time>2013-12-08T11:36:21Z</time>
      </trkpt>
      <trkpt lat="43.42816" lon="2.45339">
        <ele>1134.49</ele>
        <time>2013-12-08T11:36:31Z</time>
      </trkpt>
      <trkpt lat="43.42816" lon="2.4535">
        <ele>1134.97</ele>
        <time>2013-12-08T11:36:42Z</time>
      </trkpt>
      <trkpt lat="43.42816" lon="2.45362">
        <ele>1135.94</ele>
        <time>2013-12-08T11:36:53Z</time>
      </trkpt>
      <trkpt lat="43.42817" lon="2.45374">
        <ele>1136.42</ele>
        <time>2013-12-08T11:37:03Z</time>
      </trkpt>
      <trkpt lat="43.42817" lon="2.45387">
        <ele>1137.38</ele>
        <time>2013-12-08T11:37:15Z</time>
      </trkpt>
      <trkpt lat="43.42819" lon="2.45399">
        <ele>1138.34</ele>
        <time>2013-12-08T11:37:27Z</time>
      </trkpt>
      <trkpt lat="43.4282" lon="2.45412">
        <ele>1139.3</ele>
        <time>2013-12-08T11:37:40Z</time>
      </trkpt>
      <trkpt lat="43.42823" lon="2.45427">
        <ele>1139.78</ele>
        <time>2013-12-08T11:37:54Z</time>
      </trkpt>
      <trkpt lat="43.42826" lon="2.4544">
        <ele>1140.74</ele>
        <time>2013-12-08T11:38:07Z</time>
      </trkpt>
      <trkpt lat="43.42831" lon="2.45454">
        <ele>1141.7</ele>
        <time>2013-12-08T11:38:22Z</time>
      </trkpt>
      <trkpt lat="43.42835" lon="2.45464">
        <ele>1142.66</ele>
        <time>2013-12-08T11:38:35Z</time>
      </trkpt>
      <trkpt lat="43.42837" lon="2.45477">
        <ele>1143.63</ele>
        <time>2013-12-08T11:38:50Z</time>
      </trkpt>
      <trkpt lat="43.42839" lon="2.45486">
        <ele>1144.11</ele>
        <time>2013-12-08T11:39:02Z</time>
      </trkpt>
      <trkpt lat="43.42842" lon="2.45499">
        <ele>1145.07</ele>
        <time>2013-12-08T11:39:18Z</time>
      </trkpt>
      <trkpt lat="43.42844" lon="2.45511">
        <ele>1146.99</ele>
        <time>2013-12-08T11:39:32Z</time>
      </trkpt>
      <trkpt lat="43.42846" lon="2.45522">
        <ele>1146.51</ele>
        <time>2013-12-08T11:39:44Z</time>
      </trkpt>
      <trkpt lat="43.42847" lon="2.45533">
        <ele>1147.95</ele>
        <time>2013-12-08T11:39:56Z</time>
      </trkpt>
      <trkpt lat="43.42851" lon="2.45548">
        <ele>1148.43</ele>
        <time>2013-12-08T11:40:10Z</time>
      </trkpt>
      <trkpt lat="43.42856" lon="2.45562">
        <ele>1148.91</ele>
        <time>2013-12-08T11:40:24Z</time>
      </trkpt>
      <trkpt lat="43.42861" lon="2.45573">
        <ele>1148.43</ele>
        <time>2013-12-08T11:40:38Z</time>
      </trkpt>
      <trkpt lat="43.42861" lon="2.45572">
        <ele>1148.91</ele>
        <time>2013-12-08T11:40:53Z</time>
      </trkpt>
      <trkpt lat="43.42861" lon="2.45572">
        <ele>1148.91</ele>
        <time>2013-12-08T11:41:08Z</time>
      </trkpt>
      <trkpt lat="43.42862" lon="2.45574">
        <ele>1148.43</ele>
        <time>2013-12-08T11:41:20Z</time>
      </trkpt>
      <trkpt lat="43.42863" lon="2.45576">
        <ele>1148.43</ele>
        <time>2013-12-08T11:41:37Z</time>
      </trkpt>
      <trkpt lat="43.42863" lon="2.45574">
        <ele>1149.39</ele>
        <time>2013-12-08T11:41:54Z</time>
      </trkpt>
      <trkpt lat="43.42863" lon="2.4558">
        <ele>1147.95</ele>
        <time>2013-12-08T11:42:06Z</time>
      </trkpt>
      <trkpt lat="43.42865" lon="2.4558">
        <ele>1147.95</ele>
        <time>2013-12-08T11:42:17Z</time>
      </trkpt>
      <trkpt lat="43.42864" lon="2.45578">
        <ele>1147.95</ele>
        <time>2013-12-08T11:42:40Z</time>
      </trkpt>
      <trkpt lat="43.42865" lon="2.45582">
        <ele>1147.95</ele>
        <time>2013-12-08T11:42:51Z</time>
      </trkpt>
      <trkpt lat="43.42865" lon="2.45582">
        <ele>1147.95</ele>
        <time>2013-12-08T11:43:12Z</time>
      </trkpt>
      <trkpt lat="43.42862" lon="2.45582">
        <ele>1148.43</ele>
        <time>2013-12-08T11:43:28Z</time>
      </trkpt>
      <trkpt lat="43.42865" lon="2.45584">
        <ele>1148.43</ele>
        <time>2013-12-08T11:43:46Z</time>
      </trkpt>
      <trkpt lat="43.42865" lon="2.45586">
        <ele>1147.95</ele>
        <time>2013-12-08T11:44:02Z</time>
      </trkpt>
      <trkpt lat="43.42864" lon="2.45585">
        <ele>1147.95</ele>
        <time>2013-12-08T11:44:25Z</time>
      </trkpt>
      <trkpt lat="43.42865" lon="2.45587">
        <ele>1147.47</ele>
        <time>2013-12-08T11:44:47Z</time>
      </trkpt>
      <trkpt lat="43.42867" lon="2.45595">
        <ele>1147.47</ele>
        <time>2013-12-08T11:45:03Z</time>
      </trkpt>
      <trkpt lat="43.42869" lon="2.45605">
        <ele>1148.43</ele>
        <time>2013-12-08T11:45:13Z</time>
      </trkpt>
      <trkpt lat="43.42871" lon="2.45619">
        <ele>1148.43</ele>
        <time>2013-12-08T11:45:25Z</time>
      </trkpt>
      <trkpt lat="43.42874" lon="2.45631">
        <ele>1147.95</ele>
        <time>2013-12-08T11:45:37Z</time>
      </trkpt>
      <trkpt lat="43.42872" lon="2.45637">
        <ele>1148.91</ele>
        <time>2013-12-08T11:45:49Z</time>
      </trkpt>
      <trkpt lat="43.42869" lon="2.4564">
        <ele>1149.39</ele>
        <time>2013-12-08T11:46:00Z</time>
      </trkpt>
      <trkpt lat="43.42869" lon="2.45638">
        <ele>1149.87</ele>
        <time>2013-12-08T11:46:15Z</time>
      </trkpt>
      <trkpt lat="43.42869" lon="2.45638">
        <ele>1149.87</ele>
        <time>2013-12-08T11:46:16Z</time>
      </trkpt>
      <trkpt lat="43.42866" lon="2.45641">
        <ele>1150.35</ele>
        <time>2013-12-08T11:46:28Z</time>
      </trkpt>
      <trkpt lat="43.42859" lon="2.45647">
        <ele>1151.32</ele>
        <time>2013-12-08T11:46:40Z</time>
      </trkpt>
      <trkpt lat="43.42848" lon="2.45654">
        <ele>1154.2</ele>
        <time>2013-12-08T11:46:56Z</time>
      </trkpt>
      <trkpt lat="43.42838" lon="2.45659">
        <ele>1155.16</ele>
        <time>2013-12-08T11:47:10Z</time>
      </trkpt>
      <trkpt lat="43.42837" lon="2.45661">
        <ele>1155.16</ele>
        <time>2013-12-08T11:47:21Z</time>
      </trkpt>
      <trkpt lat="43.42838" lon="2.4566">
        <ele>1155.64</ele>
        <time>2013-12-08T11:47:34Z</time>
      </trkpt>
      <trkpt lat="43.42837" lon="2.45661">
        <ele>1156.6</ele>
        <time>2013-12-08T11:47:53Z</time>
      </trkpt>
      <trkpt lat="43.4283" lon="2.45663">
        <ele>1156.6</ele>
        <time>2013-12-08T11:48:05Z</time>
      </trkpt>
      <trkpt lat="43.42822" lon="2.45668">
        <ele>1158.05</ele>
        <time>2013-12-08T11:48:18Z</time>
      </trkpt>
      <trkpt lat="43.42814" lon="2.45675">
        <ele>1158.05</ele>
        <time>2013-12-08T11:48:29Z</time>
      </trkpt>
      <trkpt lat="43.42806" lon="2.45684">
        <ele>1158.53</ele>
        <time>2013-12-08T11:48:40Z</time>
      </trkpt>
      <trkpt lat="43.42798" lon="2.45692">
        <ele>1159.01</ele>
        <time>2013-12-08T11:48:52Z</time>
      </trkpt>
      <trkpt lat="43.42795" lon="2.45697">
        <ele>1157.56</ele>
        <time>2013-12-08T11:49:03Z</time>
      </trkpt>
      <trkpt lat="43.42795" lon="2.45697">
        <ele>1153.24</ele>
        <time>2013-12-08T11:49:06Z</time>
      </trkpt>
      <trkpt lat="43.42794" lon="2.45697">
        <ele>1161.89</ele>
        <time>2013-12-08T11:49:07Z</time>
      </trkpt>
      <trkpt lat="43.42794" lon="2.45697">
        <ele>1158.05</ele>
        <time>2013-12-08T11:49:09Z</time>
      </trkpt>
      <trkpt lat="43.42794" lon="2.45697">
        <ele>1158.53</ele>
        <time>2013-12-08T11:49:10Z</time>
      </trkpt>
      <trkpt lat="43.42796" lon="2.45696">
        <ele>1159.01</ele>
        <time>2013-12-08T11:49:24Z</time>
      </trkpt>
      <trkpt lat="43.42796" lon="2.45699">
        <ele>1158.53</ele>
        <time>2013-12-08T11:49:41Z</time>
      </trkpt>
      <trkpt lat="43.42797" lon="2.45707">
        <ele>1159.01</ele>
        <time>2013-12-08T11:49:56Z</time>
      </trkpt>
      <trkpt lat="43.42796" lon="2.4571">
        <ele>1159.01</ele>
        <time>2013-12-08T11:50:00Z</time>
      </trkpt>
      <trkpt lat="43.42792" lon="2.45724">
        <ele>1159.49</ele>
        <time>2013-12-08T11:50:11Z</time>
      </trkpt>
      <trkpt lat="43.4279" lon="2.45734">
        <ele>1159.97</ele>
        <time>2013-12-08T11:50:21Z</time>
      </trkpt>
      <trkpt lat="43.42789" lon="2.45748">
        <ele>1160.45</ele>
        <time>2013-12-08T11:50:34Z</time>
      </trkpt>
      <trkpt lat="43.42788" lon="2.4576">
        <ele>1160.93</ele>
        <time>2013-12-08T11:50:46Z</time>
      </trkpt>
      <trkpt lat="43.42787" lon="2.45773">
        <ele>1161.89</ele>
        <time>2013-12-08T11:51:00Z</time>
      </trkpt>
      <trkpt lat="43.42786" lon="2.45784">
        <ele>1161.89</ele>
        <time>2013-12-08T11:51:12Z</time>
      </trkpt>
      <trkpt lat="43.42785" lon="2.45794">
        <ele>1163.33</ele>
        <time>2013-12-08T11:51:25Z</time>
      </trkpt>
      <trkpt lat="43.42783" lon="2.45806">
        <ele>1163.81</ele>
        <time>2013-12-08T11:51:37Z</time>
      </trkpt>
      <trkpt lat="43.42782" lon="2.45817">
        <ele>1164.77</ele>
        <time>2013-12-08T11:51:51Z</time>
      </trkpt>
      <trkpt lat="43.42781" lon="2.45828">
        <ele>1165.74</ele>
        <time>2013-12-08T11:52:03Z</time>
      </trkpt>
      <trkpt lat="43.42782" lon="2.45842">
        <ele>1166.7</ele>
        <time>2013-12-08T11:52:17Z</time>
      </trkpt>
      <trkpt lat="43.42781" lon="2.45853">
        <ele>1167.66</ele>
        <time>2013-12-08T11:52:30Z</time>
      </trkpt>
      <trkpt lat="43.42779" lon="2.45865">
        <ele>1168.14</ele>
        <time>2013-12-08T11:52:43Z</time>
      </trkpt>
      <trkpt lat="43.42777" lon="2.45876">
        <ele>1169.58</ele>
        <time>2013-12-08T11:52:57Z</time>
      </trkpt>
      <trkpt lat="43.42773" lon="2.45887">
        <ele>1170.54</ele>
        <time>2013-12-08T11:53:11Z</time>
      </trkpt>
      <trkpt lat="43.42769" lon="2.45898">
        <ele>1171.5</ele>
        <time>2013-12-08T11:53:23Z</time>
      </trkpt>
      <trkpt lat="43.42765" lon="2.45909">
        <ele>1172.47</ele>
        <time>2013-12-08T11:53:35Z</time>
      </trkpt>
      <trkpt lat="43.42761" lon="2.45918">
        <ele>1173.43</ele>
        <time>2013-12-08T11:53:46Z</time>
      </trkpt>
      <trkpt lat="43.4276" lon="2.4592">
        <ele>1173.43</ele>
        <time>2013-12-08T11:53:48Z</time>
      </trkpt>
      <trkpt lat="43.42754" lon="2.45928">
        <ele>1173.91</ele>
        <time>2013-12-08T11:53:59Z</time>
      </trkpt>
      <trkpt lat="43.42747" lon="2.45938">
        <ele>1174.87</ele>
        <time>2013-12-08T11:54:12Z</time>
      </trkpt>
      <trkpt lat="43.42741" lon="2.45946">
        <ele>1175.35</ele>
        <time>2013-12-08T11:54:23Z</time>
      </trkpt>
      <trkpt lat="43.42737" lon="2.45957">
        <ele>1176.79</ele>
        <time>2013-12-08T11:54:35Z</time>
      </trkpt>
      <trkpt lat="43.42736" lon="2.4596">
        <ele>1176.31</ele>
        <time>2013-12-08T11:54:38Z</time>
      </trkpt>
      <trkpt lat="43.42735" lon="2.45973">
        <ele>1177.27</ele>
        <time>2013-12-08T11:54:49Z</time>
      </trkpt>
      <trkpt lat="43.42733" lon="2.45983">
        <ele>1177.75</ele>
        <time>2013-12-08T11:55:01Z</time>
      </trkpt>
      <trkpt lat="43.42733" lon="2.45986">
        <ele>1177.75</ele>
        <time>2013-12-08T11:55:18Z</time>
      </trkpt>
      <trkpt lat="43.42727" lon="2.45992">
        <ele>1176.79</ele>
        <time>2013-12-08T11:55:29Z</time>
      </trkpt>
      <trkpt lat="43.42726" lon="2.45992">
        <ele>1180.16</ele>
        <time>2013-12-08T11:55:30Z</time>
      </trkpt>
      <trkpt lat="43.42726" lon="2.45993">
        <ele>1177.27</ele>
        <time>2013-12-08T11:55:31Z</time>
      </trkpt>
      <trkpt lat="43.42724" lon="2.45994">
        <ele>1179.19</ele>
        <time>2013-12-08T11:55:34Z</time>
      </trkpt>
      <trkpt lat="43.42717" lon="2.45998">
        <ele>1179.19</ele>
        <time>2013-12-08T11:55:46Z</time>
      </trkpt>
      <trkpt lat="43.42709" lon="2.46003">
        <ele>1180.16</ele>
        <time>2013-12-08T11:55:58Z</time>
      </trkpt>
      <trkpt lat="43.42701" lon="2.46007">
        <ele>1180.16</ele>
        <time>2013-12-08T11:56:11Z</time>
      </trkpt>
      <trkpt lat="43.42694" lon="2.4601">
        <ele>1181.12</ele>
        <time>2013-12-08T11:56:22Z</time>
      </trkpt>
      <trkpt lat="43.42685" lon="2.46013">
        <ele>1181.6</ele>
        <time>2013-12-08T11:56:34Z</time>
      </trkpt>
      <trkpt lat="43.42682" lon="2.46013">
        <ele>1182.08</ele>
        <time>2013-12-08T11:56:38Z</time>
      </trkpt>
      <trkpt lat="43.42674" lon="2.46015">
        <ele>1182.08</ele>
        <time>2013-12-08T11:56:48Z</time>
      </trkpt>
      <trkpt lat="43.42664" lon="2.46017">
        <ele>1182.56</ele>
        <time>2013-12-08T11:56:59Z</time>
      </trkpt>
      <trkpt lat="43.42658" lon="2.46025">
        <ele>1182.56</ele>
        <time>2013-12-08T11:57:13Z</time>
      </trkpt>
      <trkpt lat="43.42657" lon="2.46027">
        <ele>1182.56</ele>
        <time>2013-12-08T11:57:31Z</time>
      </trkpt>
      <trkpt lat="43.42655" lon="2.46033">
        <ele>1183.04</ele>
        <time>2013-12-08T11:57:44Z</time>
      </trkpt>
      <trkpt lat="43.42653" lon="2.46039">
        <ele>1183.52</ele>
        <time>2013-12-08T11:57:59Z</time>
      </trkpt>
      <trkpt lat="43.42649" lon="2.46052">
        <ele>1186.88</ele>
        <time>2013-12-08T11:58:12Z</time>
      </trkpt>
      <trkpt lat="43.42648" lon="2.46055">
        <ele>1186.88</ele>
        <time>2013-12-08T11:58:14Z</time>
      </trkpt>
      <trkpt lat="43.42643" lon="2.4606">
        <ele>1187.85</ele>
        <time>2013-12-08T11:58:25Z</time>
      </trkpt>
      <trkpt lat="43.42636" lon="2.46064">
        <ele>1187.85</ele>
        <time>2013-12-08T11:58:37Z</time>
      </trkpt>
      <trkpt lat="43.42627" lon="2.46067">
        <ele>1188.81</ele>
        <time>2013-12-08T11:58:50Z</time>
      </trkpt>
      <trkpt lat="43.42617" lon="2.46069">
        <ele>1189.29</ele>
        <time>2013-12-08T11:59:04Z</time>
      </trkpt>
      <trkpt lat="43.42606" lon="2.46069">
        <ele>1189.29</ele>
        <time>2013-12-08T11:59:17Z</time>
      </trkpt>
      <trkpt lat="43.42597" lon="2.46071">
        <ele>1190.25</ele>
        <time>2013-12-08T11:59:29Z</time>
      </trkpt>
      <trkpt lat="43.42588" lon="2.46077">
        <ele>1190.73</ele>
        <time>2013-12-08T11:59:43Z</time>
      </trkpt>
      <trkpt lat="43.42581" lon="2.46081">
        <ele>1191.21</ele>
        <time>2013-12-08T11:59:54Z</time>
      </trkpt>
      <trkpt lat="43.42573" lon="2.46086">
        <ele>1191.69</ele>
        <time>2013-12-08T12:00:06Z</time>
      </trkpt>
      <trkpt lat="43.42564" lon="2.4609">
        <ele>1191.69</ele>
        <time>2013-12-08T12:00:18Z</time>
      </trkpt>
      <trkpt lat="43.42556" lon="2.46094">
        <ele>1192.17</ele>
        <time>2013-12-08T12:00:30Z</time>
      </trkpt>
      <trkpt lat="43.42548" lon="2.46099">
        <ele>1193.13</ele>
        <time>2013-12-08T12:00:44Z</time>
      </trkpt>
      <trkpt lat="43.4254" lon="2.46102">
        <ele>1194.09</ele>
        <time>2013-12-08T12:00:55Z</time>
      </trkpt>
      <trkpt lat="43.4253" lon="2.46106">
        <ele>1194.58</ele>
        <time>2013-12-08T12:01:08Z</time>
      </trkpt>
      <trkpt lat="43.42522" lon="2.46113">
        <ele>1195.54</ele>
        <time>2013-12-08T12:01:22Z</time>
      </trkpt>
      <trkpt lat="43.42513" lon="2.46121">
        <ele>1196.5</ele>
        <time>2013-12-08T12:01:35Z</time>
      </trkpt>
      <trkpt lat="43.42509" lon="2.46126">
        <ele>1197.46</ele>
        <time>2013-12-08T12:01:45Z</time>
      </trkpt>
      <trkpt lat="43.42505" lon="2.46128">
        <ele>1197.94</ele>
        <time>2013-12-08T12:02:01Z</time>
      </trkpt>
      <trkpt lat="43.425" lon="2.46134">
        <ele>1199.38</ele>
        <time>2013-12-08T12:02:13Z</time>
      </trkpt>
      <trkpt lat="43.42497" lon="2.46138">
        <ele>1199.86</ele>
        <time>2013-12-08T12:02:22Z</time>
      </trkpt>
      <trkpt lat="43.42489" lon="2.46145">
        <ele>1200.82</ele>
        <time>2013-12-08T12:02:34Z</time>
      </trkpt>
      <trkpt lat="43.42482" lon="2.4615">
        <ele>1201.79</ele>
        <time>2013-12-08T12:02:46Z</time>
      </trkpt>
      <trkpt lat="43.42474" lon="2.46157">
        <ele>1202.27</ele>
        <time>2013-12-08T12:03:00Z</time>
      </trkpt>
      <trkpt lat="43.42467" lon="2.46165">
        <ele>1204.19</ele>
        <time>2013-12-08T12:03:14Z</time>
      </trkpt>
      <trkpt lat="43.42463" lon="2.46173">
        <ele>1204.67</ele>
        <time>2013-12-08T12:03:28Z</time>
      </trkpt>
      <trkpt lat="43.42457" lon="2.46181">
        <ele>1205.63</ele>
        <time>2013-12-08T12:03:42Z</time>
      </trkpt>
      <trkpt lat="43.4245" lon="2.46188">
        <ele>1206.59</ele>
        <time>2013-12-08T12:03:56Z</time>
      </trkpt>
      <trkpt lat="43.42445" lon="2.46195">
        <ele>1207.07</ele>
        <time>2013-12-08T12:04:08Z</time>
      </trkpt>
      <trkpt lat="43.42439" lon="2.46204">
        <ele>1207.55</ele>
        <time>2013-12-08T12:04:21Z</time>
      </trkpt>
      <trkpt lat="43.42433" lon="2.46212">
        <ele>1208.51</ele>
        <time>2013-12-08T12:04:34Z</time>
      </trkpt>
      <trkpt lat="43.42428" lon="2.46217">
        <ele>1209</ele>
        <time>2013-12-08T12:04:45Z</time>
      </trkpt>
      <trkpt lat="43.42422" lon="2.46225">
        <ele>1209.96</ele>
        <time>2013-12-08T12:04:59Z</time>
      </trkpt>
      <trkpt lat="43.42423" lon="2.46226">
        <ele>1209.96</ele>
        <time>2013-12-08T12:05:18Z</time>
      </trkpt>
      <trkpt lat="43.42422" lon="2.46225">
        <ele>1209.96</ele>
        <time>2013-12-08T12:05:30Z</time>
      </trkpt>
      <trkpt lat="43.42424" lon="2.46223">
        <ele>1209.96</ele>
        <time>2013-12-08T12:05:50Z</time>
      </trkpt>
      <trkpt lat="43.42427" lon="2.46225">
        <ele>1209.96</ele>
        <time>2013-12-08T12:06:14Z</time>
      </trkpt>
      <trkpt lat="43.42417" lon="2.46226">
        <ele>1209.96</ele>
        <time>2013-12-08T12:06:31Z</time>
      </trkpt>
      <trkpt lat="43.42409" lon="2.46234">
        <ele>1209.96</ele>
        <time>2013-12-08T12:06:43Z</time>
      </trkpt>
      <trkpt lat="43.42408" lon="2.46235">
        <ele>1209.96</ele>
        <time>2013-12-08T12:06:44Z</time>
      </trkpt>
      <trkpt lat="43.424" lon="2.46246">
        <ele>1209.96</ele>
        <time>2013-12-08T12:06:57Z</time>
      </trkpt>
      <trkpt lat="43.42395" lon="2.46253">
        <ele>1210.44</ele>
        <time>2013-12-08T12:07:07Z</time>
      </trkpt>
      <trkpt lat="43.42394" lon="2.46256">
        <ele>1210.44</ele>
        <time>2013-12-08T12:07:19Z</time>
      </trkpt>
      <trkpt lat="43.42397" lon="2.46255">
        <ele>1209.96</ele>
        <time>2013-12-08T12:07:28Z</time>
      </trkpt>
      <trkpt lat="43.42398" lon="2.46252">
        <ele>1210.44</ele>
        <time>2013-12-08T12:07:39Z</time>
      </trkpt>
      <trkpt lat="43.42398" lon="2.46252">
        <ele>1210.44</ele>
        <time>2013-12-08T12:07:52Z</time>
      </trkpt>
      <trkpt lat="43.424" lon="2.46251">
        <ele>1209.96</ele>
        <time>2013-12-08T12:08:08Z</time>
      </trkpt>
      <trkpt lat="43.42398" lon="2.4625">
        <ele>1210.44</ele>
        <time>2013-12-08T12:08:39Z</time>
      </trkpt>
      <trkpt lat="43.42396" lon="2.46249">
        <ele>1210.92</ele>
        <time>2013-12-08T12:09:06Z</time>
      </trkpt>
      <trkpt lat="43.42397" lon="2.4625">
        <ele>1210.44</ele>
        <time>2013-12-08T12:09:29Z</time>
      </trkpt>
      <trkpt lat="43.42398" lon="2.4625">
        <ele>1210.44</ele>
        <time>2013-12-08T12:09:55Z</time>
      </trkpt>
      <trkpt lat="43.42398" lon="2.46252">
        <ele>1210.44</ele>
        <time>2013-12-08T12:10:18Z</time>
      </trkpt>
      <trkpt lat="43.42397" lon="2.46253">
        <ele>1209.96</ele>
        <time>2013-12-08T12:10:45Z</time>
      </trkpt>
      <trkpt lat="43.42396" lon="2.46249">
        <ele>1210.92</ele>
        <time>2013-12-08T12:11:13Z</time>
      </trkpt>
      <trkpt lat="43.42395" lon="2.4625">
        <ele>1210.44</ele>
        <time>2013-12-08T12:11:36Z</time>
      </trkpt>
      <trkpt lat="43.42397" lon="2.46254">
        <ele>1210.44</ele>
        <time>2013-12-08T12:12:09Z</time>
      </trkpt>
      <trkpt lat="43.42396" lon="2.46252">
        <ele>1210.44</ele>
        <time>2013-12-08T12:12:41Z</time>
      </trkpt>
      <trkpt lat="43.42396" lon="2.46253">
        <ele>1211.4</ele>
        <time>2013-12-08T12:13:18Z</time>
      </trkpt>
      <trkpt lat="43.42395" lon="2.46253">
        <ele>1210.92</ele>
        <time>2013-12-08T12:13:54Z</time>
      </trkpt>
      <trkpt lat="43.42396" lon="2.46254">
        <ele>1210.92</ele>
        <time>2013-12-08T12:14:32Z</time>
      </trkpt>
      <trkpt lat="43.42397" lon="2.46254">
        <ele>1210.92</ele>
        <time>2013-12-08T12:15:09Z</time>
      </trkpt>
      <trkpt lat="43.42396" lon="2.46255">
        <ele>1211.4</ele>
        <time>2013-12-08T12:15:47Z</time>
      </trkpt>
      <trkpt lat="43.42396" lon="2.46254">
        <ele>1211.4</ele>
        <time>2013-12-08T12:16:23Z</time>
      </trkpt>
      <trkpt lat="43.42397" lon="2.46254">
        <ele>1211.4</ele>
        <time>2013-12-08T12:16:52Z</time>
      </trkpt>
      <trkpt lat="43.42397" lon="2.46253">
        <ele>1211.4</ele>
        <time>2013-12-08T12:17:22Z</time>
      </trkpt>
      <trkpt lat="43.42395" lon="2.46256">
        <ele>1211.4</ele>
        <time>2013-12-08T12:17:52Z</time>
      </trkpt>
      <trkpt lat="43.42396" lon="2.46255">
        <ele>1211.4</ele>
        <time>2013-12-08T12:18:18Z</time>
      </trkpt>
      <trkpt lat="43.42395" lon="2.46256">
        <ele>1211.4</ele>
        <time>2013-12-08T12:18:49Z</time>
      </trkpt>
      <trkpt lat="43.42395" lon="2.46257">
        <ele>1211.88</ele>
        <time>2013-12-08T12:19:14Z</time>
      </trkpt>
      <trkpt lat="43.42395" lon="2.46254">
        <ele>1211.88</ele>
        <time>2013-12-08T12:19:42Z</time>
      </trkpt>
      <trkpt lat="43.42398" lon="2.46253">
        <ele>1211.4</ele>
        <time>2013-12-08T12:20:15Z</time>
      </trkpt>
      <trkpt lat="43.42397" lon="2.46252">
        <ele>1211.4</ele>
        <time>2013-12-08T12:20:40Z</time>
      </trkpt>
      <trkpt lat="43.42398" lon="2.46253">
        <ele>1211.4</ele>
        <time>2013-12-08T12:21:07Z</time>
      </trkpt>
      <trkpt lat="43.42396" lon="2.46253">
        <ele>1211.4</ele>
        <time>2013-12-08T12:21:36Z</time>
      </trkpt>
      <trkpt lat="43.42396" lon="2.46253">
        <ele>1211.4</ele>
        <time>2013-12-08T12:22:02Z</time>
      </trkpt>
      <trkpt lat="43.42396" lon="2.46252">
        <ele>1210.92</ele>
        <time>2013-12-08T12:22:38Z</time>
      </trkpt>
      <trkpt lat="43.42396" lon="2.46253">
        <ele>1211.88</ele>
        <time>2013-12-08T12:23:08Z</time>
      </trkpt>
      <trkpt lat="43.42396" lon="2.46252">
        <ele>1211.4</ele>
        <time>2013-12-08T12:23:44Z</time>
      </trkpt>
      <trkpt lat="43.42396" lon="2.46253">
        <ele>1211.4</ele>
        <time>2013-12-08T12:24:15Z</time>
      </trkpt>
      <trkpt lat="43.42396" lon="2.46252">
        <ele>1210.92</ele>
        <time>2013-12-08T12:24:42Z</time>
      </trkpt>
      <trkpt lat="43.42397" lon="2.46251">
        <ele>1211.4</ele>
        <time>2013-12-08T12:25:01Z</time>
      </trkpt>
      <trkpt lat="43.42396" lon="2.46251">
        <ele>1211.4</ele>
        <time>2013-12-08T12:25:35Z</time>
      </trkpt>
      <trkpt lat="43.42396" lon="2.46252">
        <ele>1211.4</ele>
        <time>2013-12-08T12:26:05Z</time>
      </trkpt>
      <trkpt lat="43.42395" lon="2.46252">
        <ele>1211.4</ele>
        <time>2013-12-08T12:26:37Z</time>
      </trkpt>
      <trkpt lat="43.42395" lon="2.46251">
        <ele>1211.4</ele>
        <time>2013-12-08T12:27:04Z</time>
      </trkpt>
      <trkpt lat="43.42395" lon="2.46251">
        <ele>1211.88</ele>
        <time>2013-12-08T12:27:33Z</time>
      </trkpt>
      <trkpt lat="43.42395" lon="2.46251">
        <ele>1211.4</ele>
        <time>2013-12-08T12:28:03Z</time>
      </trkpt>
      <trkpt lat="43.42396" lon="2.4625">
        <ele>1211.88</ele>
        <time>2013-12-08T12:28:38Z</time>
      </trkpt>
      <trkpt lat="43.42395" lon="2.46251">
        <ele>1211.88</ele>
        <time>2013-12-08T12:29:01Z</time>
      </trkpt>
      <trkpt lat="43.42394" lon="2.4625">
        <ele>1212.36</ele>
        <time>2013-12-08T12:29:34Z</time>
      </trkpt>
      <trkpt lat="43.42396" lon="2.46251">
        <ele>1211.88</ele>
        <time>2013-12-08T12:30:00Z</time>
      </trkpt>
      <trkpt lat="43.42396" lon="2.46252">
        <ele>1211.88</ele>
        <time>2013-12-08T12:30:33Z</time>
      </trkpt>
      <trkpt lat="43.42394" lon="2.46252">
        <ele>1211.88</ele>
        <time>2013-12-08T12:31:09Z</time>
      </trkpt>
      <trkpt lat="43.42395" lon="2.46253">
        <ele>1211.88</ele>
        <time>2013-12-08T12:31:36Z</time>
      </trkpt>
      <trkpt lat="43.42394" lon="2.46251">
        <ele>1211.88</ele>
        <time>2013-12-08T12:32:03Z</time>
      </trkpt>
      <trkpt lat="43.42395" lon="2.46251">
        <ele>1211.88</ele>
        <time>2013-12-08T12:32:36Z</time>
      </trkpt>
      <trkpt lat="43.42395" lon="2.46251">
        <ele>1211.88</ele>
        <time>2013-12-08T12:33:04Z</time>
      </trkpt>
      <trkpt lat="43.42394" lon="2.46251">
        <ele>1212.36</ele>
        <time>2013-12-08T12:33:27Z</time>
      </trkpt>
      <trkpt lat="43.42393" lon="2.46255">
        <ele>1212.84</ele>
        <time>2013-12-08T12:33:47Z</time>
      </trkpt>
      <trkpt lat="43.42395" lon="2.46253">
        <ele>1211.88</ele>
        <time>2013-12-08T12:34:15Z</time>
      </trkpt>
      <trkpt lat="43.42395" lon="2.46253">
        <ele>1211.88</ele>
        <time>2013-12-08T12:34:42Z</time>
      </trkpt>
      <trkpt lat="43.42395" lon="2.46253">
        <ele>1211.88</ele>
        <time>2013-12-08T12:35:10Z</time>
      </trkpt>
      <trkpt lat="43.42396" lon="2.46253">
        <ele>1212.36</ele>
        <time>2013-12-08T12:35:41Z</time>
      </trkpt>
      <trkpt lat="43.42394" lon="2.46254">
        <ele>1211.88</ele>
        <time>2013-12-08T12:36:13Z</time>
      </trkpt>
      <trkpt lat="43.42396" lon="2.46254">
        <ele>1211.88</ele>
        <time>2013-12-08T12:36:40Z</time>
      </trkpt>
      <trkpt lat="43.42395" lon="2.46254">
        <ele>1211.88</ele>
        <time>2013-12-08T12:37:06Z</time>
      </trkpt>
      <trkpt lat="43.42396" lon="2.46255">
        <ele>1211.88</ele>
        <time>2013-12-08T12:37:35Z</time>
      </trkpt>
      <trkpt lat="43.42396" lon="2.46255">
        <ele>1211.88</ele>
        <time>2013-12-08T12:38:04Z</time>
      </trkpt>
      <trkpt lat="43.42396" lon="2.46254">
        <ele>1212.36</ele>
        <time>2013-12-08T12:38:32Z</time>
      </trkpt>
      <trkpt lat="43.42397" lon="2.46255">
        <ele>1211.4</ele>
        <time>2013-12-08T12:38:54Z</time>
      </trkpt>
      <trkpt lat="43.42397" lon="2.46255">
        <ele>1211.4</ele>
        <time>2013-12-08T12:39:16Z</time>
      </trkpt>
      <trkpt lat="43.42397" lon="2.46254">
        <ele>1211.4</ele>
        <time>2013-12-08T12:39:36Z</time>
      </trkpt>
      <trkpt lat="43.42396" lon="2.46255">
        <ele>1211.88</ele>
        <time>2013-12-08T12:40:05Z</time>
      </trkpt>
      <trkpt lat="43.42396" lon="2.46257">
        <ele>1211.88</ele>
        <time>2013-12-08T12:40:24Z</time>
      </trkpt>
      <trkpt lat="43.42395" lon="2.46259">
        <ele>1210.44</ele>
        <time>2013-12-08T12:40:29Z</time>
      </trkpt>
      <trkpt lat="43.42395" lon="2.46255">
        <ele>1211.88</ele>
        <time>2013-12-08T12:40:36Z</time>
      </trkpt>
      <trkpt lat="43.42396" lon="2.46255">
        <ele>1211.4</ele>
        <time>2013-12-08T12:40:46Z</time>
      </trkpt>
      <trkpt lat="43.42397" lon="2.46257">
        <ele>1211.88</ele>
        <time>2013-12-08T12:40:55Z</time>
      </trkpt>
      <trkpt lat="43.42396" lon="2.46255">
        <ele>1211.4</ele>
        <time>2013-12-08T12:41:08Z</time>
      </trkpt>
      <trkpt lat="43.42396" lon="2.46255">
        <ele>1212.36</ele>
        <time>2013-12-08T12:41:20Z</time>
      </trkpt>
      <trkpt lat="43.42396" lon="2.46258">
        <ele>1212.36</ele>
        <time>2013-12-08T12:41:32Z</time>
      </trkpt>
      <trkpt lat="43.42397" lon="2.46252">
        <ele>1211.88</ele>
        <time>2013-12-08T12:41:48Z</time>
      </trkpt>
      <trkpt lat="43.42393" lon="2.46254">
        <ele>1211.88</ele>
        <time>2013-12-08T12:41:57Z</time>
      </trkpt>
      <trkpt lat="43.42395" lon="2.46256">
        <ele>1207.07</ele>
        <time>2013-12-08T12:42:10Z</time>
      </trkpt>
      <trkpt lat="43.42395" lon="2.46256">
        <ele>1213.8</ele>
        <time>2013-12-08T12:42:11Z</time>
      </trkpt>
      <trkpt lat="43.42394" lon="2.46264">
        <ele>1211.88</ele>
        <time>2013-12-08T12:42:24Z</time>
      </trkpt>
      <trkpt lat="43.42395" lon="2.46269">
        <ele>1211.4</ele>
        <time>2013-12-08T12:42:30Z</time>
      </trkpt>
      <trkpt lat="43.42396" lon="2.46288">
        <ele>1213.32</ele>
        <time>2013-12-08T12:42:43Z</time>
      </trkpt>
      <trkpt lat="43.42403" lon="2.46303">
        <ele>1212.36</ele>
        <time>2013-12-08T12:42:57Z</time>
      </trkpt>
      <trkpt lat="43.42405" lon="2.46304">
        <ele>1211.88</ele>
        <time>2013-12-08T12:42:59Z</time>
      </trkpt>
      <trkpt lat="43.42409" lon="2.46304">
        <ele>1212.84</ele>
        <time>2013-12-08T12:43:06Z</time>
      </trkpt>
      <trkpt lat="43.42412" lon="2.46307">
        <ele>1211.4</ele>
        <time>2013-12-08T12:43:14Z</time>
      </trkpt>
      <trkpt lat="43.42417" lon="2.46317">
        <ele>1211.88</ele>
        <time>2013-12-08T12:43:25Z</time>
      </trkpt>
      <trkpt lat="43.42419" lon="2.46334">
        <ele>1211.88</ele>
        <time>2013-12-08T12:43:38Z</time>
      </trkpt>
      <trkpt lat="43.42418" lon="2.46344">
        <ele>1209</ele>
        <time>2013-12-08T12:43:46Z</time>
      </trkpt>
      <trkpt lat="43.42417" lon="2.46345">
        <ele>1211.88</ele>
        <time>2013-12-08T12:43:49Z</time>
      </trkpt>
      <trkpt lat="43.42414" lon="2.46358">
        <ele>1209.48</ele>
        <time>2013-12-08T12:44:00Z</time>
      </trkpt>
      <trkpt lat="43.42414" lon="2.4636">
        <ele>1209.48</ele>
        <time>2013-12-08T12:44:15Z</time>
      </trkpt>
      <trkpt lat="43.42414" lon="2.46361">
        <ele>1208.51</ele>
        <time>2013-12-08T12:44:28Z</time>
      </trkpt>
      <trkpt lat="43.42414" lon="2.4636">
        <ele>1209</ele>
        <time>2013-12-08T12:44:48Z</time>
      </trkpt>
      <trkpt lat="43.42411" lon="2.46357">
        <ele>1209.48</ele>
        <time>2013-12-08T12:44:57Z</time>
      </trkpt>
      <trkpt lat="43.42408" lon="2.46356">
        <ele>1209</ele>
        <time>2013-12-08T12:45:00Z</time>
      </trkpt>
      <trkpt lat="43.42395" lon="2.46358">
        <ele>1207.55</ele>
        <time>2013-12-08T12:45:13Z</time>
      </trkpt>
      <trkpt lat="43.42388" lon="2.46359">
        <ele>1207.07</ele>
        <time>2013-12-08T12:45:23Z</time>
      </trkpt>
      <trkpt lat="43.42376" lon="2.46359">
        <ele>1204.67</ele>
        <time>2013-12-08T12:45:37Z</time>
      </trkpt>
      <trkpt lat="43.42361" lon="2.46362">
        <ele>1202.27</ele>
        <time>2013-12-08T12:45:50Z</time>
      </trkpt>
      <trkpt lat="43.42349" lon="2.46367">
        <ele>1200.34</ele>
        <time>2013-12-08T12:46:01Z</time>
      </trkpt>
      <trkpt lat="43.42342" lon="2.46374">
        <ele>1197.94</ele>
        <time>2013-12-08T12:46:13Z</time>
      </trkpt>
      <trkpt lat="43.42341" lon="2.46378">
        <ele>1197.46</ele>
        <time>2013-12-08T12:46:26Z</time>
      </trkpt>
      <trkpt lat="43.42339" lon="2.46375">
        <ele>1197.46</ele>
        <time>2013-12-08T12:46:45Z</time>
      </trkpt>
      <trkpt lat="43.42326" lon="2.46384">
        <ele>1194.58</ele>
        <time>2013-12-08T12:46:58Z</time>
      </trkpt>
      <trkpt lat="43.4232" lon="2.46391">
        <ele>1193.13</ele>
        <time>2013-12-08T12:47:10Z</time>
      </trkpt>
      <trkpt lat="43.4232" lon="2.4639">
        <ele>1193.13</ele>
        <time>2013-12-08T12:47:20Z</time>
      </trkpt>
      <trkpt lat="43.4232" lon="2.46389">
        <ele>1192.65</ele>
        <time>2013-12-08T12:47:46Z</time>
      </trkpt>
      <trkpt lat="43.4232" lon="2.46387">
        <ele>1192.17</ele>
        <time>2013-12-08T12:48:08Z</time>
      </trkpt>
      <trkpt lat="43.42312" lon="2.46393">
        <ele>1190.73</ele>
        <time>2013-12-08T12:48:14Z</time>
      </trkpt>
      <trkpt lat="43.42301" lon="2.46403">
        <ele>1187.85</ele>
        <time>2013-12-08T12:48:22Z</time>
      </trkpt>
      <trkpt lat="43.4229" lon="2.46412">
        <ele>1184.96</ele>
        <time>2013-12-08T12:48:30Z</time>
      </trkpt>
      <trkpt lat="43.42281" lon="2.46418">
        <ele>1182.56</ele>
        <time>2013-12-08T12:48:36Z</time>
      </trkpt>
      <trkpt lat="43.42271" lon="2.46423">
        <ele>1179.19</ele>
        <time>2013-12-08T12:48:42Z</time>
      </trkpt>
      <trkpt lat="43.4226" lon="2.46429">
        <ele>1175.83</ele>
        <time>2013-12-08T12:48:50Z</time>
      </trkpt>
      <trkpt lat="43.42259" lon="2.46429">
        <ele>1175.83</ele>
        <time>2013-12-08T12:48:51Z</time>
      </trkpt>
      <trkpt lat="43.4225" lon="2.46435">
        <ele>1172.47</ele>
        <time>2013-12-08T12:48:59Z</time>
      </trkpt>
      <trkpt lat="43.42238" lon="2.4644">
        <ele>1169.58</ele>
        <time>2013-12-08T12:49:10Z</time>
      </trkpt>
      <trkpt lat="43.42226" lon="2.46438">
        <ele>1166.22</ele>
        <time>2013-12-08T12:49:21Z</time>
      </trkpt>
      <trkpt lat="43.42213" lon="2.46436">
        <ele>1163.81</ele>
        <time>2013-12-08T12:49:33Z</time>
      </trkpt>
      <trkpt lat="43.42212" lon="2.46439">
        <ele>1163.33</ele>
        <time>2013-12-08T12:49:35Z</time>
      </trkpt>
      <trkpt lat="43.42212" lon="2.46441">
        <ele>1162.85</ele>
        <time>2013-12-08T12:49:36Z</time>
      </trkpt>
      <trkpt lat="43.42211" lon="2.46443">
        <ele>1163.33</ele>
        <time>2013-12-08T12:49:37Z</time>
      </trkpt>
      <trkpt lat="43.42206" lon="2.46441">
        <ele>1161.89</ele>
        <time>2013-12-08T12:49:46Z</time>
      </trkpt>
      <trkpt lat="43.42198" lon="2.46436">
        <ele>1159.97</ele>
        <time>2013-12-08T12:49:55Z</time>
      </trkpt>
      <trkpt lat="43.42191" lon="2.46433">
        <ele>1159.49</ele>
        <time>2013-12-08T12:50:07Z</time>
      </trkpt>
      <trkpt lat="43.42186" lon="2.46433">
        <ele>1157.56</ele>
        <time>2013-12-08T12:50:18Z</time>
      </trkpt>
      <trkpt lat="43.42178" lon="2.46427">
        <ele>1155.64</ele>
        <time>2013-12-08T12:50:30Z</time>
      </trkpt>
      <trkpt lat="43.42171" lon="2.46424">
        <ele>1154.2</ele>
        <time>2013-12-08T12:50:41Z</time>
      </trkpt>
      <trkpt lat="43.42164" lon="2.4642">
        <ele>1152.28</ele>
        <time>2013-12-08T12:50:52Z</time>
      </trkpt>
      <trkpt lat="43.42161" lon="2.46419">
        <ele>1151.8</ele>
        <time>2013-12-08T12:51:04Z</time>
      </trkpt>
      <trkpt lat="43.42158" lon="2.46419">
        <ele>1151.32</ele>
        <time>2013-12-08T12:51:13Z</time>
      </trkpt>
      <trkpt lat="43.42151" lon="2.46415">
        <ele>1149.87</ele>
        <time>2013-12-08T12:51:23Z</time>
      </trkpt>
      <trkpt lat="43.42146" lon="2.46413">
        <ele>1149.39</ele>
        <time>2013-12-08T12:51:28Z</time>
      </trkpt>
      <trkpt lat="43.42136" lon="2.4641">
        <ele>1146.51</ele>
        <time>2013-12-08T12:51:38Z</time>
      </trkpt>
      <trkpt lat="43.42128" lon="2.46404">
        <ele>1144.59</ele>
        <time>2013-12-08T12:51:49Z</time>
      </trkpt>
      <trkpt lat="43.42126" lon="2.46403">
        <ele>1145.07</ele>
        <time>2013-12-08T12:51:51Z</time>
      </trkpt>
      <trkpt lat="43.42116" lon="2.46396">
        <ele>1143.14</ele>
        <time>2013-12-08T12:52:01Z</time>
      </trkpt>
      <trkpt lat="43.42103" lon="2.46394">
        <ele>1140.26</ele>
        <time>2013-12-08T12:52:10Z</time>
      </trkpt>
      <trkpt lat="43.42101" lon="2.46393">
        <ele>1140.26</ele>
        <time>2013-12-08T12:52:14Z</time>
      </trkpt>
      <trkpt lat="43.42099" lon="2.46393">
        <ele>1140.26</ele>
        <time>2013-12-08T12:52:15Z</time>
      </trkpt>
      <trkpt lat="43.42098" lon="2.46392">
        <ele>1139.78</ele>
        <time>2013-12-08T12:52:16Z</time>
      </trkpt>
      <trkpt lat="43.42097" lon="2.46392">
        <ele>1139.3</ele>
        <time>2013-12-08T12:52:17Z</time>
      </trkpt>
      <trkpt lat="43.42095" lon="2.46392">
        <ele>1138.82</ele>
        <time>2013-12-08T12:52:18Z</time>
      </trkpt>
      <trkpt lat="43.42095" lon="2.46392">
        <ele>1138.82</ele>
        <time>2013-12-08T12:52:19Z</time>
      </trkpt>
      <trkpt lat="43.42092" lon="2.46391">
        <ele>1137.38</ele>
        <time>2013-12-08T12:52:21Z</time>
      </trkpt>
      <trkpt lat="43.42082" lon="2.46385">
        <ele>1136.42</ele>
        <time>2013-12-08T12:52:33Z</time>
      </trkpt>
      <trkpt lat="43.42079" lon="2.46383">
        <ele>1136.9</ele>
        <time>2013-12-08T12:52:44Z</time>
      </trkpt>
      <trkpt lat="43.4208" lon="2.46382">
        <ele>1135.45</ele>
        <time>2013-12-08T12:52:53Z</time>
      </trkpt>
      <trkpt lat="43.42075" lon="2.46382">
        <ele>1134.49</ele>
        <time>2013-12-08T12:53:09Z</time>
      </trkpt>
      <trkpt lat="43.42069" lon="2.46384">
        <ele>1134.97</ele>
        <time>2013-12-08T12:53:20Z</time>
      </trkpt>
      <trkpt lat="43.42071" lon="2.46387">
        <ele>1134.97</ele>
        <time>2013-12-08T12:53:38Z</time>
      </trkpt>
      <trkpt lat="43.4206" lon="2.46386">
        <ele>1134.97</ele>
        <time>2013-12-08T12:53:47Z</time>
      </trkpt>
      <trkpt lat="43.42056" lon="2.46387">
        <ele>1134.01</ele>
        <time>2013-12-08T12:53:59Z</time>
      </trkpt>
      <trkpt lat="43.42055" lon="2.46386">
        <ele>1134.49</ele>
        <time>2013-12-08T12:54:03Z</time>
      </trkpt>
      <trkpt lat="43.42054" lon="2.46385">
        <ele>1133.53</ele>
        <time>2013-12-08T12:54:04Z</time>
      </trkpt>
      <trkpt lat="43.42042" lon="2.4638">
        <ele>1132.57</ele>
        <time>2013-12-08T12:54:15Z</time>
      </trkpt>
      <trkpt lat="43.4204" lon="2.4638">
        <ele>1132.57</ele>
        <time>2013-12-08T12:54:18Z</time>
      </trkpt>
      <trkpt lat="43.42039" lon="2.4638">
        <ele>1133.05</ele>
        <time>2013-12-08T12:54:19Z</time>
      </trkpt>
      <trkpt lat="43.42037" lon="2.4638">
        <ele>1132.09</ele>
        <time>2013-12-08T12:54:20Z</time>
      </trkpt>
      <trkpt lat="43.42023" lon="2.46372">
        <ele>1130.65</ele>
        <time>2013-12-08T12:54:33Z</time>
      </trkpt>
      <trkpt lat="43.42011" lon="2.46363">
        <ele>1130.17</ele>
        <time>2013-12-08T12:54:44Z</time>
      </trkpt>
      <trkpt lat="43.41998" lon="2.46354">
        <ele>1127.76</ele>
        <time>2013-12-08T12:54:58Z</time>
      </trkpt>
      <trkpt lat="43.41984" lon="2.46343">
        <ele>1126.8</ele>
        <time>2013-12-08T12:55:12Z</time>
      </trkpt>
      <trkpt lat="43.41974" lon="2.46336">
        <ele>1125.36</ele>
        <time>2013-12-08T12:55:23Z</time>
      </trkpt>
      <trkpt lat="43.41959" lon="2.46324">
        <ele>1123.92</ele>
        <time>2013-12-08T12:55:38Z</time>
      </trkpt>
      <trkpt lat="43.41955" lon="2.46323">
        <ele>1123.44</ele>
        <time>2013-12-08T12:55:44Z</time>
      </trkpt>
      <trkpt lat="43.41954" lon="2.46322">
        <ele>1123.44</ele>
        <time>2013-12-08T12:55:45Z</time>
      </trkpt>
      <trkpt lat="43.41953" lon="2.46321">
        <ele>1123.92</ele>
        <time>2013-12-08T12:55:46Z</time>
      </trkpt>
      <trkpt lat="43.41952" lon="2.4632">
        <ele>1123.92</ele>
        <time>2013-12-08T12:55:47Z</time>
      </trkpt>
      <trkpt lat="43.41951" lon="2.46319">
        <ele>1123.44</ele>
        <time>2013-12-08T12:55:48Z</time>
      </trkpt>
      <trkpt lat="43.4195" lon="2.46318">
        <ele>1123.44</ele>
        <time>2013-12-08T12:55:49Z</time>
      </trkpt>
      <trkpt lat="43.41938" lon="2.46308">
        <ele>1122</ele>
        <time>2013-12-08T12:56:01Z</time>
      </trkpt>
      <trkpt lat="43.41923" lon="2.46297">
        <ele>1120.55</ele>
        <time>2013-12-08T12:56:16Z</time>
      </trkpt>
      <trkpt lat="43.41911" lon="2.46285">
        <ele>1119.11</ele>
        <time>2013-12-08T12:56:28Z</time>
      </trkpt>
      <trkpt lat="43.419" lon="2.46269">
        <ele>1117.67</ele>
        <time>2013-12-08T12:56:42Z</time>
      </trkpt>
      <trkpt lat="43.41895" lon="2.46252">
        <ele>1116.23</ele>
        <time>2013-12-08T12:56:55Z</time>
      </trkpt>
      <trkpt lat="43.41892" lon="2.46231">
        <ele>1114.79</ele>
        <time>2013-12-08T12:57:09Z</time>
      </trkpt>
      <trkpt lat="43.41889" lon="2.4621">
        <ele>1113.82</ele>
        <time>2013-12-08T12:57:22Z</time>
      </trkpt>
      <trkpt lat="43.41886" lon="2.46188">
        <ele>1112.38</ele>
        <time>2013-12-08T12:57:35Z</time>
      </trkpt>
      <trkpt lat="43.41882" lon="2.46167">
        <ele>1110.94</ele>
        <time>2013-12-08T12:57:49Z</time>
      </trkpt>
      <trkpt lat="43.4188" lon="2.46149">
        <ele>1109.5</ele>
        <time>2013-12-08T12:58:01Z</time>
      </trkpt>
      <trkpt lat="43.41881" lon="2.46148">
        <ele>1109.98</ele>
        <time>2013-12-08T12:58:02Z</time>
      </trkpt>
      <trkpt lat="43.41879" lon="2.46133">
        <ele>1108.06</ele>
        <time>2013-12-08T12:58:14Z</time>
      </trkpt>
      <trkpt lat="43.41871" lon="2.46128">
        <ele>1106.61</ele>
        <time>2013-12-08T12:58:22Z</time>
      </trkpt>
      <trkpt lat="43.41859" lon="2.46115">
        <ele>1104.21</ele>
        <time>2013-12-08T12:58:35Z</time>
      </trkpt>
      <trkpt lat="43.41857" lon="2.46112">
        <ele>1102.77</ele>
        <time>2013-12-08T12:58:41Z</time>
      </trkpt>
      <trkpt lat="43.41851" lon="2.46107">
        <ele>1098.92</ele>
        <time>2013-12-08T12:58:48Z</time>
      </trkpt>
      <trkpt lat="43.41851" lon="2.46106">
        <ele>1104.21</ele>
        <time>2013-12-08T12:58:49Z</time>
      </trkpt>
      <trkpt lat="43.41848" lon="2.46103">
        <ele>1100.37</ele>
        <time>2013-12-08T12:58:53Z</time>
      </trkpt>
      <trkpt lat="43.41843" lon="2.46095">
        <ele>1093.16</ele>
        <time>2013-12-08T12:59:02Z</time>
      </trkpt>
      <trkpt lat="43.41842" lon="2.46094">
        <ele>1108.06</ele>
        <time>2013-12-08T12:59:03Z</time>
      </trkpt>
      <trkpt lat="43.41841" lon="2.46093">
        <ele>1100.85</ele>
        <time>2013-12-08T12:59:04Z</time>
      </trkpt>
      <trkpt lat="43.4184" lon="2.46091">
        <ele>1095.56</ele>
        <time>2013-12-08T12:59:06Z</time>
      </trkpt>
      <trkpt lat="43.41839" lon="2.4609">
        <ele>1099.4</ele>
        <time>2013-12-08T12:59:07Z</time>
      </trkpt>
      <trkpt lat="43.41838" lon="2.46089">
        <ele>1103.73</ele>
        <time>2013-12-08T12:59:08Z</time>
      </trkpt>
      <trkpt lat="43.41838" lon="2.46088">
        <ele>1097.96</ele>
        <time>2013-12-08T12:59:09Z</time>
      </trkpt>
      <trkpt lat="43.41837" lon="2.46087">
        <ele>1094.6</ele>
        <time>2013-12-08T12:59:10Z</time>
      </trkpt>
      <trkpt lat="43.41836" lon="2.46086">
        <ele>1103.73</ele>
        <time>2013-12-08T12:59:11Z</time>
      </trkpt>
      <trkpt lat="43.41836" lon="2.46086">
        <ele>1099.4</ele>
        <time>2013-12-08T12:59:12Z</time>
      </trkpt>
      <trkpt lat="43.41826" lon="2.46077">
        <ele>1097.48</ele>
        <time>2013-12-08T12:59:23Z</time>
      </trkpt>
      <trkpt lat="43.41818" lon="2.46066">
        <ele>1095.56</ele>
        <time>2013-12-08T12:59:35Z</time>
      </trkpt>
      <trkpt lat="43.41808" lon="2.46056">
        <ele>1094.6</ele>
        <time>2013-12-08T12:59:46Z</time>
      </trkpt>
      <trkpt lat="43.41799" lon="2.46048">
        <ele>1092.68</ele>
        <time>2013-12-08T12:59:57Z</time>
      </trkpt>
      <trkpt lat="43.41794" lon="2.46039">
        <ele>1090.75</ele>
        <time>2013-12-08T13:00:12Z</time>
      </trkpt>
      <trkpt lat="43.41792" lon="2.46037">
        <ele>1090.75</ele>
        <time>2013-12-08T13:00:15Z</time>
      </trkpt>
      <trkpt lat="43.41782" lon="2.46026">
        <ele>1088.35</ele>
        <time>2013-12-08T13:00:26Z</time>
      </trkpt>
      <trkpt lat="43.41777" lon="2.46022">
        <ele>1087.39</ele>
        <time>2013-12-08T13:00:35Z</time>
      </trkpt>
      <trkpt lat="43.41767" lon="2.46012">
        <ele>1084.99</ele>
        <time>2013-12-08T13:00:47Z</time>
      </trkpt>
      <trkpt lat="43.41755" lon="2.45995">
        <ele>1082.1</ele>
        <time>2013-12-08T13:01:02Z</time>
      </trkpt>
      <trkpt lat="43.41744" lon="2.45983">
        <ele>1079.7</ele>
        <time>2013-12-08T13:01:15Z</time>
      </trkpt>
      <trkpt lat="43.41732" lon="2.45969">
        <ele>1077.29</ele>
        <time>2013-12-08T13:01:27Z</time>
      </trkpt>
      <trkpt lat="43.41723" lon="2.45961">
        <ele>1075.37</ele>
        <time>2013-12-08T13:01:38Z</time>
      </trkpt>
      <trkpt lat="43.41716" lon="2.45955">
        <ele>1072.97</ele>
        <time>2013-12-08T13:01:49Z</time>
      </trkpt>
      <trkpt lat="43.41715" lon="2.45955">
        <ele>1073.45</ele>
        <time>2013-12-08T13:02:02Z</time>
      </trkpt>
      <trkpt lat="43.41712" lon="2.45949">
        <ele>1072.01</ele>
        <time>2013-12-08T13:02:15Z</time>
      </trkpt>
      <trkpt lat="43.41701" lon="2.45936">
        <ele>1069.6</ele>
        <time>2013-12-08T13:02:28Z</time>
      </trkpt>
      <trkpt lat="43.41699" lon="2.45934">
        <ele>1069.12</ele>
        <time>2013-12-08T13:02:40Z</time>
      </trkpt>
      <trkpt lat="43.41701" lon="2.45936">
        <ele>1069.12</ele>
        <time>2013-12-08T13:02:54Z</time>
      </trkpt>
      <trkpt lat="43.41697" lon="2.45937">
        <ele>1069.12</ele>
        <time>2013-12-08T13:03:05Z</time>
      </trkpt>
      <trkpt lat="43.41695" lon="2.45934">
        <ele>1068.16</ele>
        <time>2013-12-08T13:03:21Z</time>
      </trkpt>
      <trkpt lat="43.41695" lon="2.45935">
        <ele>1068.16</ele>
        <time>2013-12-08T13:03:49Z</time>
      </trkpt>
      <trkpt lat="43.41694" lon="2.45935">
        <ele>1068.64</ele>
        <time>2013-12-08T13:04:11Z</time>
      </trkpt>
      <trkpt lat="43.41694" lon="2.45935">
        <ele>1068.16</ele>
        <time>2013-12-08T13:04:32Z</time>
      </trkpt>
      <trkpt lat="43.41695" lon="2.45935">
        <ele>1068.64</ele>
        <time>2013-12-08T13:04:53Z</time>
      </trkpt>
      <trkpt lat="43.41693" lon="2.45935">
        <ele>1069.6</ele>
        <time>2013-12-08T13:05:13Z</time>
      </trkpt>
      <trkpt lat="43.41693" lon="2.45935">
        <ele>1069.12</ele>
        <time>2013-12-08T13:05:20Z</time>
      </trkpt>
      <trkpt lat="43.41694" lon="2.45933">
        <ele>1069.6</ele>
        <time>2013-12-08T13:05:35Z</time>
      </trkpt>
      <trkpt lat="43.41693" lon="2.45934">
        <ele>1069.12</ele>
        <time>2013-12-08T13:05:50Z</time>
      </trkpt>
      <trkpt lat="43.41691" lon="2.45936">
        <ele>1069.12</ele>
        <time>2013-12-08T13:06:07Z</time>
      </trkpt>
      <trkpt lat="43.41693" lon="2.45937">
        <ele>1069.12</ele>
        <time>2013-12-08T13:06:25Z</time>
      </trkpt>
      <trkpt lat="43.41696" lon="2.45937">
        <ele>1069.6</ele>
        <time>2013-12-08T13:06:41Z</time>
      </trkpt>
      <trkpt lat="43.41698" lon="2.45934">
        <ele>1068.64</ele>
        <time>2013-12-08T13:06:58Z</time>
      </trkpt>
      <trkpt lat="43.41691" lon="2.45927">
        <ele>1068.64</ele>
        <time>2013-12-08T13:07:11Z</time>
      </trkpt>
      <trkpt lat="43.4168" lon="2.45914">
        <ele>1066.72</ele>
        <time>2013-12-08T13:07:24Z</time>
      </trkpt>
      <trkpt lat="43.41674" lon="2.4591">
        <ele>1065.28</ele>
        <time>2013-12-08T13:07:34Z</time>
      </trkpt>
      <trkpt lat="43.41665" lon="2.45905">
        <ele>1064.32</ele>
        <time>2013-12-08T13:07:45Z</time>
      </trkpt>
      <trkpt lat="43.41658" lon="2.45896">
        <ele>1062.87</ele>
        <time>2013-12-08T13:07:56Z</time>
      </trkpt>
      <trkpt lat="43.41647" lon="2.45885">
        <ele>1060.95</ele>
        <time>2013-12-08T13:08:08Z</time>
      </trkpt>
      <trkpt lat="43.41638" lon="2.45875">
        <ele>1059.51</ele>
        <time>2013-12-08T13:08:21Z</time>
      </trkpt>
      <trkpt lat="43.41628" lon="2.45866">
        <ele>1058.55</ele>
        <time>2013-12-08T13:08:34Z</time>
      </trkpt>
      <trkpt lat="43.4162" lon="2.45859">
        <ele>1058.07</ele>
        <time>2013-12-08T13:08:45Z</time>
      </trkpt>
      <trkpt lat="43.41613" lon="2.45848">
        <ele>1057.59</ele>
        <time>2013-12-08T13:08:56Z</time>
      </trkpt>
      <trkpt lat="43.41606" lon="2.45843">
        <ele>1057.11</ele>
        <time>2013-12-08T13:09:04Z</time>
      </trkpt>
      <trkpt lat="43.41596" lon="2.45835">
        <ele>1057.11</ele>
        <time>2013-12-08T13:09:15Z</time>
      </trkpt>
      <trkpt lat="43.41587" lon="2.45824">
        <ele>1057.11</ele>
        <time>2013-12-08T13:09:28Z</time>
      </trkpt>
      <trkpt lat="43.41581" lon="2.45816">
        <ele>1057.11</ele>
        <time>2013-12-08T13:09:39Z</time>
      </trkpt>
      <trkpt lat="43.41572" lon="2.45804">
        <ele>1057.11</ele>
        <time>2013-12-08T13:09:53Z</time>
      </trkpt>
      <trkpt lat="43.41563" lon="2.45793">
        <ele>1057.11</ele>
        <time>2013-12-08T13:10:07Z</time>
      </trkpt>
      <trkpt lat="43.41555" lon="2.45784">
        <ele>1057.11</ele>
        <time>2013-12-08T13:10:20Z</time>
      </trkpt>
      <trkpt lat="43.41547" lon="2.45774">
        <ele>1057.11</ele>
        <time>2013-12-08T13:10:34Z</time>
      </trkpt>
      <trkpt lat="43.41538" lon="2.45769">
        <ele>1058.07</ele>
        <time>2013-12-08T13:10:47Z</time>
      </trkpt>
      <trkpt lat="43.41535" lon="2.45772">
        <ele>1058.07</ele>
        <time>2013-12-08T13:10:58Z</time>
      </trkpt>
      <trkpt lat="43.41532" lon="2.45764">
        <ele>1059.03</ele>
        <time>2013-12-08T13:11:10Z</time>
      </trkpt>
      <trkpt lat="43.41532" lon="2.45758">
        <ele>1059.51</ele>
        <time>2013-12-08T13:11:20Z</time>
      </trkpt>
      <trkpt lat="43.41525" lon="2.45747">
        <ele>1059.51</ele>
        <time>2013-12-08T13:11:30Z</time>
      </trkpt>
      <trkpt lat="43.41513" lon="2.45741">
        <ele>1059.51</ele>
        <time>2013-12-08T13:11:41Z</time>
      </trkpt>
      <trkpt lat="43.41509" lon="2.45737">
        <ele>1059.51</ele>
        <time>2013-12-08T13:11:51Z</time>
      </trkpt>
      <trkpt lat="43.41507" lon="2.45744">
        <ele>1059.51</ele>
        <time>2013-12-08T13:12:10Z</time>
      </trkpt>
      <trkpt lat="43.41504" lon="2.45746">
        <ele>1059.51</ele>
        <time>2013-12-08T13:12:34Z</time>
      </trkpt>
      <trkpt lat="43.41505" lon="2.45745">
        <ele>1059.51</ele>
        <time>2013-12-08T13:12:35Z</time>
      </trkpt>
      <trkpt lat="43.41504" lon="2.45739">
        <ele>1059.51</ele>
        <time>2013-12-08T13:12:39Z</time>
      </trkpt>
      <trkpt lat="43.41496" lon="2.45724">
        <ele>1059.51</ele>
        <time>2013-12-08T13:12:51Z</time>
      </trkpt>
      <trkpt lat="43.41494" lon="2.45712">
        <ele>1059.51</ele>
        <time>2013-12-08T13:13:01Z</time>
      </trkpt>
      <trkpt lat="43.41494" lon="2.45707">
        <ele>1059.99</ele>
        <time>2013-12-08T13:13:13Z</time>
      </trkpt>
      <trkpt lat="43.41494" lon="2.45707">
        <ele>1059.99</ele>
        <time>2013-12-08T13:13:36Z</time>
      </trkpt>
      <trkpt lat="43.41493" lon="2.45704">
        <ele>1059.99</ele>
        <time>2013-12-08T13:13:53Z</time>
      </trkpt>
      <trkpt lat="43.41492" lon="2.45703">
        <ele>1060.47</ele>
        <time>2013-12-08T13:14:15Z</time>
      </trkpt>
      <trkpt lat="43.4149" lon="2.45705">
        <ele>1059.99</ele>
        <time>2013-12-08T13:14:31Z</time>
      </trkpt>
      <trkpt lat="43.4149" lon="2.45704">
        <ele>1059.03</ele>
        <time>2013-12-08T13:14:41Z</time>
      </trkpt>
      <trkpt lat="43.41492" lon="2.45706">
        <ele>1059.03</ele>
        <time>2013-12-08T13:14:56Z</time>
      </trkpt>
      <trkpt lat="43.4149" lon="2.45703">
        <ele>1059.03</ele>
        <time>2013-12-08T13:15:08Z</time>
      </trkpt>
      <trkpt lat="43.41488" lon="2.45703">
        <ele>1059.03</ele>
        <time>2013-12-08T13:15:32Z</time>
      </trkpt>
      <trkpt lat="43.41488" lon="2.45705">
        <ele>1058.55</ele>
        <time>2013-12-08T13:15:48Z</time>
      </trkpt>
      <trkpt lat="43.41483" lon="2.45704">
        <ele>1058.07</ele>
        <time>2013-12-08T13:16:10Z</time>
      </trkpt>
      <trkpt lat="43.41482" lon="2.45702">
        <ele>1056.63</ele>
        <time>2013-12-08T13:16:17Z</time>
      </trkpt>
      <trkpt lat="43.41481" lon="2.45701">
        <ele>1056.63</ele>
        <time>2013-12-08T13:16:18Z</time>
      </trkpt>
      <trkpt lat="43.41479" lon="2.457">
        <ele>1056.15</ele>
        <time>2013-12-08T13:16:19Z</time>
      </trkpt>
      <trkpt lat="43.41478" lon="2.457">
        <ele>1056.15</ele>
        <time>2013-12-08T13:16:20Z</time>
      </trkpt>
      <trkpt lat="43.41471" lon="2.457">
        <ele>1054.7</ele>
        <time>2013-12-08T13:16:27Z</time>
      </trkpt>
      <trkpt lat="43.41467" lon="2.45705">
        <ele>1049.9</ele>
        <time>2013-12-08T13:16:35Z</time>
      </trkpt>
      <trkpt lat="43.41468" lon="2.45707">
        <ele>1059.03</ele>
        <time>2013-12-08T13:16:36Z</time>
      </trkpt>
      <trkpt lat="43.41468" lon="2.45708">
        <ele>1053.74</ele>
        <time>2013-12-08T13:16:37Z</time>
      </trkpt>
      <trkpt lat="43.41468" lon="2.45711">
        <ele>1048.94</ele>
        <time>2013-12-08T13:16:39Z</time>
      </trkpt>
      <trkpt lat="43.41467" lon="2.45713">
        <ele>1056.63</ele>
        <time>2013-12-08T13:16:40Z</time>
      </trkpt>
      <trkpt lat="43.41465" lon="2.4572">
        <ele>1053.26</ele>
        <time>2013-12-08T13:16:46Z</time>
      </trkpt>
      <trkpt lat="43.41465" lon="2.45721">
        <ele>1053.26</ele>
        <time>2013-12-08T13:16:47Z</time>
      </trkpt>
      <trkpt lat="43.41464" lon="2.4573">
        <ele>1052.3</ele>
        <time>2013-12-08T13:16:54Z</time>
      </trkpt>
      <trkpt lat="43.41464" lon="2.45745">
        <ele>1052.78</ele>
        <time>2013-12-08T13:17:05Z</time>
      </trkpt>
      <trkpt lat="43.41465" lon="2.45756">
        <ele>1051.82</ele>
        <time>2013-12-08T13:17:15Z</time>
      </trkpt>
      <trkpt lat="43.41463" lon="2.45763">
        <ele>1050.86</ele>
        <time>2013-12-08T13:17:25Z</time>
      </trkpt>
      <trkpt lat="43.41456" lon="2.45763">
        <ele>1049.9</ele>
        <time>2013-12-08T13:17:34Z</time>
      </trkpt>
      <trkpt lat="43.41446" lon="2.45769">
        <ele>1047.49</ele>
        <time>2013-12-08T13:17:45Z</time>
      </trkpt>
      <trkpt lat="43.41444" lon="2.45771">
        <ele>1047.49</ele>
        <time>2013-12-08T13:17:47Z</time>
      </trkpt>
      <trkpt lat="43.41443" lon="2.45771">
        <ele>1047.01</ele>
        <time>2013-12-08T13:17:48Z</time>
      </trkpt>
      <trkpt lat="43.41442" lon="2.45772">
        <ele>1047.01</ele>
        <time>2013-12-08T13:17:49Z</time>
      </trkpt>
      <trkpt lat="43.41432" lon="2.45771">
        <ele>1043.65</ele>
        <time>2013-12-08T13:18:00Z</time>
      </trkpt>
      <trkpt lat="43.41427" lon="2.45771">
        <ele>1042.21</ele>
        <time>2013-12-08T13:18:10Z</time>
      </trkpt>
      <trkpt lat="43.41421" lon="2.45772">
        <ele>1040.76</ele>
        <time>2013-12-08T13:18:18Z</time>
      </trkpt>
      <trkpt lat="43.41415" lon="2.45773">
        <ele>1039.8</ele>
        <time>2013-12-08T13:18:25Z</time>
      </trkpt>
      <trkpt lat="43.41414" lon="2.45772">
        <ele>1039.32</ele>
        <time>2013-12-08T13:18:26Z</time>
      </trkpt>
      <trkpt lat="43.41411" lon="2.45769">
        <ele>1038.36</ele>
        <time>2013-12-08T13:18:30Z</time>
      </trkpt>
      <trkpt lat="43.41407" lon="2.45767">
        <ele>1036.92</ele>
        <time>2013-12-08T13:18:35Z</time>
      </trkpt>
      <trkpt lat="43.41399" lon="2.45764">
        <ele>1033.55</ele>
        <time>2013-12-08T13:18:45Z</time>
      </trkpt>
      <trkpt lat="43.41396" lon="2.45758">
        <ele>1031.63</ele>
        <time>2013-12-08T13:18:54Z</time>
      </trkpt>
      <trkpt lat="43.4139" lon="2.45752">
        <ele>1029.71</ele>
        <time>2013-12-08T13:19:03Z</time>
      </trkpt>
      <trkpt lat="43.41382" lon="2.45743">
        <ele>1027.31</ele>
        <time>2013-12-08T13:19:16Z</time>
      </trkpt>
      <trkpt lat="43.41376" lon="2.45737">
        <ele>1025.38</ele>
        <time>2013-12-08T13:19:26Z</time>
      </trkpt>
      <trkpt lat="43.41375" lon="2.45739">
        <ele>1025.38</ele>
        <time>2013-12-08T13:19:40Z</time>
      </trkpt>
      <trkpt lat="43.41372" lon="2.45734">
        <ele>1024.42</ele>
        <time>2013-12-08T13:19:52Z</time>
      </trkpt>
      <trkpt lat="43.41373" lon="2.45722">
        <ele>1023.46</ele>
        <time>2013-12-08T13:20:02Z</time>
      </trkpt>
      <trkpt lat="43.41374" lon="2.45709">
        <ele>1021.54</ele>
        <time>2013-12-08T13:20:14Z</time>
      </trkpt>
      <trkpt lat="43.41367" lon="2.45697">
        <ele>1015.77</ele>
        <time>2013-12-08T13:20:25Z</time>
      </trkpt>
      <trkpt lat="43.41364" lon="2.45693">
        <ele>1017.21</ele>
        <time>2013-12-08T13:20:28Z</time>
      </trkpt>
      <trkpt lat="43.41363" lon="2.45692">
        <ele>1029.23</ele>
        <time>2013-12-08T13:20:29Z</time>
      </trkpt>
      <trkpt lat="43.41362" lon="2.45691">
        <ele>1021.06</ele>
        <time>2013-12-08T13:20:30Z</time>
      </trkpt>
      <trkpt lat="43.41361" lon="2.45689">
        <ele>1018.17</ele>
        <time>2013-12-08T13:20:32Z</time>
      </trkpt>
      <trkpt lat="43.41359" lon="2.45687">
        <ele>1016.73</ele>
        <time>2013-12-08T13:20:35Z</time>
      </trkpt>
      <trkpt lat="43.41359" lon="2.45685">
        <ele>1013.37</ele>
        <time>2013-12-08T13:20:36Z</time>
      </trkpt>
      <trkpt lat="43.41358" lon="2.45684">
        <ele>1020.58</ele>
        <time>2013-12-08T13:20:37Z</time>
      </trkpt>
      <trkpt lat="43.41358" lon="2.45682">
        <ele>1016.73</ele>
        <time>2013-12-08T13:20:38Z</time>
      </trkpt>
      <trkpt lat="43.41351" lon="2.45672">
        <ele>1014.81</ele>
        <time>2013-12-08T13:20:50Z</time>
      </trkpt>
      <trkpt lat="43.41345" lon="2.45659">
        <ele>1012.41</ele>
        <time>2013-12-08T13:21:02Z</time>
      </trkpt>
      <trkpt lat="43.41335" lon="2.45645">
        <ele>1010</ele>
        <time>2013-12-08T13:21:15Z</time>
      </trkpt>
      <trkpt lat="43.41334" lon="2.45641">
        <ele>1009.04</ele>
        <time>2013-12-08T13:21:19Z</time>
      </trkpt>
      <trkpt lat="43.41335" lon="2.45627">
        <ele>1007.6</ele>
        <time>2013-12-08T13:21:32Z</time>
      </trkpt>
      <trkpt lat="43.41338" lon="2.45614">
        <ele>1005.68</ele>
        <time>2013-12-08T13:21:44Z</time>
      </trkpt>
      <trkpt lat="43.41336" lon="2.456">
        <ele>1003.27</ele>
        <time>2013-12-08T13:21:56Z</time>
      </trkpt>
      <trkpt lat="43.41335" lon="2.45584">
        <ele>1000.87</ele>
        <time>2013-12-08T13:22:08Z</time>
      </trkpt>
      <trkpt lat="43.41334" lon="2.45575">
        <ele>999.43</ele>
        <time>2013-12-08T13:22:17Z</time>
      </trkpt>
      <trkpt lat="43.41329" lon="2.45564">
        <ele>996.54</ele>
        <time>2013-12-08T13:22:28Z</time>
      </trkpt>
      <trkpt lat="43.41319" lon="2.45549">
        <ele>993.66</ele>
        <time>2013-12-08T13:22:41Z</time>
      </trkpt>
      <trkpt lat="43.41318" lon="2.45537">
        <ele>991.26</ele>
        <time>2013-12-08T13:22:50Z</time>
      </trkpt>
      <trkpt lat="43.41313" lon="2.45531">
        <ele>988.85</ele>
        <time>2013-12-08T13:23:02Z</time>
      </trkpt>
      <trkpt lat="43.41303" lon="2.45515">
        <ele>985.97</ele>
        <time>2013-12-08T13:23:14Z</time>
      </trkpt>
      <trkpt lat="43.41297" lon="2.45512">
        <ele>984.53</ele>
        <time>2013-12-08T13:23:21Z</time>
      </trkpt>
      <trkpt lat="43.4129" lon="2.4551">
        <ele>983.09</ele>
        <time>2013-12-08T13:23:28Z</time>
      </trkpt>
      <trkpt lat="43.41283" lon="2.45511">
        <ele>982.6</ele>
        <time>2013-12-08T13:23:39Z</time>
      </trkpt>
      <trkpt lat="43.41276" lon="2.45511">
        <ele>980.68</ele>
        <time>2013-12-08T13:23:53Z</time>
      </trkpt>
      <trkpt lat="43.41272" lon="2.45505">
        <ele>978.28</ele>
        <time>2013-12-08T13:24:03Z</time>
      </trkpt>
      <trkpt lat="43.41273" lon="2.45491">
        <ele>975.88</ele>
        <time>2013-12-08T13:24:14Z</time>
      </trkpt>
      <trkpt lat="43.41267" lon="2.45484">
        <ele>973.47</ele>
        <time>2013-12-08T13:24:22Z</time>
      </trkpt>
      <trkpt lat="43.41259" lon="2.45473">
        <ele>970.59</ele>
        <time>2013-12-08T13:24:34Z</time>
      </trkpt>
      <trkpt lat="43.4125" lon="2.4547">
        <ele>968.67</ele>
        <time>2013-12-08T13:24:45Z</time>
      </trkpt>
      <trkpt lat="43.41247" lon="2.45468">
        <ele>967.7</ele>
        <time>2013-12-08T13:24:49Z</time>
      </trkpt>
      <trkpt lat="43.41246" lon="2.45467">
        <ele>967.7</ele>
        <time>2013-12-08T13:24:50Z</time>
      </trkpt>
      <trkpt lat="43.41242" lon="2.45459">
        <ele>965.78</ele>
        <time>2013-12-08T13:24:59Z</time>
      </trkpt>
      <trkpt lat="43.41241" lon="2.45448">
        <ele>962.42</ele>
        <time>2013-12-08T13:25:10Z</time>
      </trkpt>
      <trkpt lat="43.41236" lon="2.45435">
        <ele>959.53</ele>
        <time>2013-12-08T13:25:22Z</time>
      </trkpt>
      <trkpt lat="43.41227" lon="2.45425">
        <ele>956.65</ele>
        <time>2013-12-08T13:25:33Z</time>
      </trkpt>
      <trkpt lat="43.41221" lon="2.45417">
        <ele>954.25</ele>
        <time>2013-12-08T13:25:44Z</time>
      </trkpt>
      <trkpt lat="43.41215" lon="2.45409">
        <ele>952.8</ele>
        <time>2013-12-08T13:25:53Z</time>
      </trkpt>
      <trkpt lat="43.41211" lon="2.45402">
        <ele>951.84</ele>
        <time>2013-12-08T13:25:58Z</time>
      </trkpt>
      <trkpt lat="43.4121" lon="2.45401">
        <ele>951.36</ele>
        <time>2013-12-08T13:25:59Z</time>
      </trkpt>
      <trkpt lat="43.41208" lon="2.45401">
        <ele>950.88</ele>
        <time>2013-12-08T13:26:00Z</time>
      </trkpt>
      <trkpt lat="43.41202" lon="2.45398">
        <ele>950.4</ele>
        <time>2013-12-08T13:26:10Z</time>
      </trkpt>
      <trkpt lat="43.412" lon="2.45396">
        <ele>948.96</ele>
        <time>2013-12-08T13:26:13Z</time>
      </trkpt>
      <trkpt lat="43.41198" lon="2.45392">
        <ele>947.04</ele>
        <time>2013-12-08T13:26:26Z</time>
      </trkpt>
      <trkpt lat="43.41194" lon="2.45388">
        <ele>945.59</ele>
        <time>2013-12-08T13:26:41Z</time>
      </trkpt>
      <trkpt lat="43.41194" lon="2.45393">
        <ele>946.07</ele>
        <time>2013-12-08T13:26:59Z</time>
      </trkpt>
      <trkpt lat="43.41189" lon="2.45384">
        <ele>943.19</ele>
        <time>2013-12-08T13:27:07Z</time>
      </trkpt>
      <trkpt lat="43.41186" lon="2.4538">
        <ele>942.23</ele>
        <time>2013-12-08T13:27:11Z</time>
      </trkpt>
      <trkpt lat="43.4118" lon="2.45369">
        <ele>938.38</ele>
        <time>2013-12-08T13:27:22Z</time>
      </trkpt>
      <trkpt lat="43.41177" lon="2.45367">
        <ele>937.9</ele>
        <time>2013-12-08T13:27:26Z</time>
      </trkpt>
      <trkpt lat="43.41171" lon="2.4536">
        <ele>936.46</ele>
        <time>2013-12-08T13:27:38Z</time>
      </trkpt>
      <trkpt lat="43.41163" lon="2.45354">
        <ele>933.58</ele>
        <time>2013-12-08T13:27:48Z</time>
      </trkpt>
      <trkpt lat="43.41159" lon="2.45351">
        <ele>932.14</ele>
        <time>2013-12-08T13:27:52Z</time>
      </trkpt>
      <trkpt lat="43.41152" lon="2.45344">
        <ele>928.77</ele>
        <time>2013-12-08T13:28:02Z</time>
      </trkpt>
      <trkpt lat="43.41152" lon="2.45344">
        <ele>928.77</ele>
        <time>2013-12-08T13:28:03Z</time>
      </trkpt>
      <trkpt lat="43.4115" lon="2.45339">
        <ele>927.81</ele>
        <time>2013-12-08T13:28:08Z</time>
      </trkpt>
      <trkpt lat="43.41148" lon="2.45337">
        <ele>926.37</ele>
        <time>2013-12-08T13:28:10Z</time>
      </trkpt>
      <trkpt lat="43.41139" lon="2.45324">
        <ele>923.96</ele>
        <time>2013-12-08T13:28:22Z</time>
      </trkpt>
      <trkpt lat="43.41132" lon="2.45315">
        <ele>921.56</ele>
        <time>2013-12-08T13:28:32Z</time>
      </trkpt>
      <trkpt lat="43.41124" lon="2.45302">
        <ele>918.68</ele>
        <time>2013-12-08T13:28:44Z</time>
      </trkpt>
      <trkpt lat="43.41116" lon="2.45293">
        <ele>915.31</ele>
        <time>2013-12-08T13:28:55Z</time>
      </trkpt>
      <trkpt lat="43.41105" lon="2.45282">
        <ele>912.43</ele>
        <time>2013-12-08T13:29:08Z</time>
      </trkpt>
      <trkpt lat="43.41104" lon="2.4528">
        <ele>910.99</ele>
        <time>2013-12-08T13:29:11Z</time>
      </trkpt>
      <trkpt lat="43.41104" lon="2.45279">
        <ele>910.99</ele>
        <time>2013-12-08T13:29:12Z</time>
      </trkpt>
      <trkpt lat="43.41097" lon="2.45275">
        <ele>909.06</ele>
        <time>2013-12-08T13:29:24Z</time>
      </trkpt>
      <trkpt lat="43.41096" lon="2.45264">
        <ele>907.14</ele>
        <time>2013-12-08T13:29:40Z</time>
      </trkpt>
      <trkpt lat="43.41088" lon="2.45255">
        <ele>903.78</ele>
        <time>2013-12-08T13:29:51Z</time>
      </trkpt>
      <trkpt lat="43.41081" lon="2.45244">
        <ele>901.37</ele>
        <time>2013-12-08T13:30:01Z</time>
      </trkpt>
      <trkpt lat="43.41076" lon="2.45238">
        <ele>899.93</ele>
        <time>2013-12-08T13:30:08Z</time>
      </trkpt>
      <trkpt lat="43.41069" lon="2.45228">
        <ele>897.05</ele>
        <time>2013-12-08T13:30:19Z</time>
      </trkpt>
      <trkpt lat="43.4106" lon="2.45218">
        <ele>893.68</ele>
        <time>2013-12-08T13:30:31Z</time>
      </trkpt>
      <trkpt lat="43.4105" lon="2.45204">
        <ele>891.28</ele>
        <time>2013-12-08T13:30:44Z</time>
      </trkpt>
      <trkpt lat="43.41046" lon="2.45196">
        <ele>888.88</ele>
        <time>2013-12-08T13:30:51Z</time>
      </trkpt>
      <trkpt lat="43.41043" lon="2.45193">
        <ele>888.4</ele>
        <time>2013-12-08T13:30:54Z</time>
      </trkpt>
      <trkpt lat="43.41042" lon="2.45192">
        <ele>887.91</ele>
        <time>2013-12-08T13:30:55Z</time>
      </trkpt>
      <trkpt lat="43.41038" lon="2.45186">
        <ele>885.99</ele>
        <time>2013-12-08T13:31:06Z</time>
      </trkpt>
      <trkpt lat="43.41036" lon="2.45181">
        <ele>885.03</ele>
        <time>2013-12-08T13:31:17Z</time>
      </trkpt>
      <trkpt lat="43.41033" lon="2.45169">
        <ele>883.11</ele>
        <time>2013-12-08T13:31:30Z</time>
      </trkpt>
      <trkpt lat="43.41029" lon="2.45169">
        <ele>883.11</ele>
        <time>2013-12-08T13:31:44Z</time>
      </trkpt>
      <trkpt lat="43.41028" lon="2.45171">
        <ele>882.63</ele>
        <time>2013-12-08T13:32:11Z</time>
      </trkpt>
      <trkpt lat="43.41029" lon="2.45169">
        <ele>882.63</ele>
        <time>2013-12-08T13:32:30Z</time>
      </trkpt>
      <trkpt lat="43.41033" lon="2.45164">
        <ele>883.11</ele>
        <time>2013-12-08T13:32:46Z</time>
      </trkpt>
      <trkpt lat="43.41033" lon="2.45162">
        <ele>882.15</ele>
        <time>2013-12-08T13:32:50Z</time>
      </trkpt>
      <trkpt lat="43.41033" lon="2.45151">
        <ele>880.71</ele>
        <time>2013-12-08T13:33:00Z</time>
      </trkpt>
      <trkpt lat="43.41033" lon="2.45149">
        <ele>879.74</ele>
        <time>2013-12-08T13:33:01Z</time>
      </trkpt>
      <trkpt lat="43.41033" lon="2.45147">
        <ele>879.74</ele>
        <time>2013-12-08T13:33:02Z</time>
      </trkpt>
      <trkpt lat="43.41034" lon="2.45134">
        <ele>877.82</ele>
        <time>2013-12-08T13:33:12Z</time>
      </trkpt>
      <trkpt lat="43.41037" lon="2.45116">
        <ele>874.94</ele>
        <time>2013-12-08T13:33:25Z</time>
      </trkpt>
      <trkpt lat="43.41039" lon="2.45098">
        <ele>873.01</ele>
        <time>2013-12-08T13:33:38Z</time>
      </trkpt>
      <trkpt lat="43.41042" lon="2.45082">
        <ele>870.61</ele>
        <time>2013-12-08T13:33:50Z</time>
      </trkpt>
      <trkpt lat="43.41046" lon="2.45069">
        <ele>869.65</ele>
        <time>2013-12-08T13:34:02Z</time>
      </trkpt>
      <trkpt lat="43.41051" lon="2.4505">
        <ele>866.77</ele>
        <time>2013-12-08T13:34:15Z</time>
      </trkpt>
      <trkpt lat="43.41054" lon="2.45043">
        <ele>865.8</ele>
        <time>2013-12-08T13:34:20Z</time>
      </trkpt>
      <trkpt lat="43.41054" lon="2.45042">
        <ele>865.8</ele>
        <time>2013-12-08T13:34:21Z</time>
      </trkpt>
      <trkpt lat="43.41055" lon="2.4504">
        <ele>865.8</ele>
        <time>2013-12-08T13:34:22Z</time>
      </trkpt>
      <trkpt lat="43.41055" lon="2.45039">
        <ele>865.8</ele>
        <time>2013-12-08T13:34:23Z</time>
      </trkpt>
      <trkpt lat="43.41059" lon="2.4503">
        <ele>864.36</ele>
        <time>2013-12-08T13:34:30Z</time>
      </trkpt>
      <trkpt lat="43.41062" lon="2.4502">
        <ele>862.44</ele>
        <time>2013-12-08T13:34:39Z</time>
      </trkpt>
      <trkpt lat="43.41069" lon="2.45008">
        <ele>861.48</ele>
        <time>2013-12-08T13:34:51Z</time>
      </trkpt>
      <trkpt lat="43.41074" lon="2.44993">
        <ele>860.04</ele>
        <time>2013-12-08T13:35:03Z</time>
      </trkpt>
      <trkpt lat="43.41081" lon="2.44979">
        <ele>858.11</ele>
        <time>2013-12-08T13:35:15Z</time>
      </trkpt>
      <trkpt lat="43.41088" lon="2.44965">
        <ele>856.67</ele>
        <time>2013-12-08T13:35:27Z</time>
      </trkpt>
      <trkpt lat="43.41097" lon="2.44956">
        <ele>855.71</ele>
        <time>2013-12-08T13:35:39Z</time>
      </trkpt>
      <trkpt lat="43.41109" lon="2.44946">
        <ele>853.79</ele>
        <time>2013-12-08T13:35:52Z</time>
      </trkpt>
      <trkpt lat="43.41117" lon="2.44932">
        <ele>852.83</ele>
        <time>2013-12-08T13:36:04Z</time>
      </trkpt>
      <trkpt lat="43.41126" lon="2.44918">
        <ele>851.87</ele>
        <time>2013-12-08T13:36:17Z</time>
      </trkpt>
      <trkpt lat="43.41131" lon="2.44913">
        <ele>850.9</ele>
        <time>2013-12-08T13:36:30Z</time>
      </trkpt>
      <trkpt lat="43.41134" lon="2.44918">
        <ele>850.9</ele>
        <time>2013-12-08T13:36:53Z</time>
      </trkpt>
      <trkpt lat="43.41143" lon="2.44901">
        <ele>849.46</ele>
        <time>2013-12-08T13:37:09Z</time>
      </trkpt>
      <trkpt lat="43.41151" lon="2.44892">
        <ele>848.02</ele>
        <time>2013-12-08T13:37:20Z</time>
      </trkpt>
      <trkpt lat="43.41161" lon="2.44882">
        <ele>846.58</ele>
        <time>2013-12-08T13:37:32Z</time>
      </trkpt>
      <trkpt lat="43.41169" lon="2.44875">
        <ele>846.1</ele>
        <time>2013-12-08T13:37:44Z</time>
      </trkpt>
      <trkpt lat="43.41182" lon="2.44867">
        <ele>844.66</ele>
        <time>2013-12-08T13:37:59Z</time>
      </trkpt>
      <trkpt lat="43.41193" lon="2.44863">
        <ele>843.69</ele>
        <time>2013-12-08T13:38:12Z</time>
      </trkpt>
      <trkpt lat="43.41199" lon="2.44856">
        <ele>842.73</ele>
        <time>2013-12-08T13:38:22Z</time>
      </trkpt>
      <trkpt lat="43.41208" lon="2.44846">
        <ele>841.77</ele>
        <time>2013-12-08T13:38:34Z</time>
      </trkpt>
      <trkpt lat="43.41218" lon="2.44838">
        <ele>840.81</ele>
        <time>2013-12-08T13:38:47Z</time>
      </trkpt>
      <trkpt lat="43.41228" lon="2.44829">
        <ele>839.85</ele>
        <time>2013-12-08T13:39:01Z</time>
      </trkpt>
      <trkpt lat="43.4124" lon="2.44821">
        <ele>839.37</ele>
        <time>2013-12-08T13:39:16Z</time>
      </trkpt>
      <trkpt lat="43.41242" lon="2.44817">
        <ele>838.89</ele>
        <time>2013-12-08T13:39:19Z</time>
      </trkpt>
      <trkpt lat="43.41241" lon="2.44805">
        <ele>838.89</ele>
        <time>2013-12-08T13:39:29Z</time>
      </trkpt>
      <trkpt lat="43.41244" lon="2.4479">
        <ele>837.93</ele>
        <time>2013-12-08T13:39:41Z</time>
      </trkpt>
      <trkpt lat="43.41244" lon="2.44792">
        <ele>836.48</ele>
        <time>2013-12-08T13:39:44Z</time>
      </trkpt>
      <trkpt lat="43.41243" lon="2.44789">
        <ele>836.96</ele>
        <time>2013-12-08T13:39:53Z</time>
      </trkpt>
      <trkpt lat="43.41243" lon="2.44782">
        <ele>836.96</ele>
        <time>2013-12-08T13:40:13Z</time>
      </trkpt>
      <trkpt lat="43.41236" lon="2.44775">
        <ele>836.96</ele>
        <time>2013-12-08T13:40:23Z</time>
      </trkpt>
      <trkpt lat="43.41231" lon="2.44774">
        <ele>836.96</ele>
        <time>2013-12-08T13:40:28Z</time>
      </trkpt>
      <trkpt lat="43.41219" lon="2.44771">
        <ele>837.45</ele>
        <time>2013-12-08T13:40:39Z</time>
      </trkpt>
      <trkpt lat="43.41206" lon="2.44769">
        <ele>837.93</ele>
        <time>2013-12-08T13:40:52Z</time>
      </trkpt>
      <trkpt lat="43.41205" lon="2.44769">
        <ele>837.93</ele>
        <time>2013-12-08T13:40:53Z</time>
      </trkpt>
      <trkpt lat="43.41202" lon="2.44769">
        <ele>838.89</ele>
        <time>2013-12-08T13:40:55Z</time>
      </trkpt>
      <trkpt lat="43.41188" lon="2.44767">
        <ele>839.37</ele>
        <time>2013-12-08T13:41:07Z</time>
      </trkpt>
      <trkpt lat="43.41178" lon="2.4476">
        <ele>840.33</ele>
        <time>2013-12-08T13:41:19Z</time>
      </trkpt>
      <trkpt lat="43.41176" lon="2.44759">
        <ele>840.33</ele>
        <time>2013-12-08T13:41:21Z</time>
      </trkpt>
      <trkpt lat="43.41168" lon="2.44755">
        <ele>840.81</ele>
        <time>2013-12-08T13:41:27Z</time>
      </trkpt>
      <trkpt lat="43.4116" lon="2.44756">
        <ele>835.52</ele>
        <time>2013-12-08T13:41:32Z</time>
      </trkpt>
      <trkpt lat="43.41159" lon="2.44757">
        <ele>843.21</ele>
        <time>2013-12-08T13:41:33Z</time>
      </trkpt>
      <trkpt lat="43.41154" lon="2.44758">
        <ele>840.33</ele>
        <time>2013-12-08T13:41:36Z</time>
      </trkpt>
      <trkpt lat="43.41143" lon="2.44751">
        <ele>840.33</ele>
        <time>2013-12-08T13:41:48Z</time>
      </trkpt>
      <trkpt lat="43.41126" lon="2.44747">
        <ele>840.33</ele>
        <time>2013-12-08T13:42:01Z</time>
      </trkpt>
      <trkpt lat="43.41108" lon="2.44745">
        <ele>839.37</ele>
        <time>2013-12-08T13:42:15Z</time>
      </trkpt>
      <trkpt lat="43.41101" lon="2.44746">
        <ele>839.85</ele>
        <time>2013-12-08T13:42:25Z</time>
      </trkpt>
      <trkpt lat="43.41101" lon="2.4475">
        <ele>839.37</ele>
        <time>2013-12-08T13:42:40Z</time>
      </trkpt>
      <trkpt lat="43.41099" lon="2.44751">
        <ele>839.37</ele>
        <time>2013-12-08T13:42:50Z</time>
      </trkpt>
      <trkpt lat="43.41085" lon="2.44748">
        <ele>838.89</ele>
        <time>2013-12-08T13:43:01Z</time>
      </trkpt>
      <trkpt lat="43.41077" lon="2.44746">
        <ele>835.04</ele>
        <time>2013-12-08T13:43:08Z</time>
      </trkpt>
      <trkpt lat="43.41076" lon="2.44746">
        <ele>840.33</ele>
        <time>2013-12-08T13:43:09Z</time>
      </trkpt>
      <trkpt lat="43.41075" lon="2.44746">
        <ele>834.56</ele>
        <time>2013-12-08T13:43:10Z</time>
      </trkpt>
      <trkpt lat="43.41074" lon="2.44746">
        <ele>841.29</ele>
        <time>2013-12-08T13:43:11Z</time>
      </trkpt>
      <trkpt lat="43.41072" lon="2.44745">
        <ele>837.45</ele>
        <time>2013-12-08T13:43:13Z</time>
      </trkpt>
      <trkpt lat="43.41071" lon="2.44746">
        <ele>838.89</ele>
        <time>2013-12-08T13:43:14Z</time>
      </trkpt>
      <trkpt lat="43.41059" lon="2.44743">
        <ele>837.45</ele>
        <time>2013-12-08T13:43:26Z</time>
      </trkpt>
      <trkpt lat="43.41048" lon="2.44738">
        <ele>836.48</ele>
        <time>2013-12-08T13:43:36Z</time>
      </trkpt>
      <trkpt lat="43.41042" lon="2.44736">
        <ele>836.48</ele>
        <time>2013-12-08T13:43:41Z</time>
      </trkpt>
      <trkpt lat="43.41041" lon="2.44735">
        <ele>836.48</ele>
        <time>2013-12-08T13:43:42Z</time>
      </trkpt>
      <trkpt lat="43.41039" lon="2.44736">
        <ele>836</ele>
        <time>2013-12-08T13:43:43Z</time>
      </trkpt>
      <trkpt lat="43.41038" lon="2.44737">
        <ele>836.48</ele>
        <time>2013-12-08T13:43:44Z</time>
      </trkpt>
      <trkpt lat="43.41036" lon="2.44737">
        <ele>836.48</ele>
        <time>2013-12-08T13:43:45Z</time>
      </trkpt>
      <trkpt lat="43.41023" lon="2.44741">
        <ele>835.52</ele>
        <time>2013-12-08T13:43:55Z</time>
      </trkpt>
      <trkpt lat="43.41013" lon="2.44742">
        <ele>835.04</ele>
        <time>2013-12-08T13:44:05Z</time>
      </trkpt>
      <trkpt lat="43.41" lon="2.44742">
        <ele>835.04</ele>
        <time>2013-12-08T13:44:17Z</time>
      </trkpt>
      <trkpt lat="43.40988" lon="2.44739">
        <ele>835.04</ele>
        <time>2013-12-08T13:44:29Z</time>
      </trkpt>
      <trkpt lat="43.40975" lon="2.44739">
        <ele>834.56</ele>
        <time>2013-12-08T13:44:41Z</time>
      </trkpt>
      <trkpt lat="43.40966" lon="2.44736">
        <ele>833.6</ele>
        <time>2013-12-08T13:44:48Z</time>
      </trkpt>
      <trkpt lat="43.40944" lon="2.44729">
        <ele>833.6</ele>
        <time>2013-12-08T13:45:05Z</time>
      </trkpt>
      <trkpt lat="43.4093" lon="2.44717">
        <ele>833.12</ele>
        <time>2013-12-08T13:45:18Z</time>
      </trkpt>
      <trkpt lat="43.40927" lon="2.44714">
        <ele>832.64</ele>
        <time>2013-12-08T13:45:29Z</time>
      </trkpt>
      <trkpt lat="43.40919" lon="2.4471">
        <ele>832.16</ele>
        <time>2013-12-08T13:45:35Z</time>
      </trkpt>
      <trkpt lat="43.40918" lon="2.44709">
        <ele>832.16</ele>
        <time>2013-12-08T13:45:36Z</time>
      </trkpt>
      <trkpt lat="43.40913" lon="2.44707">
        <ele>831.68</ele>
        <time>2013-12-08T13:45:41Z</time>
      </trkpt>
      <trkpt lat="43.409" lon="2.44703">
        <ele>828.79</ele>
        <time>2013-12-08T13:45:54Z</time>
      </trkpt>
      <trkpt lat="43.40889" lon="2.44697">
        <ele>826.87</ele>
        <time>2013-12-08T13:46:06Z</time>
      </trkpt>
      <trkpt lat="43.40878" lon="2.44698">
        <ele>825.43</ele>
        <time>2013-12-08T13:46:14Z</time>
      </trkpt>
      <trkpt lat="43.40861" lon="2.44706">
        <ele>823.51</ele>
        <time>2013-12-08T13:46:29Z</time>
      </trkpt>
      <trkpt lat="43.40848" lon="2.4471">
        <ele>823.03</ele>
        <time>2013-12-08T13:46:42Z</time>
      </trkpt>
      <trkpt lat="43.4083" lon="2.44712">
        <ele>822.06</ele>
        <time>2013-12-08T13:46:56Z</time>
      </trkpt>
      <trkpt lat="43.40814" lon="2.44702">
        <ele>821.58</ele>
        <time>2013-12-08T13:47:10Z</time>
      </trkpt>
      <trkpt lat="43.40801" lon="2.44696">
        <ele>821.58</ele>
        <time>2013-12-08T13:47:22Z</time>
      </trkpt>
      <trkpt lat="43.40796" lon="2.44688">
        <ele>821.58</ele>
        <time>2013-12-08T13:47:29Z</time>
      </trkpt>
      <trkpt lat="43.40778" lon="2.44667">
        <ele>819.66</ele>
        <time>2013-12-08T13:47:46Z</time>
      </trkpt>
      <trkpt lat="43.40772" lon="2.44652">
        <ele>819.18</ele>
        <time>2013-12-08T13:47:59Z</time>
      </trkpt>
      <trkpt lat="43.40773" lon="2.44649">
        <ele>819.18</ele>
        <time>2013-12-08T13:48:00Z</time>
      </trkpt>
      <trkpt lat="43.4077" lon="2.44635">
        <ele>819.66</ele>
        <time>2013-12-08T13:48:12Z</time>
      </trkpt>
      <trkpt lat="43.40769" lon="2.44631">
        <ele>819.18</ele>
        <time>2013-12-08T13:48:23Z</time>
      </trkpt>
      <trkpt lat="43.40769" lon="2.44631">
        <ele>819.66</ele>
        <time>2013-12-08T13:48:40Z</time>
      </trkpt>
      <trkpt lat="43.4077" lon="2.4463">
        <ele>819.18</ele>
        <time>2013-12-08T13:49:00Z</time>
      </trkpt>
      <trkpt lat="43.40766" lon="2.4463">
        <ele>819.18</ele>
        <time>2013-12-08T13:49:17Z</time>
      </trkpt>
      <trkpt lat="43.40766" lon="2.44629">
        <ele>819.18</ele>
        <time>2013-12-08T13:49:35Z</time>
      </trkpt>
      <trkpt lat="43.40767" lon="2.44626">
        <ele>818.7</ele>
        <time>2013-12-08T13:49:48Z</time>
      </trkpt>
      <trkpt lat="43.40766" lon="2.44624">
        <ele>819.18</ele>
        <time>2013-12-08T13:49:51Z</time>
      </trkpt>
      <trkpt lat="43.40762" lon="2.44604">
        <ele>817.26</ele>
        <time>2013-12-08T13:50:04Z</time>
      </trkpt>
      <trkpt lat="43.40756" lon="2.44599">
        <ele>816.78</ele>
        <time>2013-12-08T13:50:11Z</time>
      </trkpt>
      <trkpt lat="43.40754" lon="2.44599">
        <ele>816.78</ele>
        <time>2013-12-08T13:50:12Z</time>
      </trkpt>
      <trkpt lat="43.40745" lon="2.44601">
        <ele>815.82</ele>
        <time>2013-12-08T13:50:21Z</time>
      </trkpt>
      <trkpt lat="43.40731" lon="2.446">
        <ele>814.85</ele>
        <time>2013-12-08T13:50:33Z</time>
      </trkpt>
      <trkpt lat="43.40717" lon="2.44603">
        <ele>813.89</ele>
        <time>2013-12-08T13:50:44Z</time>
      </trkpt>
      <trkpt lat="43.40703" lon="2.4461">
        <ele>813.89</ele>
        <time>2013-12-08T13:50:53Z</time>
      </trkpt>
      <trkpt lat="43.4069" lon="2.44616">
        <ele>813.89</ele>
        <time>2013-12-08T13:51:03Z</time>
      </trkpt>
      <trkpt lat="43.40678" lon="2.44621">
        <ele>813.41</ele>
        <time>2013-12-08T13:51:13Z</time>
      </trkpt>
      <trkpt lat="43.40667" lon="2.44625">
        <ele>812.93</ele>
        <time>2013-12-08T13:51:23Z</time>
      </trkpt>
      <trkpt lat="43.40652" lon="2.44632">
        <ele>811.97</ele>
        <time>2013-12-08T13:51:37Z</time>
      </trkpt>
      <trkpt lat="43.4065" lon="2.44633">
        <ele>811.97</ele>
        <time>2013-12-08T13:51:39Z</time>
      </trkpt>
      <trkpt lat="43.40649" lon="2.44633">
        <ele>811.97</ele>
        <time>2013-12-08T13:51:40Z</time>
      </trkpt>
      <trkpt lat="43.40641" lon="2.44637">
        <ele>811.49</ele>
        <time>2013-12-08T13:51:49Z</time>
      </trkpt>
      <trkpt lat="43.40626" lon="2.44644">
        <ele>810.53</ele>
        <time>2013-12-08T13:52:02Z</time>
      </trkpt>
      <trkpt lat="43.40612" lon="2.44648">
        <ele>810.53</ele>
        <time>2013-12-08T13:52:12Z</time>
      </trkpt>
      <trkpt lat="43.40599" lon="2.4465">
        <ele>810.05</ele>
        <time>2013-12-08T13:52:23Z</time>
      </trkpt>
      <trkpt lat="43.40586" lon="2.44654">
        <ele>809.57</ele>
        <time>2013-12-08T13:52:34Z</time>
      </trkpt>
      <trkpt lat="43.40569" lon="2.44655">
        <ele>809.09</ele>
        <time>2013-12-08T13:52:48Z</time>
      </trkpt>
      <trkpt lat="43.4055" lon="2.44653">
        <ele>808.61</ele>
        <time>2013-12-08T13:53:02Z</time>
      </trkpt>
      <trkpt lat="43.40533" lon="2.44651">
        <ele>809.09</ele>
        <time>2013-12-08T13:53:16Z</time>
      </trkpt>
      <trkpt lat="43.40523" lon="2.44648">
        <ele>808.61</ele>
        <time>2013-12-08T13:53:24Z</time>
      </trkpt>
      <trkpt lat="43.4051" lon="2.44643">
        <ele>808.61</ele>
        <time>2013-12-08T13:53:37Z</time>
      </trkpt>
      <trkpt lat="43.40514" lon="2.44643">
        <ele>808.13</ele>
        <time>2013-12-08T13:53:50Z</time>
      </trkpt>
      <trkpt lat="43.40511" lon="2.44645">
        <ele>808.61</ele>
        <time>2013-12-08T13:54:07Z</time>
      </trkpt>
      <trkpt lat="43.40505" lon="2.44638">
        <ele>808.61</ele>
        <time>2013-12-08T13:54:18Z</time>
      </trkpt>
      <trkpt lat="43.40494" lon="2.44642">
        <ele>808.13</ele>
        <time>2013-12-08T13:54:32Z</time>
      </trkpt>
      <trkpt lat="43.40491" lon="2.44642">
        <ele>807.64</ele>
        <time>2013-12-08T13:54:37Z</time>
      </trkpt>
      <trkpt lat="43.4049" lon="2.44641">
        <ele>807.64</ele>
        <time>2013-12-08T13:54:38Z</time>
      </trkpt>
      <trkpt lat="43.40479" lon="2.44631">
        <ele>807.16</ele>
        <time>2013-12-08T13:54:49Z</time>
      </trkpt>
      <trkpt lat="43.40475" lon="2.44614">
        <ele>806.68</ele>
        <time>2013-12-08T13:55:01Z</time>
      </trkpt>
      <trkpt lat="43.40474" lon="2.44613">
        <ele>806.68</ele>
        <time>2013-12-08T13:55:02Z</time>
      </trkpt>
      <trkpt lat="43.40473" lon="2.44612">
        <ele>806.68</ele>
        <time>2013-12-08T13:55:03Z</time>
      </trkpt>
      <trkpt lat="43.40472" lon="2.44611">
        <ele>806.68</ele>
        <time>2013-12-08T13:55:04Z</time>
      </trkpt>
      <trkpt lat="43.40461" lon="2.446">
        <ele>805.72</ele>
        <time>2013-12-08T13:55:16Z</time>
      </trkpt>
      <trkpt lat="43.40452" lon="2.44587">
        <ele>804.28</ele>
        <time>2013-12-08T13:55:29Z</time>
      </trkpt>
      <trkpt lat="43.40439" lon="2.44573">
        <ele>803.8</ele>
        <time>2013-12-08T13:55:41Z</time>
      </trkpt>
      <trkpt lat="43.40433" lon="2.44567">
        <ele>801.88</ele>
        <time>2013-12-08T13:55:55Z</time>
      </trkpt>
      <trkpt lat="43.40431" lon="2.44571">
        <ele>801.88</ele>
        <time>2013-12-08T13:56:10Z</time>
      </trkpt>
      <trkpt lat="43.4043" lon="2.44562">
        <ele>802.36</ele>
        <time>2013-12-08T13:56:31Z</time>
      </trkpt>
      <trkpt lat="43.40424" lon="2.44554">
        <ele>800.44</ele>
        <time>2013-12-08T13:56:41Z</time>
      </trkpt>
      <trkpt lat="43.40409" lon="2.4454">
        <ele>798.99</ele>
        <time>2013-12-08T13:56:55Z</time>
      </trkpt>
      <trkpt lat="43.40399" lon="2.44532">
        <ele>798.03</ele>
        <time>2013-12-08T13:57:03Z</time>
      </trkpt>
      <trkpt lat="43.40393" lon="2.44527">
        <ele>797.55</ele>
        <time>2013-12-08T13:57:09Z</time>
      </trkpt>
      <trkpt lat="43.4039" lon="2.44526">
        <ele>797.07</ele>
        <time>2013-12-08T13:57:11Z</time>
      </trkpt>
      <trkpt lat="43.40389" lon="2.44524">
        <ele>797.07</ele>
        <time>2013-12-08T13:57:12Z</time>
      </trkpt>
      <trkpt lat="43.40379" lon="2.44515">
        <ele>796.11</ele>
        <time>2013-12-08T13:57:25Z</time>
      </trkpt>
      <trkpt lat="43.40372" lon="2.44507">
        <ele>795.15</ele>
        <time>2013-12-08T13:57:35Z</time>
      </trkpt>
      <trkpt lat="43.40368" lon="2.44511">
        <ele>795.63</ele>
        <time>2013-12-08T13:57:50Z</time>
      </trkpt>
      <trkpt lat="43.40369" lon="2.44505">
        <ele>795.63</ele>
        <time>2013-12-08T13:57:52Z</time>
      </trkpt>
      <trkpt lat="43.40364" lon="2.44497">
        <ele>795.63</ele>
        <time>2013-12-08T13:57:58Z</time>
      </trkpt>
      <trkpt lat="43.40357" lon="2.4449">
        <ele>794.19</ele>
        <time>2013-12-08T13:58:06Z</time>
      </trkpt>
      <trkpt lat="43.40345" lon="2.44478">
        <ele>792.74</ele>
        <time>2013-12-08T13:58:16Z</time>
      </trkpt>
      <trkpt lat="43.40332" lon="2.44464">
        <ele>791.3</ele>
        <time>2013-12-08T13:58:29Z</time>
      </trkpt>
      <trkpt lat="43.40322" lon="2.44455">
        <ele>790.34</ele>
        <time>2013-12-08T13:58:39Z</time>
      </trkpt>
      <trkpt lat="43.40303" lon="2.44446">
        <ele>788.9</ele>
        <time>2013-12-08T13:58:50Z</time>
      </trkpt>
      <trkpt lat="43.40301" lon="2.44446">
        <ele>788.9</ele>
        <time>2013-12-08T13:58:51Z</time>
      </trkpt>
      <trkpt lat="43.403" lon="2.44445">
        <ele>788.9</ele>
        <time>2013-12-08T13:58:52Z</time>
      </trkpt>
      <trkpt lat="43.40283" lon="2.44436">
        <ele>787.46</ele>
        <time>2013-12-08T13:59:05Z</time>
      </trkpt>
      <trkpt lat="43.40267" lon="2.44424">
        <ele>786.02</ele>
        <time>2013-12-08T13:59:19Z</time>
      </trkpt>
      <trkpt lat="43.40252" lon="2.44414">
        <ele>785.05</ele>
        <time>2013-12-08T13:59:32Z</time>
      </trkpt>
      <trkpt lat="43.4025" lon="2.44412">
        <ele>785.05</ele>
        <time>2013-12-08T13:59:34Z</time>
      </trkpt>
      <trkpt lat="43.40249" lon="2.4441">
        <ele>785.53</ele>
        <time>2013-12-08T13:59:35Z</time>
      </trkpt>
      <trkpt lat="43.40247" lon="2.44408">
        <ele>785.05</ele>
        <time>2013-12-08T13:59:37Z</time>
      </trkpt>
      <trkpt lat="43.40235" lon="2.44402">
        <ele>784.09</ele>
        <time>2013-12-08T13:59:49Z</time>
      </trkpt>
      <trkpt lat="43.40231" lon="2.44384">
        <ele>783.13</ele>
        <time>2013-12-08T14:00:01Z</time>
      </trkpt>
      <trkpt lat="43.40232" lon="2.44383">
        <ele>783.61</ele>
        <time>2013-12-08T14:00:02Z</time>
      </trkpt>
      <trkpt lat="43.40234" lon="2.4438">
        <ele>783.13</ele>
        <time>2013-12-08T14:00:05Z</time>
      </trkpt>
      <trkpt lat="43.40235" lon="2.44378">
        <ele>783.13</ele>
        <time>2013-12-08T14:00:06Z</time>
      </trkpt>
      <trkpt lat="43.40236" lon="2.44376">
        <ele>783.13</ele>
        <time>2013-12-08T14:00:07Z</time>
      </trkpt>
      <trkpt lat="43.40238" lon="2.44371">
        <ele>783.13</ele>
        <time>2013-12-08T14:00:16Z</time>
      </trkpt>
      <trkpt lat="43.40243" lon="2.44367">
        <ele>782.65</ele>
        <time>2013-12-08T14:00:41Z</time>
      </trkpt>
      <trkpt lat="43.40238" lon="2.44365">
        <ele>783.13</ele>
        <time>2013-12-08T14:00:58Z</time>
      </trkpt>
      <trkpt lat="43.40226" lon="2.44366">
        <ele>783.13</ele>
        <time>2013-12-08T14:01:03Z</time>
      </trkpt>
      <trkpt lat="43.40225" lon="2.44366">
        <ele>783.13</ele>
        <time>2013-12-08T14:01:04Z</time>
      </trkpt>
      <trkpt lat="43.40222" lon="2.44365">
        <ele>782.65</ele>
        <time>2013-12-08T14:01:06Z</time>
      </trkpt>
      <trkpt lat="43.40221" lon="2.44365">
        <ele>783.13</ele>
        <time>2013-12-08T14:01:07Z</time>
      </trkpt>
      <trkpt lat="43.4022" lon="2.44365">
        <ele>783.13</ele>
        <time>2013-12-08T14:01:08Z</time>
      </trkpt>
      <trkpt lat="43.40218" lon="2.44365">
        <ele>783.61</ele>
        <time>2013-12-08T14:01:11Z</time>
      </trkpt>
      <trkpt lat="43.40218" lon="2.44364">
        <ele>783.13</ele>
        <time>2013-12-08T14:01:12Z</time>
      </trkpt>
      <trkpt lat="43.40218" lon="2.44363">
        <ele>783.13</ele>
        <time>2013-12-08T14:01:13Z</time>
      </trkpt>
      <trkpt lat="43.40218" lon="2.44362">
        <ele>783.13</ele>
        <time>2013-12-08T14:01:14Z</time>
      </trkpt>
      <trkpt lat="43.40217" lon="2.44362">
        <ele>783.13</ele>
        <time>2013-12-08T14:01:15Z</time>
      </trkpt>
      <trkpt lat="43.40217" lon="2.44361">
        <ele>783.13</ele>
        <time>2013-12-08T14:01:16Z</time>
      </trkpt>
      <trkpt lat="43.40214" lon="2.44353">
        <ele>783.13</ele>
        <time>2013-12-08T14:01:26Z</time>
      </trkpt>
      <trkpt lat="43.40216" lon="2.44351">
        <ele>783.13</ele>
        <time>2013-12-08T14:01:37Z</time>
      </trkpt>
      <trkpt lat="43.40216" lon="2.44349">
        <ele>783.13</ele>
        <time>2013-12-08T14:01:38Z</time>
      </trkpt>
      <trkpt lat="43.40215" lon="2.4433">
        <ele>782.17</ele>
        <time>2013-12-08T14:01:50Z</time>
      </trkpt>
      <trkpt lat="43.40209" lon="2.44332">
        <ele>782.17</ele>
        <time>2013-12-08T14:02:14Z</time>
      </trkpt>
      <trkpt lat="43.40208" lon="2.44327">
        <ele>782.17</ele>
        <time>2013-12-08T14:02:33Z</time>
      </trkpt>
      <trkpt lat="43.40208" lon="2.44326">
        <ele>783.13</ele>
        <time>2013-12-08T14:02:34Z</time>
      </trkpt>
      <trkpt lat="43.40208" lon="2.44324">
        <ele>782.65</ele>
        <time>2013-12-08T14:02:35Z</time>
      </trkpt>
      <trkpt lat="43.40208" lon="2.44322">
        <ele>783.13</ele>
        <time>2013-12-08T14:02:36Z</time>
      </trkpt>
      <trkpt lat="43.40208" lon="2.4432">
        <ele>782.65</ele>
        <time>2013-12-08T14:02:37Z</time>
      </trkpt>
      <trkpt lat="43.40208" lon="2.44319">
        <ele>783.13</ele>
        <time>2013-12-08T14:02:38Z</time>
      </trkpt>
      <trkpt lat="43.40208" lon="2.44317">
        <ele>782.65</ele>
        <time>2013-12-08T14:02:39Z</time>
      </trkpt>
      <trkpt lat="43.40208" lon="2.44314">
        <ele>783.13</ele>
        <time>2013-12-08T14:02:40Z</time>
      </trkpt>
      <trkpt lat="43.40209" lon="2.44311">
        <ele>783.13</ele>
        <time>2013-12-08T14:02:41Z</time>
      </trkpt>
      <trkpt lat="43.40209" lon="2.44291">
        <ele>782.65</ele>
        <time>2013-12-08T14:02:52Z</time>
      </trkpt>
      <trkpt lat="43.40209" lon="2.44273">
        <ele>782.65</ele>
        <time>2013-12-08T14:03:02Z</time>
      </trkpt>
      <trkpt lat="43.4021" lon="2.44251">
        <ele>783.13</ele>
        <time>2013-12-08T14:03:14Z</time>
      </trkpt>
      <trkpt lat="43.40209" lon="2.44252">
        <ele>782.17</ele>
        <time>2013-12-08T14:03:25Z</time>
      </trkpt>
      <trkpt lat="43.40207" lon="2.4425">
        <ele>783.13</ele>
        <time>2013-12-08T14:03:36Z</time>
      </trkpt>
      <trkpt lat="43.40207" lon="2.44224">
        <ele>782.65</ele>
        <time>2013-12-08T14:03:49Z</time>
      </trkpt>
      <trkpt lat="43.40207" lon="2.44207">
        <ele>782.65</ele>
        <time>2013-12-08T14:03:58Z</time>
      </trkpt>
      <trkpt lat="43.40201" lon="2.44206">
        <ele>782.65</ele>
        <time>2013-12-08T14:04:07Z</time>
      </trkpt>
      <trkpt lat="43.40201" lon="2.44207">
        <ele>782.65</ele>
        <time>2013-12-08T14:04:17Z</time>
      </trkpt>
      <trkpt lat="43.40202" lon="2.44205">
        <ele>782.65</ele>
        <time>2013-12-08T14:04:18Z</time>
      </trkpt>
      <trkpt lat="43.40202" lon="2.44203">
        <ele>782.17</ele>
        <time>2013-12-08T14:04:19Z</time>
      </trkpt>
      <trkpt lat="43.40202" lon="2.44202">
        <ele>783.13</ele>
        <time>2013-12-08T14:04:20Z</time>
      </trkpt>
      <trkpt lat="43.40202" lon="2.442">
        <ele>782.65</ele>
        <time>2013-12-08T14:04:21Z</time>
      </trkpt>
      <trkpt lat="43.40203" lon="2.44198">
        <ele>782.65</ele>
        <time>2013-12-08T14:04:22Z</time>
      </trkpt>
      <trkpt lat="43.40203" lon="2.44197">
        <ele>783.13</ele>
        <time>2013-12-08T14:04:23Z</time>
      </trkpt>
      <trkpt lat="43.40204" lon="2.44194">
        <ele>782.65</ele>
        <time>2013-12-08T14:04:24Z</time>
      </trkpt>
      <trkpt lat="43.40204" lon="2.44169">
        <ele>782.65</ele>
        <time>2013-12-08T14:04:36Z</time>
      </trkpt>
      <trkpt lat="43.40204" lon="2.44149">
        <ele>782.65</ele>
        <time>2013-12-08T14:04:46Z</time>
      </trkpt>
      <trkpt lat="43.40203" lon="2.44128">
        <ele>782.65</ele>
        <time>2013-12-08T14:04:58Z</time>
      </trkpt>
      <trkpt lat="43.40203" lon="2.44109">
        <ele>782.65</ele>
        <time>2013-12-08T14:05:08Z</time>
      </trkpt>
      <trkpt lat="43.40203" lon="2.44107">
        <ele>782.65</ele>
        <time>2013-12-08T14:05:09Z</time>
      </trkpt>
      <trkpt lat="43.40203" lon="2.44105">
        <ele>782.65</ele>
        <time>2013-12-08T14:05:10Z</time>
      </trkpt>
      <trkpt lat="43.40203" lon="2.4408">
        <ele>782.17</ele>
        <time>2013-12-08T14:05:23Z</time>
      </trkpt>
      <trkpt lat="43.40201" lon="2.44064">
        <ele>782.65</ele>
        <time>2013-12-08T14:05:35Z</time>
      </trkpt>
      <trkpt lat="43.40196" lon="2.44066">
        <ele>782.17</ele>
        <time>2013-12-08T14:05:50Z</time>
      </trkpt>
      <trkpt lat="43.40196" lon="2.44072">
        <ele>782.65</ele>
        <time>2013-12-08T14:06:18Z</time>
      </trkpt>
      <trkpt lat="43.40195" lon="2.44044">
        <ele>782.17</ele>
        <time>2013-12-08T14:06:29Z</time>
      </trkpt>
      <trkpt lat="43.40196" lon="2.4404">
        <ele>782.17</ele>
        <time>2013-12-08T14:06:31Z</time>
      </trkpt>
      <trkpt lat="43.40196" lon="2.44038">
        <ele>782.65</ele>
        <time>2013-12-08T14:06:32Z</time>
      </trkpt>
      <trkpt lat="43.40197" lon="2.44037">
        <ele>783.13</ele>
        <time>2013-12-08T14:06:33Z</time>
      </trkpt>
      <trkpt lat="43.40198" lon="2.44035">
        <ele>782.65</ele>
        <time>2013-12-08T14:06:34Z</time>
      </trkpt>
      <trkpt lat="43.40199" lon="2.44034">
        <ele>783.13</ele>
        <time>2013-12-08T14:06:35Z</time>
      </trkpt>
      <trkpt lat="43.40194" lon="2.44024">
        <ele>783.61</ele>
        <time>2013-12-08T14:06:45Z</time>
      </trkpt>
      <trkpt lat="43.40187" lon="2.44024">
        <ele>783.61</ele>
        <time>2013-12-08T14:06:57Z</time>
      </trkpt>
      <trkpt lat="43.4018" lon="2.44026">
        <ele>783.13</ele>
        <time>2013-12-08T14:07:14Z</time>
      </trkpt>
      <trkpt lat="43.40191" lon="2.44024">
        <ele>783.61</ele>
        <time>2013-12-08T14:07:26Z</time>
      </trkpt>
      <trkpt lat="43.40189" lon="2.44023">
        <ele>782.65</ele>
        <time>2013-12-08T14:07:39Z</time>
      </trkpt>
      <trkpt lat="43.40189" lon="2.44022">
        <ele>783.13</ele>
        <time>2013-12-08T14:08:00Z</time>
      </trkpt>
      <trkpt lat="43.40193" lon="2.44024">
        <ele>782.17</ele>
        <time>2013-12-08T14:08:22Z</time>
      </trkpt>
      <trkpt lat="43.40197" lon="2.4402">
        <ele>782.17</ele>
        <time>2013-12-08T14:08:46Z</time>
      </trkpt>
      <trkpt lat="43.40197" lon="2.44023">
        <ele>783.13</ele>
        <time>2013-12-08T14:09:10Z</time>
      </trkpt>
      <trkpt lat="43.40198" lon="2.44026">
        <ele>782.65</ele>
        <time>2013-12-08T14:09:34Z</time>
      </trkpt>
      <trkpt lat="43.40199" lon="2.44028">
        <ele>783.61</ele>
        <time>2013-12-08T14:09:59Z</time>
      </trkpt>
      <trkpt lat="43.40196" lon="2.44027">
        <ele>784.09</ele>
        <time>2013-12-08T14:10:27Z</time>
      </trkpt>
      <trkpt lat="43.40198" lon="2.44025">
        <ele>784.57</ele>
        <time>2013-12-08T14:10:53Z</time>
      </trkpt>
      <trkpt lat="43.40209" lon="2.44018">
        <ele>785.05</ele>
        <time>2013-12-08T14:11:18Z</time>
      </trkpt>
      <trkpt lat="43.40215" lon="2.44019">
        <ele>786.02</ele>
        <time>2013-12-08T14:11:48Z</time>
      </trkpt>
      <trkpt lat="43.40217" lon="2.44015">
        <ele>786.5</ele>
        <time>2013-12-08T14:12:15Z</time>
      </trkpt>
      <trkpt lat="43.40218" lon="2.44019">
        <ele>786.98</ele>
        <time>2013-12-08T14:12:30Z</time>
      </trkpt>
      <trkpt lat="43.40218" lon="2.4402">
        <ele>787.46</ele>
        <time>2013-12-08T14:12:54Z</time>
      </trkpt>
      <trkpt lat="43.4021" lon="2.44022">
        <ele>788.9</ele>
        <time>2013-12-08T14:13:20Z</time>
      </trkpt>
      <trkpt lat="43.40214" lon="2.4402">
        <ele>789.38</ele>
        <time>2013-12-08T14:13:46Z</time>
      </trkpt>
      <trkpt lat="43.40215" lon="2.4402">
        <ele>789.86</ele>
        <time>2013-12-08T14:14:16Z</time>
      </trkpt>
      <trkpt lat="43.40218" lon="2.4402">
        <ele>790.34</ele>
        <time>2013-12-08T14:14:42Z</time>
      </trkpt>
      <trkpt lat="43.4021" lon="2.44023">
        <ele>791.3</ele>
        <time>2013-12-08T14:15:11Z</time>
      </trkpt>
      <trkpt lat="43.40207" lon="2.44025">
        <ele>791.78</ele>
        <time>2013-12-08T14:15:36Z</time>
      </trkpt>
      <trkpt lat="43.40207" lon="2.44027">
        <ele>792.26</ele>
        <time>2013-12-08T14:16:02Z</time>
      </trkpt>
      <trkpt lat="43.40202" lon="2.44025">
        <ele>793.22</ele>
        <time>2013-12-08T14:16:25Z</time>
      </trkpt>
      <trkpt lat="43.40208" lon="2.44025">
        <ele>793.71</ele>
        <time>2013-12-08T14:16:51Z</time>
      </trkpt>
      <trkpt lat="43.40206" lon="2.44023">
        <ele>793.22</ele>
        <time>2013-12-08T14:17:23Z</time>
      </trkpt>
      <trkpt lat="43.40206" lon="2.44023">
        <ele>793.71</ele>
        <time>2013-12-08T14:17:54Z</time>
      </trkpt>
      <trkpt lat="43.40205" lon="2.44025">
        <ele>794.19</ele>
        <time>2013-12-08T14:18:25Z</time>
      </trkpt>
      <trkpt lat="43.40205" lon="2.44026">
        <ele>795.15</ele>
        <time>2013-12-08T14:18:54Z</time>
      </trkpt>
      <trkpt lat="43.40203" lon="2.44026">
        <ele>794.19</ele>
        <time>2013-12-08T14:19:23Z</time>
      </trkpt>
      <trkpt lat="43.40196" lon="2.44031">
        <ele>794.67</ele>
        <time>2013-12-08T14:19:53Z</time>
      </trkpt>
      <trkpt lat="43.40193" lon="2.44032">
        <ele>795.15</ele>
        <time>2013-12-08T14:20:18Z</time>
      </trkpt>
      <trkpt lat="43.4019" lon="2.44031">
        <ele>795.15</ele>
        <time>2013-12-08T14:20:46Z</time>
      </trkpt>
      <trkpt lat="43.4019" lon="2.44032">
        <ele>795.63</ele>
        <time>2013-12-08T14:21:13Z</time>
      </trkpt>
      <trkpt lat="43.40191" lon="2.4403">
        <ele>795.63</ele>
        <time>2013-12-08T14:21:43Z</time>
      </trkpt>
      <trkpt lat="43.40188" lon="2.44033">
        <ele>795.15</ele>
        <time>2013-12-08T14:22:06Z</time>
      </trkpt>
      <trkpt lat="43.40187" lon="2.44032">
        <ele>795.15</ele>
        <time>2013-12-08T14:22:32Z</time>
      </trkpt>
      <trkpt lat="43.40189" lon="2.44032">
        <ele>795.15</ele>
        <time>2013-12-08T14:23:00Z</time>
      </trkpt>
      <trkpt lat="43.40192" lon="2.44032">
        <ele>795.15</ele>
        <time>2013-12-08T14:23:26Z</time>
      </trkpt>
      <trkpt lat="43.40193" lon="2.44025">
        <ele>794.67</ele>
        <time>2013-12-08T14:23:54Z</time>
      </trkpt>
      <trkpt lat="43.40191" lon="2.44027">
        <ele>794.67</ele>
        <time>2013-12-08T14:24:29Z</time>
      </trkpt>
      <trkpt lat="43.40191" lon="2.4403">
        <ele>794.67</ele>
        <time>2013-12-08T14:24:56Z</time>
      </trkpt>
      <trkpt lat="43.40195" lon="2.44024">
        <ele>794.19</ele>
        <time>2013-12-08T14:25:29Z</time>
      </trkpt>
      <trkpt lat="43.40196" lon="2.44024">
        <ele>794.67</ele>
        <time>2013-12-08T14:25:55Z</time>
      </trkpt>
      <trkpt lat="43.40196" lon="2.44023">
        <ele>794.19</ele>
        <time>2013-12-08T14:26:23Z</time>
      </trkpt>
      <trkpt lat="43.40194" lon="2.44027">
        <ele>793.71</ele>
        <time>2013-12-08T14:26:48Z</time>
      </trkpt>
      <trkpt lat="43.40196" lon="2.44029">
        <ele>793.71</ele>
        <time>2013-12-08T14:27:12Z</time>
      </trkpt>
      <trkpt lat="43.40196" lon="2.44026">
        <ele>794.19</ele>
        <time>2013-12-08T14:27:45Z</time>
      </trkpt>
      <trkpt lat="43.40193" lon="2.44028">
        <ele>794.67</ele>
        <time>2013-12-08T14:27:59Z</time>
      </trkpt>
      <trkpt lat="43.40193" lon="2.44029">
        <ele>794.67</ele>
        <time>2013-12-08T14:28:12Z</time>
      </trkpt>
      <trkpt lat="43.40191" lon="2.4403">
        <ele>794.19</ele>
        <time>2013-12-08T14:28:25Z</time>
      </trkpt>
      <trkpt lat="43.40195" lon="2.44022">
        <ele>794.19</ele>
        <time>2013-12-08T14:28:38Z</time>
      </trkpt>
      <trkpt lat="43.40191" lon="2.44012">
        <ele>795.63</ele>
        <time>2013-12-08T14:28:49Z</time>
      </trkpt>
      <trkpt lat="43.40189" lon="2.43998">
        <ele>797.07</ele>
        <time>2013-12-08T14:28:59Z</time>
      </trkpt>
      <trkpt lat="43.40188" lon="2.43992">
        <ele>798.03</ele>
        <time>2013-12-08T14:29:03Z</time>
      </trkpt>
      <trkpt lat="43.40183" lon="2.4398">
        <ele>798.99</ele>
        <time>2013-12-08T14:29:12Z</time>
      </trkpt>
      <trkpt lat="43.40181" lon="2.43978">
        <ele>799.47</ele>
        <time>2013-12-08T14:29:14Z</time>
      </trkpt>
      <trkpt lat="43.40181" lon="2.43976">
        <ele>799.95</ele>
        <time>2013-12-08T14:29:15Z</time>
      </trkpt>
      <trkpt lat="43.40175" lon="2.43955">
        <ele>800.92</ele>
        <time>2013-12-08T14:29:30Z</time>
      </trkpt>
      <trkpt lat="43.40174" lon="2.43954">
        <ele>801.4</ele>
        <time>2013-12-08T14:29:31Z</time>
      </trkpt>
      <trkpt lat="43.40174" lon="2.43953">
        <ele>801.4</ele>
        <time>2013-12-08T14:29:32Z</time>
      </trkpt>
      <trkpt lat="43.40174" lon="2.43951">
        <ele>801.4</ele>
        <time>2013-12-08T14:29:33Z</time>
      </trkpt>
      <trkpt lat="43.40174" lon="2.43949">
        <ele>800.92</ele>
        <time>2013-12-08T14:29:34Z</time>
      </trkpt>
      <trkpt lat="43.40174" lon="2.43948">
        <ele>801.4</ele>
        <time>2013-12-08T14:29:35Z</time>
      </trkpt>
      <trkpt lat="43.40174" lon="2.43947">
        <ele>801.4</ele>
        <time>2013-12-08T14:29:36Z</time>
      </trkpt>
      <trkpt lat="43.40174" lon="2.43945">
        <ele>801.4</ele>
        <time>2013-12-08T14:29:37Z</time>
      </trkpt>
      <trkpt lat="43.40175" lon="2.4394">
        <ele>801.88</ele>
        <time>2013-12-08T14:29:41Z</time>
      </trkpt>
      <trkpt lat="43.40176" lon="2.43937">
        <ele>802.36</ele>
        <time>2013-12-08T14:29:44Z</time>
      </trkpt>
      <trkpt lat="43.40176" lon="2.43936">
        <ele>802.36</ele>
        <time>2013-12-08T14:29:45Z</time>
      </trkpt>
      <trkpt lat="43.40184" lon="2.43932">
        <ele>804.28</ele>
        <time>2013-12-08T14:29:58Z</time>
      </trkpt>
      <trkpt lat="43.40188" lon="2.43919">
        <ele>803.8</ele>
        <time>2013-12-08T14:30:11Z</time>
      </trkpt>
      <trkpt lat="43.40188" lon="2.43919">
        <ele>804.28</ele>
        <time>2013-12-08T14:30:23Z</time>
      </trkpt>
      <trkpt lat="43.4019" lon="2.43916">
        <ele>804.28</ele>
        <time>2013-12-08T14:30:36Z</time>
      </trkpt>
      <trkpt lat="43.40189" lon="2.43916">
        <ele>803.8</ele>
        <time>2013-12-08T14:30:51Z</time>
      </trkpt>
      <trkpt lat="43.40186" lon="2.43917">
        <ele>803.8</ele>
        <time>2013-12-08T14:31:04Z</time>
      </trkpt>
      <trkpt lat="43.40187" lon="2.4392">
        <ele>803.8</ele>
        <time>2013-12-08T14:31:14Z</time>
      </trkpt>
      <trkpt lat="43.40189" lon="2.4392">
        <ele>807.16</ele>
        <time>2013-12-08T14:31:24Z</time>
      </trkpt>
      <trkpt lat="43.40189" lon="2.4392">
        <ele>803.8</ele>
        <time>2013-12-08T14:31:25Z</time>
      </trkpt>
      <trkpt lat="43.4019" lon="2.43921">
        <ele>799.95</ele>
        <time>2013-12-08T14:31:32Z</time>
      </trkpt>
      <trkpt lat="43.4019" lon="2.43921">
        <ele>810.05</ele>
        <time>2013-12-08T14:31:33Z</time>
      </trkpt>
      <trkpt lat="43.4019" lon="2.43921">
        <ele>801.4</ele>
        <time>2013-12-08T14:31:34Z</time>
      </trkpt>
    </trkseg>
  </trk>
</gpx>